<?xml version="1.0" encoding="UTF-8" standalone="no" ?>
<gpx xmlns="http://www.topografix.com/GPX/1/1" xmlns:xsi="http://www.w3.org/2001/XMLSchema-instance" xsi:schemaLocation="http://www.topografix.com/GPX/1/1 http://www.topografix.com/GPX/1/1/gpx.xsd" version="1.1" creator="VisuGPX - https://www.visugpx.com">
  <metadata>
    <name>028: Sillans la Cascade</name>
    <desc><![CDATA[Facebook vidéo et photos:]]></desc>
  </metadata>
  <trk>
    <name><![CDATA[28; Sillans la Cascade]]></name>
    <extensions>
      <line xmlns="http://www.topografix.com/GPX/gpx_style/0/2">
        <color>0000FF</color>
        <width>4</width>
      </line>
    </extensions>
    <trkseg>
      <trkpt lat="43.56672" lon="6.1797">
        <ele>371.9</ele>
        <time>2025-06-19T22:36:16Z</time>
      </trkpt>
      <trkpt lat="43.5667" lon="6.17969">
        <ele>371.7</ele>
        <time>2025-06-19T22:36:16Z</time>
      </trkpt>
      <trkpt lat="43.5667" lon="6.17972">
        <ele>371.7</ele>
        <time>2025-06-19T22:36:16Z</time>
      </trkpt>
      <trkpt lat="43.56669" lon="6.17976">
        <ele>371.6</ele>
        <time>2025-06-19T22:36:16Z</time>
      </trkpt>
      <trkpt lat="43.56668" lon="6.1798">
        <ele>371.6</ele>
        <time>2025-06-19T22:36:16Z</time>
      </trkpt>
      <trkpt lat="43.56668" lon="6.17983">
        <ele>371.5</ele>
        <time>2025-06-19T22:36:16Z</time>
      </trkpt>
      <trkpt lat="43.56668" lon="6.17987">
        <ele>371.5</ele>
        <time>2025-06-19T22:36:16Z</time>
      </trkpt>
      <trkpt lat="43.56667" lon="6.17992">
        <ele>371.1</ele>
        <time>2025-06-19T22:36:16Z</time>
      </trkpt>
      <trkpt lat="43.56669" lon="6.17996">
        <ele>371.3</ele>
        <time>2025-06-19T22:36:16Z</time>
      </trkpt>
      <trkpt lat="43.56681" lon="6.18022">
        <ele>372.6</ele>
        <time>2025-06-19T22:36:16Z</time>
      </trkpt>
      <trkpt lat="43.56684" lon="6.18038">
        <ele>372.6</ele>
        <time>2025-06-19T22:36:16Z</time>
      </trkpt>
      <trkpt lat="43.56685" lon="6.18041">
        <ele>373.1</ele>
        <time>2025-06-19T22:36:16Z</time>
      </trkpt>
      <trkpt lat="43.56687" lon="6.18048">
        <ele>372.8</ele>
        <time>2025-06-19T22:36:16Z</time>
      </trkpt>
      <trkpt lat="43.56691" lon="6.18054">
        <ele>372.6</ele>
        <time>2025-06-19T22:36:16Z</time>
      </trkpt>
      <trkpt lat="43.56695" lon="6.18048">
        <ele>373.7</ele>
        <time>2025-06-19T22:36:16Z</time>
      </trkpt>
      <trkpt lat="43.56698" lon="6.18044">
        <ele>373.7</ele>
        <time>2025-06-19T22:36:16Z</time>
      </trkpt>
      <trkpt lat="43.56702" lon="6.18049">
        <ele>373.4</ele>
        <time>2025-06-19T22:36:16Z</time>
      </trkpt>
      <trkpt lat="43.56706" lon="6.18051">
        <ele>373.1</ele>
        <time>2025-06-19T22:36:16Z</time>
      </trkpt>
      <trkpt lat="43.5671" lon="6.18053">
        <ele>372.8</ele>
        <time>2025-06-19T22:36:16Z</time>
      </trkpt>
      <trkpt lat="43.56716" lon="6.18054">
        <ele>372.1</ele>
        <time>2025-06-19T22:36:16Z</time>
      </trkpt>
      <trkpt lat="43.5672" lon="6.18054">
        <ele>371.6</ele>
        <time>2025-06-19T22:36:16Z</time>
      </trkpt>
      <trkpt lat="43.56725" lon="6.18054">
        <ele>371.1</ele>
        <time>2025-06-19T22:36:16Z</time>
      </trkpt>
      <trkpt lat="43.56725" lon="6.18052">
        <ele>371.6</ele>
        <time>2025-06-19T22:36:16Z</time>
      </trkpt>
      <trkpt lat="43.56725" lon="6.18054">
        <ele>371.1</ele>
        <time>2025-06-19T22:36:16Z</time>
      </trkpt>
      <trkpt lat="43.5674" lon="6.18055">
        <ele>369.4</ele>
        <time>2025-06-19T22:36:16Z</time>
      </trkpt>
      <trkpt lat="43.56766" lon="6.18056">
        <ele>367.8</ele>
        <time>2025-06-19T22:36:16Z</time>
      </trkpt>
      <trkpt lat="43.5677" lon="6.18056">
        <ele>367.8</ele>
        <time>2025-06-19T22:36:16Z</time>
      </trkpt>
      <trkpt lat="43.56791" lon="6.18057">
        <ele>366.7</ele>
        <time>2025-06-19T22:36:16Z</time>
      </trkpt>
      <trkpt lat="43.56804" lon="6.18058">
        <ele>366.2</ele>
        <time>2025-06-19T22:36:16Z</time>
      </trkpt>
      <trkpt lat="43.56814" lon="6.18059">
        <ele>365.6</ele>
        <time>2025-06-19T22:36:16Z</time>
      </trkpt>
      <trkpt lat="43.56821" lon="6.18064">
        <ele>365.3</ele>
        <time>2025-06-19T22:36:16Z</time>
      </trkpt>
      <trkpt lat="43.56826" lon="6.18069">
        <ele>365.1</ele>
        <time>2025-06-19T22:36:16Z</time>
      </trkpt>
      <trkpt lat="43.56829" lon="6.18075">
        <ele>365.1</ele>
        <time>2025-06-19T22:36:16Z</time>
      </trkpt>
      <trkpt lat="43.56831" lon="6.18094">
        <ele>359.7</ele>
        <time>2025-06-19T22:36:16Z</time>
      </trkpt>
      <trkpt lat="43.56832" lon="6.181">
        <ele>359.5</ele>
        <time>2025-06-19T22:36:16Z</time>
      </trkpt>
      <trkpt lat="43.56833" lon="6.18105">
        <ele>359.8</ele>
        <time>2025-06-19T22:36:16Z</time>
      </trkpt>
      <trkpt lat="43.56833" lon="6.18107">
        <ele>360.5</ele>
        <time>2025-06-19T22:36:16Z</time>
      </trkpt>
      <trkpt lat="43.56833" lon="6.18111">
        <ele>361.5</ele>
        <time>2025-06-19T22:36:16Z</time>
      </trkpt>
      <trkpt lat="43.56834" lon="6.18117">
        <ele>362.2</ele>
        <time>2025-06-19T22:36:16Z</time>
      </trkpt>
      <trkpt lat="43.56836" lon="6.18128">
        <ele>364.7</ele>
        <time>2025-06-19T22:36:16Z</time>
      </trkpt>
      <trkpt lat="43.56837" lon="6.18136">
        <ele>364.5</ele>
        <time>2025-06-19T22:36:16Z</time>
      </trkpt>
      <trkpt lat="43.56825" lon="6.18142">
        <ele>363.8</ele>
        <time>2025-06-19T22:36:16Z</time>
      </trkpt>
      <trkpt lat="43.56823" lon="6.18143">
        <ele>363.8</ele>
        <time>2025-06-19T22:36:16Z</time>
      </trkpt>
      <trkpt lat="43.56823" lon="6.18146">
        <ele>363.8</ele>
        <time>2025-06-19T22:36:16Z</time>
      </trkpt>
      <trkpt lat="43.56823" lon="6.1815">
        <ele>363.9</ele>
        <time>2025-06-19T22:36:16Z</time>
      </trkpt>
      <trkpt lat="43.56816" lon="6.18157">
        <ele>363.8</ele>
        <time>2025-06-19T22:36:16Z</time>
      </trkpt>
      <trkpt lat="43.56805" lon="6.18167">
        <ele>363.8</ele>
        <time>2025-06-19T22:36:16Z</time>
      </trkpt>
      <trkpt lat="43.56796" lon="6.18175">
        <ele>363.8</ele>
        <time>2025-06-19T22:36:16Z</time>
      </trkpt>
      <trkpt lat="43.56792" lon="6.18177">
        <ele>363.8</ele>
        <time>2025-06-19T22:36:16Z</time>
      </trkpt>
      <trkpt lat="43.56788" lon="6.18179">
        <ele>363.8</ele>
        <time>2025-06-19T22:36:16Z</time>
      </trkpt>
      <trkpt lat="43.56784" lon="6.18181">
        <ele>363.8</ele>
        <time>2025-06-19T22:36:16Z</time>
      </trkpt>
      <trkpt lat="43.5678" lon="6.18183">
        <ele>363.8</ele>
        <time>2025-06-19T22:36:16Z</time>
      </trkpt>
      <trkpt lat="43.56776" lon="6.18186">
        <ele>363.8</ele>
        <time>2025-06-19T22:36:16Z</time>
      </trkpt>
      <trkpt lat="43.56771" lon="6.18188">
        <ele>363.8</ele>
        <time>2025-06-19T22:36:16Z</time>
      </trkpt>
      <trkpt lat="43.56765" lon="6.18193">
        <ele>363.7</ele>
        <time>2025-06-19T22:36:16Z</time>
      </trkpt>
      <trkpt lat="43.5676" lon="6.18196">
        <ele>363.6</ele>
        <time>2025-06-19T22:36:16Z</time>
      </trkpt>
      <trkpt lat="43.56756" lon="6.18198">
        <ele>363.1</ele>
        <time>2025-06-19T22:36:16Z</time>
      </trkpt>
      <trkpt lat="43.56752" lon="6.18201">
        <ele>362.9</ele>
        <time>2025-06-19T22:36:16Z</time>
      </trkpt>
      <trkpt lat="43.56751" lon="6.18203">
        <ele>362.9</ele>
        <time>2025-06-19T22:36:16Z</time>
      </trkpt>
      <trkpt lat="43.56749" lon="6.18206">
        <ele>363.7</ele>
        <time>2025-06-19T22:36:16Z</time>
      </trkpt>
      <trkpt lat="43.56744" lon="6.18214">
        <ele>363.4</ele>
        <time>2025-06-19T22:36:16Z</time>
      </trkpt>
      <trkpt lat="43.5674" lon="6.18219">
        <ele>363.7</ele>
        <time>2025-06-19T22:36:16Z</time>
      </trkpt>
      <trkpt lat="43.56738" lon="6.18222">
        <ele>363.7</ele>
        <time>2025-06-19T22:36:16Z</time>
      </trkpt>
      <trkpt lat="43.56736" lon="6.18228">
        <ele>363.8</ele>
        <time>2025-06-19T22:36:16Z</time>
      </trkpt>
      <trkpt lat="43.56732" lon="6.18233">
        <ele>363.8</ele>
        <time>2025-06-19T22:36:16Z</time>
      </trkpt>
      <trkpt lat="43.56721" lon="6.1824">
        <ele>363.7</ele>
        <time>2025-06-19T22:36:16Z</time>
      </trkpt>
      <trkpt lat="43.56712" lon="6.18247">
        <ele>363.6</ele>
        <time>2025-06-19T22:36:16Z</time>
      </trkpt>
      <trkpt lat="43.56696" lon="6.18257">
        <ele>363.5</ele>
        <time>2025-06-19T22:36:16Z</time>
      </trkpt>
      <trkpt lat="43.56688" lon="6.18262">
        <ele>363.6</ele>
        <time>2025-06-19T22:36:16Z</time>
      </trkpt>
      <trkpt lat="43.56683" lon="6.18264">
        <ele>363.4</ele>
        <time>2025-06-19T22:36:16Z</time>
      </trkpt>
      <trkpt lat="43.56672" lon="6.1827">
        <ele>363.3</ele>
        <time>2025-06-19T22:36:16Z</time>
      </trkpt>
      <trkpt lat="43.56649" lon="6.18284">
        <ele>363.1</ele>
        <time>2025-06-19T22:36:16Z</time>
      </trkpt>
      <trkpt lat="43.56648" lon="6.18284">
        <ele>363.1</ele>
        <time>2025-06-19T22:36:16Z</time>
      </trkpt>
      <trkpt lat="43.56641" lon="6.18288">
        <ele>363</ele>
        <time>2025-06-19T22:36:16Z</time>
      </trkpt>
      <trkpt lat="43.56628" lon="6.18294">
        <ele>362.8</ele>
        <time>2025-06-19T22:36:16Z</time>
      </trkpt>
      <trkpt lat="43.56619" lon="6.18299">
        <ele>362.8</ele>
        <time>2025-06-19T22:36:16Z</time>
      </trkpt>
      <trkpt lat="43.56614" lon="6.18301">
        <ele>362.6</ele>
        <time>2025-06-19T22:36:16Z</time>
      </trkpt>
      <trkpt lat="43.56605" lon="6.18304">
        <ele>362.5</ele>
        <time>2025-06-19T22:36:16Z</time>
      </trkpt>
      <trkpt lat="43.56599" lon="6.18307">
        <ele>362.4</ele>
        <time>2025-06-19T22:36:16Z</time>
      </trkpt>
      <trkpt lat="43.56584" lon="6.18313">
        <ele>361.9</ele>
        <time>2025-06-19T22:36:16Z</time>
      </trkpt>
      <trkpt lat="43.56572" lon="6.18318">
        <ele>361.4</ele>
        <time>2025-06-19T22:36:16Z</time>
      </trkpt>
      <trkpt lat="43.56563" lon="6.18324">
        <ele>361.3</ele>
        <time>2025-06-19T22:36:16Z</time>
      </trkpt>
      <trkpt lat="43.56557" lon="6.18329">
        <ele>361.1</ele>
        <time>2025-06-19T22:36:16Z</time>
      </trkpt>
      <trkpt lat="43.56555" lon="6.18331">
        <ele>361</ele>
        <time>2025-06-19T22:36:16Z</time>
      </trkpt>
      <trkpt lat="43.56548" lon="6.18341">
        <ele>360.8</ele>
        <time>2025-06-19T22:36:16Z</time>
      </trkpt>
      <trkpt lat="43.56543" lon="6.18346">
        <ele>360.6</ele>
        <time>2025-06-19T22:36:16Z</time>
      </trkpt>
      <trkpt lat="43.56539" lon="6.18352">
        <ele>360.6</ele>
        <time>2025-06-19T22:36:16Z</time>
      </trkpt>
      <trkpt lat="43.56536" lon="6.18357">
        <ele>360.4</ele>
        <time>2025-06-19T22:36:16Z</time>
      </trkpt>
      <trkpt lat="43.56533" lon="6.18363">
        <ele>360.3</ele>
        <time>2025-06-19T22:36:16Z</time>
      </trkpt>
      <trkpt lat="43.56529" lon="6.1837">
        <ele>360.2</ele>
        <time>2025-06-19T22:36:16Z</time>
      </trkpt>
      <trkpt lat="43.56525" lon="6.18378">
        <ele>360</ele>
        <time>2025-06-19T22:36:16Z</time>
      </trkpt>
      <trkpt lat="43.56521" lon="6.18386">
        <ele>359.8</ele>
        <time>2025-06-19T22:36:16Z</time>
      </trkpt>
      <trkpt lat="43.56518" lon="6.18393">
        <ele>359.5</ele>
        <time>2025-06-19T22:36:16Z</time>
      </trkpt>
      <trkpt lat="43.56512" lon="6.18409">
        <ele>359.4</ele>
        <time>2025-06-19T22:36:16Z</time>
      </trkpt>
      <trkpt lat="43.56508" lon="6.18422">
        <ele>359.1</ele>
        <time>2025-06-19T22:36:16Z</time>
      </trkpt>
      <trkpt lat="43.56506" lon="6.18421">
        <ele>359.1</ele>
        <time>2025-06-19T22:36:16Z</time>
      </trkpt>
      <trkpt lat="43.56504" lon="6.1842">
        <ele>359.1</ele>
        <time>2025-06-19T22:36:16Z</time>
      </trkpt>
      <trkpt lat="43.56502" lon="6.1842">
        <ele>359.4</ele>
        <time>2025-06-19T22:36:16Z</time>
      </trkpt>
      <trkpt lat="43.56499" lon="6.1842">
        <ele>359.8</ele>
        <time>2025-06-19T22:36:16Z</time>
      </trkpt>
      <trkpt lat="43.56497" lon="6.18421">
        <ele>359.8</ele>
        <time>2025-06-19T22:36:16Z</time>
      </trkpt>
      <trkpt lat="43.56495" lon="6.18423">
        <ele>360.2</ele>
        <time>2025-06-19T22:36:16Z</time>
      </trkpt>
      <trkpt lat="43.56494" lon="6.18426">
        <ele>360.2</ele>
        <time>2025-06-19T22:36:16Z</time>
      </trkpt>
      <trkpt lat="43.56492" lon="6.18428">
        <ele>360.4</ele>
        <time>2025-06-19T22:36:16Z</time>
      </trkpt>
      <trkpt lat="43.56491" lon="6.1843">
        <ele>360.3</ele>
        <time>2025-06-19T22:36:16Z</time>
      </trkpt>
      <trkpt lat="43.56488" lon="6.18433">
        <ele>360.4</ele>
        <time>2025-06-19T22:36:16Z</time>
      </trkpt>
      <trkpt lat="43.56487" lon="6.18434">
        <ele>360.4</ele>
        <time>2025-06-19T22:36:16Z</time>
      </trkpt>
      <trkpt lat="43.56485" lon="6.18436">
        <ele>360.4</ele>
        <time>2025-06-19T22:36:16Z</time>
      </trkpt>
      <trkpt lat="43.56482" lon="6.18438">
        <ele>360.3</ele>
        <time>2025-06-19T22:36:16Z</time>
      </trkpt>
      <trkpt lat="43.5648" lon="6.1844">
        <ele>360.3</ele>
        <time>2025-06-19T22:36:16Z</time>
      </trkpt>
      <trkpt lat="43.56479" lon="6.18442">
        <ele>360.2</ele>
        <time>2025-06-19T22:36:16Z</time>
      </trkpt>
      <trkpt lat="43.56479" lon="6.18445">
        <ele>360.3</ele>
        <time>2025-06-19T22:36:16Z</time>
      </trkpt>
      <trkpt lat="43.56478" lon="6.18448">
        <ele>360.1</ele>
        <time>2025-06-19T22:36:16Z</time>
      </trkpt>
      <trkpt lat="43.56477" lon="6.1845">
        <ele>360</ele>
        <time>2025-06-19T22:36:16Z</time>
      </trkpt>
      <trkpt lat="43.56476" lon="6.18453">
        <ele>360</ele>
        <time>2025-06-19T22:36:16Z</time>
      </trkpt>
      <trkpt lat="43.56476" lon="6.18459">
        <ele>359.9</ele>
        <time>2025-06-19T22:36:16Z</time>
      </trkpt>
      <trkpt lat="43.56477" lon="6.18465">
        <ele>359.9</ele>
        <time>2025-06-19T22:36:16Z</time>
      </trkpt>
      <trkpt lat="43.56478" lon="6.18467">
        <ele>359.8</ele>
        <time>2025-06-19T22:36:16Z</time>
      </trkpt>
      <trkpt lat="43.56478" lon="6.1847">
        <ele>359.8</ele>
        <time>2025-06-19T22:36:16Z</time>
      </trkpt>
      <trkpt lat="43.56483" lon="6.18497">
        <ele>359.5</ele>
        <time>2025-06-19T22:36:16Z</time>
      </trkpt>
      <trkpt lat="43.56491" lon="6.18528">
        <ele>358.8</ele>
        <time>2025-06-19T22:36:16Z</time>
      </trkpt>
      <trkpt lat="43.56493" lon="6.1854">
        <ele>358.2</ele>
        <time>2025-06-19T22:36:16Z</time>
      </trkpt>
      <trkpt lat="43.56506" lon="6.18579">
        <ele>356.6</ele>
        <time>2025-06-19T22:36:16Z</time>
      </trkpt>
      <trkpt lat="43.56509" lon="6.18586">
        <ele>356.3</ele>
        <time>2025-06-19T22:36:16Z</time>
      </trkpt>
      <trkpt lat="43.56512" lon="6.18592">
        <ele>356</ele>
        <time>2025-06-19T22:36:16Z</time>
      </trkpt>
      <trkpt lat="43.56504" lon="6.18591">
        <ele>356.3</ele>
        <time>2025-06-19T22:36:16Z</time>
      </trkpt>
      <trkpt lat="43.56479" lon="6.18588">
        <ele>357</ele>
        <time>2025-06-19T22:36:16Z</time>
      </trkpt>
      <trkpt lat="43.5647" lon="6.18588">
        <ele>357</ele>
        <time>2025-06-19T22:36:16Z</time>
      </trkpt>
      <trkpt lat="43.56466" lon="6.18601">
        <ele>356.5</ele>
        <time>2025-06-19T22:36:16Z</time>
      </trkpt>
      <trkpt lat="43.56466" lon="6.18603">
        <ele>356.5</ele>
        <time>2025-06-19T22:36:16Z</time>
      </trkpt>
      <trkpt lat="43.5646" lon="6.18618">
        <ele>353</ele>
        <time>2025-06-19T22:36:16Z</time>
      </trkpt>
      <trkpt lat="43.56457" lon="6.18624">
        <ele>351.7</ele>
        <time>2025-06-19T22:36:16Z</time>
      </trkpt>
      <trkpt lat="43.56444" lon="6.18621">
        <ele>348.5</ele>
        <time>2025-06-19T22:36:16Z</time>
      </trkpt>
      <trkpt lat="43.56433" lon="6.18614">
        <ele>345.4</ele>
        <time>2025-06-19T22:36:16Z</time>
      </trkpt>
      <trkpt lat="43.56428" lon="6.18616">
        <ele>342.6</ele>
        <time>2025-06-19T22:36:16Z</time>
      </trkpt>
      <trkpt lat="43.56425" lon="6.18617">
        <ele>339.8</ele>
        <time>2025-06-19T22:36:16Z</time>
      </trkpt>
      <trkpt lat="43.56416" lon="6.18631">
        <ele>334.1</ele>
        <time>2025-06-19T22:36:16Z</time>
      </trkpt>
      <trkpt lat="43.56412" lon="6.18632">
        <ele>332.8</ele>
        <time>2025-06-19T22:36:16Z</time>
      </trkpt>
      <trkpt lat="43.56407" lon="6.18634">
        <ele>330.8</ele>
        <time>2025-06-19T22:36:16Z</time>
      </trkpt>
      <trkpt lat="43.56398" lon="6.18629">
        <ele>328.9</ele>
        <time>2025-06-19T22:36:16Z</time>
      </trkpt>
      <trkpt lat="43.56397" lon="6.18629">
        <ele>328.9</ele>
        <time>2025-06-19T22:36:16Z</time>
      </trkpt>
      <trkpt lat="43.5639" lon="6.18629">
        <ele>327.4</ele>
        <time>2025-06-19T22:36:16Z</time>
      </trkpt>
      <trkpt lat="43.56388" lon="6.18627">
        <ele>327.1</ele>
        <time>2025-06-19T22:36:16Z</time>
      </trkpt>
      <trkpt lat="43.56384" lon="6.18619">
        <ele>328.1</ele>
        <time>2025-06-19T22:36:16Z</time>
      </trkpt>
      <trkpt lat="43.56384" lon="6.18616">
        <ele>328.4</ele>
        <time>2025-06-19T22:36:16Z</time>
      </trkpt>
      <trkpt lat="43.56387" lon="6.18612">
        <ele>328.4</ele>
        <time>2025-06-19T22:36:16Z</time>
      </trkpt>
      <trkpt lat="43.56384" lon="6.18603">
        <ele>330.3</ele>
        <time>2025-06-19T22:36:16Z</time>
      </trkpt>
      <trkpt lat="43.5638" lon="6.18596">
        <ele>329.2</ele>
        <time>2025-06-19T22:36:16Z</time>
      </trkpt>
      <trkpt lat="43.56378" lon="6.18595">
        <ele>328.6</ele>
        <time>2025-06-19T22:36:16Z</time>
      </trkpt>
      <trkpt lat="43.56376" lon="6.18595">
        <ele>328.6</ele>
        <time>2025-06-19T22:36:16Z</time>
      </trkpt>
      <trkpt lat="43.56374" lon="6.18593">
        <ele>328.5</ele>
        <time>2025-06-19T22:36:16Z</time>
      </trkpt>
      <trkpt lat="43.56373" lon="6.18591">
        <ele>328.5</ele>
        <time>2025-06-19T22:36:16Z</time>
      </trkpt>
      <trkpt lat="43.5637" lon="6.18588">
        <ele>328.7</ele>
        <time>2025-06-19T22:36:16Z</time>
      </trkpt>
      <trkpt lat="43.56366" lon="6.18584">
        <ele>328.8</ele>
        <time>2025-06-19T22:36:16Z</time>
      </trkpt>
      <trkpt lat="43.56364" lon="6.18581">
        <ele>329.2</ele>
        <time>2025-06-19T22:36:16Z</time>
      </trkpt>
      <trkpt lat="43.56362" lon="6.1858">
        <ele>329</ele>
        <time>2025-06-19T22:36:16Z</time>
      </trkpt>
      <trkpt lat="43.56359" lon="6.18569">
        <ele>329.6</ele>
        <time>2025-06-19T22:36:16Z</time>
      </trkpt>
      <trkpt lat="43.56359" lon="6.18565">
        <ele>330</ele>
        <time>2025-06-19T22:36:16Z</time>
      </trkpt>
      <trkpt lat="43.56358" lon="6.18563">
        <ele>329.9</ele>
        <time>2025-06-19T22:36:16Z</time>
      </trkpt>
      <trkpt lat="43.56356" lon="6.1856">
        <ele>330.1</ele>
        <time>2025-06-19T22:36:16Z</time>
      </trkpt>
      <trkpt lat="43.56352" lon="6.18558">
        <ele>329.9</ele>
        <time>2025-06-19T22:36:16Z</time>
      </trkpt>
      <trkpt lat="43.56351" lon="6.18556">
        <ele>330.2</ele>
        <time>2025-06-19T22:36:16Z</time>
      </trkpt>
      <trkpt lat="43.56351" lon="6.18554">
        <ele>330.2</ele>
        <time>2025-06-19T22:36:16Z</time>
      </trkpt>
      <trkpt lat="43.56349" lon="6.1855">
        <ele>330.2</ele>
        <time>2025-06-19T22:36:16Z</time>
      </trkpt>
      <trkpt lat="43.56349" lon="6.18547">
        <ele>330.4</ele>
        <time>2025-06-19T22:36:16Z</time>
      </trkpt>
      <trkpt lat="43.56349" lon="6.18537">
        <ele>331.2</ele>
        <time>2025-06-19T22:36:16Z</time>
      </trkpt>
      <trkpt lat="43.5635" lon="6.18527">
        <ele>332.1</ele>
        <time>2025-06-19T22:36:16Z</time>
      </trkpt>
      <trkpt lat="43.5635" lon="6.18524">
        <ele>331.7</ele>
        <time>2025-06-19T22:36:16Z</time>
      </trkpt>
      <trkpt lat="43.56358" lon="6.18507">
        <ele>330.4</ele>
        <time>2025-06-19T22:36:16Z</time>
      </trkpt>
      <trkpt lat="43.5635" lon="6.18524">
        <ele>331.7</ele>
        <time>2025-06-19T22:36:16Z</time>
      </trkpt>
      <trkpt lat="43.5635" lon="6.18527">
        <ele>332.1</ele>
        <time>2025-06-19T22:36:16Z</time>
      </trkpt>
      <trkpt lat="43.56349" lon="6.18537">
        <ele>331.2</ele>
        <time>2025-06-19T22:36:16Z</time>
      </trkpt>
      <trkpt lat="43.56349" lon="6.18547">
        <ele>330.4</ele>
        <time>2025-06-19T22:36:16Z</time>
      </trkpt>
      <trkpt lat="43.56349" lon="6.1855">
        <ele>330.2</ele>
        <time>2025-06-19T22:36:16Z</time>
      </trkpt>
      <trkpt lat="43.56351" lon="6.18554">
        <ele>330.2</ele>
        <time>2025-06-19T22:36:16Z</time>
      </trkpt>
      <trkpt lat="43.56351" lon="6.18556">
        <ele>330.2</ele>
        <time>2025-06-19T22:36:16Z</time>
      </trkpt>
      <trkpt lat="43.56352" lon="6.18558">
        <ele>329.9</ele>
        <time>2025-06-19T22:36:16Z</time>
      </trkpt>
      <trkpt lat="43.56355" lon="6.18559">
        <ele>330.1</ele>
        <time>2025-06-19T22:36:16Z</time>
      </trkpt>
      <trkpt lat="43.56358" lon="6.18563">
        <ele>329.9</ele>
        <time>2025-06-19T22:36:16Z</time>
      </trkpt>
      <trkpt lat="43.56359" lon="6.18565">
        <ele>330</ele>
        <time>2025-06-19T22:36:16Z</time>
      </trkpt>
      <trkpt lat="43.56359" lon="6.18569">
        <ele>329.6</ele>
        <time>2025-06-19T22:36:16Z</time>
      </trkpt>
      <trkpt lat="43.56362" lon="6.1858">
        <ele>329</ele>
        <time>2025-06-19T22:36:16Z</time>
      </trkpt>
      <trkpt lat="43.56364" lon="6.18581">
        <ele>329.2</ele>
        <time>2025-06-19T22:36:16Z</time>
      </trkpt>
      <trkpt lat="43.56366" lon="6.18584">
        <ele>328.8</ele>
        <time>2025-06-19T22:36:16Z</time>
      </trkpt>
      <trkpt lat="43.5637" lon="6.18588">
        <ele>328.7</ele>
        <time>2025-06-19T22:36:16Z</time>
      </trkpt>
      <trkpt lat="43.56373" lon="6.18591">
        <ele>328.5</ele>
        <time>2025-06-19T22:36:16Z</time>
      </trkpt>
      <trkpt lat="43.56374" lon="6.18593">
        <ele>328.5</ele>
        <time>2025-06-19T22:36:16Z</time>
      </trkpt>
      <trkpt lat="43.56376" lon="6.18595">
        <ele>328.6</ele>
        <time>2025-06-19T22:36:16Z</time>
      </trkpt>
      <trkpt lat="43.56378" lon="6.18595">
        <ele>328.6</ele>
        <time>2025-06-19T22:36:16Z</time>
      </trkpt>
      <trkpt lat="43.5638" lon="6.18596">
        <ele>329.2</ele>
        <time>2025-06-19T22:36:16Z</time>
      </trkpt>
      <trkpt lat="43.56384" lon="6.18603">
        <ele>330.3</ele>
        <time>2025-06-19T22:36:16Z</time>
      </trkpt>
      <trkpt lat="43.56387" lon="6.18612">
        <ele>328.4</ele>
        <time>2025-06-19T22:36:16Z</time>
      </trkpt>
      <trkpt lat="43.56384" lon="6.18616">
        <ele>328.4</ele>
        <time>2025-06-19T22:36:16Z</time>
      </trkpt>
      <trkpt lat="43.56384" lon="6.18619">
        <ele>328.1</ele>
        <time>2025-06-19T22:36:16Z</time>
      </trkpt>
      <trkpt lat="43.56388" lon="6.18627">
        <ele>327.1</ele>
        <time>2025-06-19T22:36:16Z</time>
      </trkpt>
      <trkpt lat="43.5639" lon="6.18629">
        <ele>327.4</ele>
        <time>2025-06-19T22:36:16Z</time>
      </trkpt>
      <trkpt lat="43.56397" lon="6.18629">
        <ele>328.9</ele>
        <time>2025-06-19T22:36:16Z</time>
      </trkpt>
      <trkpt lat="43.56398" lon="6.18629">
        <ele>328.9</ele>
        <time>2025-06-19T22:36:16Z</time>
      </trkpt>
      <trkpt lat="43.56407" lon="6.18634">
        <ele>330.8</ele>
        <time>2025-06-19T22:36:16Z</time>
      </trkpt>
      <trkpt lat="43.56412" lon="6.18632">
        <ele>332.8</ele>
        <time>2025-06-19T22:36:16Z</time>
      </trkpt>
      <trkpt lat="43.56416" lon="6.18631">
        <ele>334.1</ele>
        <time>2025-06-19T22:36:16Z</time>
      </trkpt>
      <trkpt lat="43.56419" lon="6.18627">
        <ele>335.8</ele>
        <time>2025-06-19T22:36:16Z</time>
      </trkpt>
      <trkpt lat="43.56425" lon="6.18617">
        <ele>339.8</ele>
        <time>2025-06-19T22:36:16Z</time>
      </trkpt>
      <trkpt lat="43.56433" lon="6.18614">
        <ele>345.4</ele>
        <time>2025-06-19T22:36:16Z</time>
      </trkpt>
      <trkpt lat="43.56444" lon="6.18621">
        <ele>348.5</ele>
        <time>2025-06-19T22:36:16Z</time>
      </trkpt>
      <trkpt lat="43.56457" lon="6.18624">
        <ele>351.7</ele>
        <time>2025-06-19T22:36:16Z</time>
      </trkpt>
      <trkpt lat="43.5646" lon="6.18618">
        <ele>353</ele>
        <time>2025-06-19T22:36:16Z</time>
      </trkpt>
      <trkpt lat="43.56462" lon="6.18615">
        <ele>354.3</ele>
        <time>2025-06-19T22:36:16Z</time>
      </trkpt>
      <trkpt lat="43.56466" lon="6.18603">
        <ele>356.5</ele>
        <time>2025-06-19T22:36:16Z</time>
      </trkpt>
      <trkpt lat="43.5647" lon="6.18588">
        <ele>357</ele>
        <time>2025-06-19T22:36:16Z</time>
      </trkpt>
      <trkpt lat="43.56479" lon="6.18588">
        <ele>357</ele>
        <time>2025-06-19T22:36:16Z</time>
      </trkpt>
      <trkpt lat="43.56513" lon="6.18593">
        <ele>355.9</ele>
        <time>2025-06-19T22:36:16Z</time>
      </trkpt>
      <trkpt lat="43.56509" lon="6.18586">
        <ele>356.3</ele>
        <time>2025-06-19T22:36:16Z</time>
      </trkpt>
      <trkpt lat="43.56508" lon="6.18584">
        <ele>356.4</ele>
        <time>2025-06-19T22:36:16Z</time>
      </trkpt>
      <trkpt lat="43.56506" lon="6.18579">
        <ele>356.6</ele>
        <time>2025-06-19T22:36:16Z</time>
      </trkpt>
      <trkpt lat="43.56493" lon="6.1854">
        <ele>358.2</ele>
        <time>2025-06-19T22:36:16Z</time>
      </trkpt>
      <trkpt lat="43.56491" lon="6.18528">
        <ele>358.8</ele>
        <time>2025-06-19T22:36:16Z</time>
      </trkpt>
      <trkpt lat="43.56483" lon="6.18497">
        <ele>359.5</ele>
        <time>2025-06-19T22:36:16Z</time>
      </trkpt>
      <trkpt lat="43.56478" lon="6.1847">
        <ele>359.8</ele>
        <time>2025-06-19T22:36:16Z</time>
      </trkpt>
      <trkpt lat="43.56477" lon="6.18465">
        <ele>359.9</ele>
        <time>2025-06-19T22:36:16Z</time>
      </trkpt>
      <trkpt lat="43.56476" lon="6.18459">
        <ele>359.9</ele>
        <time>2025-06-19T22:36:16Z</time>
      </trkpt>
      <trkpt lat="43.56476" lon="6.18453">
        <ele>360</ele>
        <time>2025-06-19T22:36:16Z</time>
      </trkpt>
      <trkpt lat="43.56477" lon="6.1845">
        <ele>360</ele>
        <time>2025-06-19T22:36:16Z</time>
      </trkpt>
      <trkpt lat="43.56478" lon="6.18448">
        <ele>360.1</ele>
        <time>2025-06-19T22:36:16Z</time>
      </trkpt>
      <trkpt lat="43.56479" lon="6.18445">
        <ele>360.3</ele>
        <time>2025-06-19T22:36:16Z</time>
      </trkpt>
      <trkpt lat="43.56479" lon="6.18442">
        <ele>360.2</ele>
        <time>2025-06-19T22:36:16Z</time>
      </trkpt>
      <trkpt lat="43.5648" lon="6.1844">
        <ele>360.3</ele>
        <time>2025-06-19T22:36:16Z</time>
      </trkpt>
      <trkpt lat="43.56482" lon="6.18438">
        <ele>360.3</ele>
        <time>2025-06-19T22:36:16Z</time>
      </trkpt>
      <trkpt lat="43.56485" lon="6.18436">
        <ele>360.4</ele>
        <time>2025-06-19T22:36:16Z</time>
      </trkpt>
      <trkpt lat="43.56487" lon="6.18434">
        <ele>360.4</ele>
        <time>2025-06-19T22:36:16Z</time>
      </trkpt>
      <trkpt lat="43.56488" lon="6.18433">
        <ele>360.4</ele>
        <time>2025-06-19T22:36:16Z</time>
      </trkpt>
      <trkpt lat="43.5649" lon="6.18431">
        <ele>360.3</ele>
        <time>2025-06-19T22:36:16Z</time>
      </trkpt>
      <trkpt lat="43.56492" lon="6.18428">
        <ele>360.4</ele>
        <time>2025-06-19T22:36:16Z</time>
      </trkpt>
      <trkpt lat="43.56494" lon="6.18426">
        <ele>360.2</ele>
        <time>2025-06-19T22:36:16Z</time>
      </trkpt>
      <trkpt lat="43.56495" lon="6.18423">
        <ele>360.2</ele>
        <time>2025-06-19T22:36:16Z</time>
      </trkpt>
      <trkpt lat="43.56497" lon="6.18421">
        <ele>359.8</ele>
        <time>2025-06-19T22:36:16Z</time>
      </trkpt>
      <trkpt lat="43.56499" lon="6.1842">
        <ele>359.8</ele>
        <time>2025-06-19T22:36:16Z</time>
      </trkpt>
      <trkpt lat="43.56502" lon="6.1842">
        <ele>359.4</ele>
        <time>2025-06-19T22:36:16Z</time>
      </trkpt>
      <trkpt lat="43.56504" lon="6.1842">
        <ele>359.1</ele>
        <time>2025-06-19T22:36:16Z</time>
      </trkpt>
      <trkpt lat="43.56506" lon="6.18421">
        <ele>359.1</ele>
        <time>2025-06-19T22:36:16Z</time>
      </trkpt>
      <trkpt lat="43.56508" lon="6.18422">
        <ele>359.1</ele>
        <time>2025-06-19T22:36:16Z</time>
      </trkpt>
      <trkpt lat="43.56512" lon="6.18409">
        <ele>359.4</ele>
        <time>2025-06-19T22:36:16Z</time>
      </trkpt>
      <trkpt lat="43.56518" lon="6.18393">
        <ele>359.5</ele>
        <time>2025-06-19T22:36:16Z</time>
      </trkpt>
      <trkpt lat="43.56519" lon="6.1839">
        <ele>359.6</ele>
        <time>2025-06-19T22:36:16Z</time>
      </trkpt>
      <trkpt lat="43.56521" lon="6.18386">
        <ele>359.8</ele>
        <time>2025-06-19T22:36:16Z</time>
      </trkpt>
      <trkpt lat="43.56525" lon="6.18378">
        <ele>360</ele>
        <time>2025-06-19T22:36:16Z</time>
      </trkpt>
      <trkpt lat="43.56529" lon="6.1837">
        <ele>360.2</ele>
        <time>2025-06-19T22:36:16Z</time>
      </trkpt>
      <trkpt lat="43.56533" lon="6.18363">
        <ele>360.3</ele>
        <time>2025-06-19T22:36:16Z</time>
      </trkpt>
      <trkpt lat="43.56536" lon="6.18357">
        <ele>360.4</ele>
        <time>2025-06-19T22:36:16Z</time>
      </trkpt>
      <trkpt lat="43.56539" lon="6.18352">
        <ele>360.6</ele>
        <time>2025-06-19T22:36:16Z</time>
      </trkpt>
      <trkpt lat="43.56543" lon="6.18346">
        <ele>360.6</ele>
        <time>2025-06-19T22:36:16Z</time>
      </trkpt>
      <trkpt lat="43.56548" lon="6.18341">
        <ele>360.8</ele>
        <time>2025-06-19T22:36:16Z</time>
      </trkpt>
      <trkpt lat="43.56557" lon="6.18329">
        <ele>361.1</ele>
        <time>2025-06-19T22:36:16Z</time>
      </trkpt>
      <trkpt lat="43.56563" lon="6.18324">
        <ele>361.3</ele>
        <time>2025-06-19T22:36:16Z</time>
      </trkpt>
      <trkpt lat="43.56572" lon="6.18318">
        <ele>361.4</ele>
        <time>2025-06-19T22:36:16Z</time>
      </trkpt>
      <trkpt lat="43.56584" lon="6.18313">
        <ele>361.9</ele>
        <time>2025-06-19T22:36:16Z</time>
      </trkpt>
      <trkpt lat="43.56599" lon="6.18307">
        <ele>362.4</ele>
        <time>2025-06-19T22:36:16Z</time>
      </trkpt>
      <trkpt lat="43.56614" lon="6.18301">
        <ele>362.6</ele>
        <time>2025-06-19T22:36:16Z</time>
      </trkpt>
      <trkpt lat="43.56619" lon="6.18299">
        <ele>362.8</ele>
        <time>2025-06-19T22:36:16Z</time>
      </trkpt>
      <trkpt lat="43.56621" lon="6.18295">
        <ele>362.8</ele>
        <time>2025-06-19T22:36:16Z</time>
      </trkpt>
      <trkpt lat="43.56622" lon="6.18293">
        <ele>362.7</ele>
        <time>2025-06-19T22:36:16Z</time>
      </trkpt>
      <trkpt lat="43.56625" lon="6.18291">
        <ele>362.8</ele>
        <time>2025-06-19T22:36:16Z</time>
      </trkpt>
      <trkpt lat="43.56627" lon="6.18289">
        <ele>362.6</ele>
        <time>2025-06-19T22:36:16Z</time>
      </trkpt>
      <trkpt lat="43.5663" lon="6.18287">
        <ele>362.7</ele>
        <time>2025-06-19T22:36:16Z</time>
      </trkpt>
      <trkpt lat="43.56633" lon="6.18285">
        <ele>362.4</ele>
        <time>2025-06-19T22:36:16Z</time>
      </trkpt>
      <trkpt lat="43.56636" lon="6.18283">
        <ele>362.4</ele>
        <time>2025-06-19T22:36:16Z</time>
      </trkpt>
      <trkpt lat="43.56639" lon="6.18282">
        <ele>362.7</ele>
        <time>2025-06-19T22:36:16Z</time>
      </trkpt>
      <trkpt lat="43.56642" lon="6.1828">
        <ele>362.5</ele>
        <time>2025-06-19T22:36:16Z</time>
      </trkpt>
      <trkpt lat="43.56645" lon="6.18278">
        <ele>362.5</ele>
        <time>2025-06-19T22:36:16Z</time>
      </trkpt>
      <trkpt lat="43.56648" lon="6.18277">
        <ele>361.7</ele>
        <time>2025-06-19T22:36:16Z</time>
      </trkpt>
      <trkpt lat="43.56651" lon="6.18274">
        <ele>362.2</ele>
        <time>2025-06-19T22:36:16Z</time>
      </trkpt>
      <trkpt lat="43.56656" lon="6.18272">
        <ele>361.4</ele>
        <time>2025-06-19T22:36:16Z</time>
      </trkpt>
      <trkpt lat="43.5666" lon="6.18269">
        <ele>362.4</ele>
        <time>2025-06-19T22:36:16Z</time>
      </trkpt>
      <trkpt lat="43.56665" lon="6.18267">
        <ele>361.8</ele>
        <time>2025-06-19T22:36:16Z</time>
      </trkpt>
      <trkpt lat="43.56671" lon="6.18263">
        <ele>361.6</ele>
        <time>2025-06-19T22:36:16Z</time>
      </trkpt>
      <trkpt lat="43.56677" lon="6.18258">
        <ele>361.7</ele>
        <time>2025-06-19T22:36:16Z</time>
      </trkpt>
      <trkpt lat="43.56681" lon="6.18253">
        <ele>361.3</ele>
        <time>2025-06-19T22:36:16Z</time>
      </trkpt>
      <trkpt lat="43.56686" lon="6.1825">
        <ele>361.4</ele>
        <time>2025-06-19T22:36:16Z</time>
      </trkpt>
      <trkpt lat="43.56693" lon="6.18245">
        <ele>361.9</ele>
        <time>2025-06-19T22:36:16Z</time>
      </trkpt>
      <trkpt lat="43.56697" lon="6.18242">
        <ele>360.9</ele>
        <time>2025-06-19T22:36:16Z</time>
      </trkpt>
      <trkpt lat="43.56702" lon="6.18238">
        <ele>361</ele>
        <time>2025-06-19T22:36:16Z</time>
      </trkpt>
      <trkpt lat="43.56707" lon="6.18235">
        <ele>361.4</ele>
        <time>2025-06-19T22:36:16Z</time>
      </trkpt>
      <trkpt lat="43.56712" lon="6.18232">
        <ele>361.3</ele>
        <time>2025-06-19T22:36:16Z</time>
      </trkpt>
      <trkpt lat="43.56717" lon="6.18229">
        <ele>361.3</ele>
        <time>2025-06-19T22:36:16Z</time>
      </trkpt>
      <trkpt lat="43.56722" lon="6.18225">
        <ele>361.2</ele>
        <time>2025-06-19T22:36:16Z</time>
      </trkpt>
      <trkpt lat="43.56725" lon="6.18223">
        <ele>362</ele>
        <time>2025-06-19T22:36:16Z</time>
      </trkpt>
      <trkpt lat="43.5673" lon="6.18218">
        <ele>361.4</ele>
        <time>2025-06-19T22:36:16Z</time>
      </trkpt>
      <trkpt lat="43.56737" lon="6.18213">
        <ele>362.4</ele>
        <time>2025-06-19T22:36:16Z</time>
      </trkpt>
      <trkpt lat="43.56739" lon="6.18211">
        <ele>361.1</ele>
        <time>2025-06-19T22:36:16Z</time>
      </trkpt>
      <trkpt lat="43.56743" lon="6.18206">
        <ele>361.8</ele>
        <time>2025-06-19T22:36:16Z</time>
      </trkpt>
      <trkpt lat="43.56746" lon="6.18201">
        <ele>361.9</ele>
        <time>2025-06-19T22:36:16Z</time>
      </trkpt>
      <trkpt lat="43.5675" lon="6.18195">
        <ele>360.6</ele>
        <time>2025-06-19T22:36:16Z</time>
      </trkpt>
      <trkpt lat="43.56754" lon="6.1819">
        <ele>360.7</ele>
        <time>2025-06-19T22:36:16Z</time>
      </trkpt>
      <trkpt lat="43.56756" lon="6.18188">
        <ele>360.7</ele>
        <time>2025-06-19T22:36:16Z</time>
      </trkpt>
      <trkpt lat="43.56759" lon="6.18186">
        <ele>361.1</ele>
        <time>2025-06-19T22:36:16Z</time>
      </trkpt>
      <trkpt lat="43.56763" lon="6.18182">
        <ele>361.4</ele>
        <time>2025-06-19T22:36:16Z</time>
      </trkpt>
      <trkpt lat="43.56767" lon="6.18177">
        <ele>361.3</ele>
        <time>2025-06-19T22:36:16Z</time>
      </trkpt>
      <trkpt lat="43.56772" lon="6.18172">
        <ele>361.2</ele>
        <time>2025-06-19T22:36:16Z</time>
      </trkpt>
      <trkpt lat="43.56775" lon="6.18168">
        <ele>361.4</ele>
        <time>2025-06-19T22:36:16Z</time>
      </trkpt>
      <trkpt lat="43.56778" lon="6.18167">
        <ele>361.4</ele>
        <time>2025-06-19T22:36:16Z</time>
      </trkpt>
      <trkpt lat="43.5678" lon="6.18167">
        <ele>362.2</ele>
        <time>2025-06-19T22:36:16Z</time>
      </trkpt>
      <trkpt lat="43.56782" lon="6.18166">
        <ele>362.2</ele>
        <time>2025-06-19T22:36:16Z</time>
      </trkpt>
      <trkpt lat="43.56784" lon="6.18164">
        <ele>362.3</ele>
        <time>2025-06-19T22:36:16Z</time>
      </trkpt>
      <trkpt lat="43.56786" lon="6.18162">
        <ele>362.3</ele>
        <time>2025-06-19T22:36:16Z</time>
      </trkpt>
      <trkpt lat="43.56788" lon="6.1816">
        <ele>362.2</ele>
        <time>2025-06-19T22:36:16Z</time>
      </trkpt>
      <trkpt lat="43.5679" lon="6.18158">
        <ele>362.2</ele>
        <time>2025-06-19T22:36:16Z</time>
      </trkpt>
      <trkpt lat="43.56792" lon="6.18157">
        <ele>363</ele>
        <time>2025-06-19T22:36:16Z</time>
      </trkpt>
      <trkpt lat="43.56795" lon="6.18157">
        <ele>363</ele>
        <time>2025-06-19T22:36:16Z</time>
      </trkpt>
      <trkpt lat="43.56799" lon="6.18154">
        <ele>362.7</ele>
        <time>2025-06-19T22:36:16Z</time>
      </trkpt>
      <trkpt lat="43.56803" lon="6.18151">
        <ele>362.6</ele>
        <time>2025-06-19T22:36:16Z</time>
      </trkpt>
      <trkpt lat="43.56806" lon="6.18149">
        <ele>363.2</ele>
        <time>2025-06-19T22:36:16Z</time>
      </trkpt>
      <trkpt lat="43.5681" lon="6.18145">
        <ele>363.2</ele>
        <time>2025-06-19T22:36:16Z</time>
      </trkpt>
      <trkpt lat="43.56815" lon="6.18142">
        <ele>363</ele>
        <time>2025-06-19T22:36:16Z</time>
      </trkpt>
      <trkpt lat="43.5682" lon="6.18143">
        <ele>363.5</ele>
        <time>2025-06-19T22:36:16Z</time>
      </trkpt>
      <trkpt lat="43.56823" lon="6.18143">
        <ele>363.8</ele>
        <time>2025-06-19T22:36:16Z</time>
      </trkpt>
      <trkpt lat="43.56825" lon="6.18142">
        <ele>363.8</ele>
        <time>2025-06-19T22:36:16Z</time>
      </trkpt>
      <trkpt lat="43.56837" lon="6.18136">
        <ele>364.5</ele>
        <time>2025-06-19T22:36:16Z</time>
      </trkpt>
      <trkpt lat="43.56836" lon="6.18128">
        <ele>364.7</ele>
        <time>2025-06-19T22:36:16Z</time>
      </trkpt>
      <trkpt lat="43.56834" lon="6.18117">
        <ele>362.2</ele>
        <time>2025-06-19T22:36:16Z</time>
      </trkpt>
      <trkpt lat="43.56833" lon="6.18111">
        <ele>361.5</ele>
        <time>2025-06-19T22:36:16Z</time>
      </trkpt>
      <trkpt lat="43.56833" lon="6.18107">
        <ele>360.5</ele>
        <time>2025-06-19T22:36:16Z</time>
      </trkpt>
      <trkpt lat="43.56832" lon="6.181">
        <ele>359.5</ele>
        <time>2025-06-19T22:36:16Z</time>
      </trkpt>
      <trkpt lat="43.56832" lon="6.18097">
        <ele>359.5</ele>
        <time>2025-06-19T22:36:16Z</time>
      </trkpt>
      <trkpt lat="43.56831" lon="6.18094">
        <ele>359.7</ele>
        <time>2025-06-19T22:36:16Z</time>
      </trkpt>
      <trkpt lat="43.56829" lon="6.18075">
        <ele>365.1</ele>
        <time>2025-06-19T22:36:16Z</time>
      </trkpt>
      <trkpt lat="43.56826" lon="6.18069">
        <ele>365.1</ele>
        <time>2025-06-19T22:36:16Z</time>
      </trkpt>
      <trkpt lat="43.56821" lon="6.18064">
        <ele>365.3</ele>
        <time>2025-06-19T22:36:16Z</time>
      </trkpt>
      <trkpt lat="43.56815" lon="6.18059">
        <ele>365.6</ele>
        <time>2025-06-19T22:36:16Z</time>
      </trkpt>
      <trkpt lat="43.56804" lon="6.18058">
        <ele>366.2</ele>
        <time>2025-06-19T22:36:16Z</time>
      </trkpt>
      <trkpt lat="43.56791" lon="6.18057">
        <ele>366.7</ele>
        <time>2025-06-19T22:36:16Z</time>
      </trkpt>
      <trkpt lat="43.56766" lon="6.18056">
        <ele>367.8</ele>
        <time>2025-06-19T22:36:16Z</time>
      </trkpt>
      <trkpt lat="43.5674" lon="6.18055">
        <ele>369.4</ele>
        <time>2025-06-19T22:36:16Z</time>
      </trkpt>
      <trkpt lat="43.56725" lon="6.18054">
        <ele>371.1</ele>
        <time>2025-06-19T22:36:16Z</time>
      </trkpt>
      <trkpt lat="43.5672" lon="6.18054">
        <ele>371.6</ele>
        <time>2025-06-19T22:36:16Z</time>
      </trkpt>
      <trkpt lat="43.56716" lon="6.18054">
        <ele>372.1</ele>
        <time>2025-06-19T22:36:16Z</time>
      </trkpt>
      <trkpt lat="43.5671" lon="6.18053">
        <ele>372.8</ele>
        <time>2025-06-19T22:36:16Z</time>
      </trkpt>
      <trkpt lat="43.56706" lon="6.18051">
        <ele>373.1</ele>
        <time>2025-06-19T22:36:16Z</time>
      </trkpt>
      <trkpt lat="43.56702" lon="6.18049">
        <ele>373.4</ele>
        <time>2025-06-19T22:36:16Z</time>
      </trkpt>
      <trkpt lat="43.56698" lon="6.18044">
        <ele>373.7</ele>
        <time>2025-06-19T22:36:16Z</time>
      </trkpt>
      <trkpt lat="43.56691" lon="6.18054">
        <ele>372.6</ele>
        <time>2025-06-19T22:36:16Z</time>
      </trkpt>
      <trkpt lat="43.56687" lon="6.18048">
        <ele>372.8</ele>
        <time>2025-06-19T22:36:16Z</time>
      </trkpt>
      <trkpt lat="43.56685" lon="6.18042">
        <ele>372.9</ele>
        <time>2025-06-19T22:36:16Z</time>
      </trkpt>
      <trkpt lat="43.56684" lon="6.18038">
        <ele>372.6</ele>
        <time>2025-06-19T22:36:16Z</time>
      </trkpt>
      <trkpt lat="43.56681" lon="6.18022">
        <ele>372.6</ele>
        <time>2025-06-19T22:36:16Z</time>
      </trkpt>
      <trkpt lat="43.56667" lon="6.17992">
        <ele>371.1</ele>
        <time>2025-06-19T22:36:16Z</time>
      </trkpt>
      <trkpt lat="43.56665" lon="6.17994">
        <ele>371.1</ele>
        <time>2025-06-19T22:36:16Z</time>
      </trkpt>
      <trkpt lat="43.56661" lon="6.17994">
        <ele>370.8</ele>
        <time>2025-06-19T22:36:16Z</time>
      </trkpt>
      <trkpt lat="43.56658" lon="6.17994">
        <ele>370.6</ele>
        <time>2025-06-19T22:36:16Z</time>
      </trkpt>
      <trkpt lat="43.56656" lon="6.17994">
        <ele>370.6</ele>
        <time>2025-06-19T22:36:16Z</time>
      </trkpt>
      <trkpt lat="43.56653" lon="6.17994">
        <ele>370.3</ele>
        <time>2025-06-19T22:36:16Z</time>
      </trkpt>
      <trkpt lat="43.56648" lon="6.17995">
        <ele>370.1</ele>
        <time>2025-06-19T22:36:16Z</time>
      </trkpt>
      <trkpt lat="43.56645" lon="6.17995">
        <ele>369.9</ele>
        <time>2025-06-19T22:36:16Z</time>
      </trkpt>
      <trkpt lat="43.56642" lon="6.17995">
        <ele>369.9</ele>
        <time>2025-06-19T22:36:16Z</time>
      </trkpt>
      <trkpt lat="43.56639" lon="6.17995">
        <ele>369.7</ele>
        <time>2025-06-19T22:36:16Z</time>
      </trkpt>
      <trkpt lat="43.56634" lon="6.17996">
        <ele>369.5</ele>
        <time>2025-06-19T22:36:16Z</time>
      </trkpt>
      <trkpt lat="43.56629" lon="6.17996">
        <ele>369.3</ele>
        <time>2025-06-19T22:36:16Z</time>
      </trkpt>
      <trkpt lat="43.56625" lon="6.17997">
        <ele>369.2</ele>
        <time>2025-06-19T22:36:16Z</time>
      </trkpt>
      <trkpt lat="43.5662" lon="6.17997">
        <ele>369</ele>
        <time>2025-06-19T22:36:16Z</time>
      </trkpt>
      <trkpt lat="43.56616" lon="6.17998">
        <ele>368.9</ele>
        <time>2025-06-19T22:36:16Z</time>
      </trkpt>
      <trkpt lat="43.56611" lon="6.17998">
        <ele>368.6</ele>
        <time>2025-06-19T22:36:16Z</time>
      </trkpt>
      <trkpt lat="43.56606" lon="6.17998">
        <ele>368.5</ele>
        <time>2025-06-19T22:36:16Z</time>
      </trkpt>
      <trkpt lat="43.56602" lon="6.17999">
        <ele>368.3</ele>
        <time>2025-06-19T22:36:16Z</time>
      </trkpt>
      <trkpt lat="43.56597" lon="6.17999">
        <ele>368.2</ele>
        <time>2025-06-19T22:36:16Z</time>
      </trkpt>
      <trkpt lat="43.56591" lon="6.18">
        <ele>368.1</ele>
        <time>2025-06-19T22:36:16Z</time>
      </trkpt>
      <trkpt lat="43.56586" lon="6.18">
        <ele>367.9</ele>
        <time>2025-06-19T22:36:16Z</time>
      </trkpt>
      <trkpt lat="43.56581" lon="6.18002">
        <ele>367.7</ele>
        <time>2025-06-19T22:36:16Z</time>
      </trkpt>
      <trkpt lat="43.56576" lon="6.18002">
        <ele>367.7</ele>
        <time>2025-06-19T22:36:16Z</time>
      </trkpt>
      <trkpt lat="43.56571" lon="6.18003">
        <ele>367.6</ele>
        <time>2025-06-19T22:36:16Z</time>
      </trkpt>
      <trkpt lat="43.56567" lon="6.18003">
        <ele>367.5</ele>
        <time>2025-06-19T22:36:16Z</time>
      </trkpt>
      <trkpt lat="43.56562" lon="6.18004">
        <ele>367.5</ele>
        <time>2025-06-19T22:36:16Z</time>
      </trkpt>
      <trkpt lat="43.56557" lon="6.18004">
        <ele>367.4</ele>
        <time>2025-06-19T22:36:16Z</time>
      </trkpt>
      <trkpt lat="43.56552" lon="6.18004">
        <ele>367.4</ele>
        <time>2025-06-19T22:36:16Z</time>
      </trkpt>
      <trkpt lat="43.56549" lon="6.18004">
        <ele>367.2</ele>
        <time>2025-06-19T22:36:16Z</time>
      </trkpt>
      <trkpt lat="43.56546" lon="6.18003">
        <ele>367.3</ele>
        <time>2025-06-19T22:36:16Z</time>
      </trkpt>
      <trkpt lat="43.56543" lon="6.18001">
        <ele>367.2</ele>
        <time>2025-06-19T22:36:16Z</time>
      </trkpt>
      <trkpt lat="43.56541" lon="6.17999">
        <ele>367.1</ele>
        <time>2025-06-19T22:36:16Z</time>
      </trkpt>
      <trkpt lat="43.56538" lon="6.17997">
        <ele>366.5</ele>
        <time>2025-06-19T22:36:16Z</time>
      </trkpt>
      <trkpt lat="43.56534" lon="6.17997">
        <ele>366.3</ele>
        <time>2025-06-19T22:36:16Z</time>
      </trkpt>
      <trkpt lat="43.56533" lon="6.17997">
        <ele>366.3</ele>
        <time>2025-06-19T22:36:16Z</time>
      </trkpt>
      <trkpt lat="43.56531" lon="6.17996">
        <ele>366.3</ele>
        <time>2025-06-19T22:36:16Z</time>
      </trkpt>
      <trkpt lat="43.56529" lon="6.17996">
        <ele>366.3</ele>
        <time>2025-06-19T22:36:16Z</time>
      </trkpt>
      <trkpt lat="43.56527" lon="6.17993">
        <ele>366.3</ele>
        <time>2025-06-19T22:36:16Z</time>
      </trkpt>
      <trkpt lat="43.56525" lon="6.17991">
        <ele>366.1</ele>
        <time>2025-06-19T22:36:16Z</time>
      </trkpt>
      <trkpt lat="43.56523" lon="6.17988">
        <ele>365.9</ele>
        <time>2025-06-19T22:36:16Z</time>
      </trkpt>
      <trkpt lat="43.56521" lon="6.17985">
        <ele>365.5</ele>
        <time>2025-06-19T22:36:16Z</time>
      </trkpt>
      <trkpt lat="43.56519" lon="6.17983">
        <ele>365.5</ele>
        <time>2025-06-19T22:36:16Z</time>
      </trkpt>
      <trkpt lat="43.56517" lon="6.1798">
        <ele>365.3</ele>
        <time>2025-06-19T22:36:16Z</time>
      </trkpt>
      <trkpt lat="43.56516" lon="6.17977">
        <ele>365</ele>
        <time>2025-06-19T22:36:16Z</time>
      </trkpt>
      <trkpt lat="43.56515" lon="6.17976">
        <ele>364.8</ele>
        <time>2025-06-19T22:36:16Z</time>
      </trkpt>
      <trkpt lat="43.56515" lon="6.17982">
        <ele>365.2</ele>
        <time>2025-06-19T22:36:16Z</time>
      </trkpt>
      <trkpt lat="43.56515" lon="6.1799">
        <ele>365.8</ele>
        <time>2025-06-19T22:36:16Z</time>
      </trkpt>
      <trkpt lat="43.56514" lon="6.17997">
        <ele>366</ele>
        <time>2025-06-19T22:36:16Z</time>
      </trkpt>
      <trkpt lat="43.56514" lon="6.18004">
        <ele>366.3</ele>
        <time>2025-06-19T22:36:16Z</time>
      </trkpt>
      <trkpt lat="43.56508" lon="6.18033">
        <ele>366.2</ele>
        <time>2025-06-19T22:36:16Z</time>
      </trkpt>
      <trkpt lat="43.565" lon="6.18076">
        <ele>366.1</ele>
        <time>2025-06-19T22:36:16Z</time>
      </trkpt>
      <trkpt lat="43.56499" lon="6.18082">
        <ele>366.1</ele>
        <time>2025-06-19T22:36:16Z</time>
      </trkpt>
      <trkpt lat="43.56499" lon="6.18094">
        <ele>366.3</ele>
        <time>2025-06-19T22:36:16Z</time>
      </trkpt>
      <trkpt lat="43.56496" lon="6.18104">
        <ele>366.4</ele>
        <time>2025-06-19T22:36:16Z</time>
      </trkpt>
      <trkpt lat="43.56492" lon="6.18128">
        <ele>366.5</ele>
        <time>2025-06-19T22:36:16Z</time>
      </trkpt>
      <trkpt lat="43.56486" lon="6.18161">
        <ele>366.5</ele>
        <time>2025-06-19T22:36:16Z</time>
      </trkpt>
      <trkpt lat="43.56483" lon="6.1818">
        <ele>366.4</ele>
        <time>2025-06-19T22:36:16Z</time>
      </trkpt>
      <trkpt lat="43.56478" lon="6.18195">
        <ele>366.5</ele>
        <time>2025-06-19T22:36:16Z</time>
      </trkpt>
      <trkpt lat="43.56476" lon="6.18203">
        <ele>366.4</ele>
        <time>2025-06-19T22:36:16Z</time>
      </trkpt>
      <trkpt lat="43.56473" lon="6.18222">
        <ele>366.3</ele>
        <time>2025-06-19T22:36:16Z</time>
      </trkpt>
      <trkpt lat="43.5647" lon="6.1823">
        <ele>365.9</ele>
        <time>2025-06-19T22:36:16Z</time>
      </trkpt>
      <trkpt lat="43.56463" lon="6.1824">
        <ele>364.8</ele>
        <time>2025-06-19T22:36:16Z</time>
      </trkpt>
      <trkpt lat="43.56459" lon="6.18246">
        <ele>364.4</ele>
        <time>2025-06-19T22:36:16Z</time>
      </trkpt>
      <trkpt lat="43.56457" lon="6.18256">
        <ele>363.8</ele>
        <time>2025-06-19T22:36:16Z</time>
      </trkpt>
      <trkpt lat="43.56454" lon="6.18271">
        <ele>361.5</ele>
        <time>2025-06-19T22:36:16Z</time>
      </trkpt>
      <trkpt lat="43.5645" lon="6.1828">
        <ele>361.2</ele>
        <time>2025-06-19T22:36:16Z</time>
      </trkpt>
      <trkpt lat="43.56445" lon="6.18283">
        <ele>360.9</ele>
        <time>2025-06-19T22:36:16Z</time>
      </trkpt>
      <trkpt lat="43.56442" lon="6.18282">
        <ele>360.8</ele>
        <time>2025-06-19T22:36:16Z</time>
      </trkpt>
      <trkpt lat="43.56437" lon="6.18279">
        <ele>360.8</ele>
        <time>2025-06-19T22:36:16Z</time>
      </trkpt>
      <trkpt lat="43.56436" lon="6.18273">
        <ele>360.8</ele>
        <time>2025-06-19T22:36:16Z</time>
      </trkpt>
      <trkpt lat="43.56437" lon="6.18254">
        <ele>360.9</ele>
        <time>2025-06-19T22:36:16Z</time>
      </trkpt>
      <trkpt lat="43.56437" lon="6.18219">
        <ele>360.9</ele>
        <time>2025-06-19T22:36:16Z</time>
      </trkpt>
      <trkpt lat="43.56435" lon="6.18201">
        <ele>360.7</ele>
        <time>2025-06-19T22:36:16Z</time>
      </trkpt>
      <trkpt lat="43.56433" lon="6.18187">
        <ele>360.7</ele>
        <time>2025-06-19T22:36:16Z</time>
      </trkpt>
      <trkpt lat="43.56429" lon="6.18178">
        <ele>360.5</ele>
        <time>2025-06-19T22:36:16Z</time>
      </trkpt>
      <trkpt lat="43.56425" lon="6.18176">
        <ele>360.5</ele>
        <time>2025-06-19T22:36:16Z</time>
      </trkpt>
      <trkpt lat="43.56421" lon="6.18175">
        <ele>360.4</ele>
        <time>2025-06-19T22:36:16Z</time>
      </trkpt>
      <trkpt lat="43.56419" lon="6.18176">
        <ele>360.4</ele>
        <time>2025-06-19T22:36:16Z</time>
      </trkpt>
      <trkpt lat="43.56416" lon="6.18179">
        <ele>360.4</ele>
        <time>2025-06-19T22:36:16Z</time>
      </trkpt>
      <trkpt lat="43.56412" lon="6.18187">
        <ele>360.4</ele>
        <time>2025-06-19T22:36:16Z</time>
      </trkpt>
      <trkpt lat="43.56408" lon="6.182">
        <ele>360.3</ele>
        <time>2025-06-19T22:36:16Z</time>
      </trkpt>
      <trkpt lat="43.56402" lon="6.18208">
        <ele>360.3</ele>
        <time>2025-06-19T22:36:16Z</time>
      </trkpt>
      <trkpt lat="43.56397" lon="6.18214">
        <ele>359.9</ele>
        <time>2025-06-19T22:36:16Z</time>
      </trkpt>
      <trkpt lat="43.5639" lon="6.18218">
        <ele>359.8</ele>
        <time>2025-06-19T22:36:16Z</time>
      </trkpt>
      <trkpt lat="43.56382" lon="6.1822">
        <ele>359.7</ele>
        <time>2025-06-19T22:36:16Z</time>
      </trkpt>
      <trkpt lat="43.56371" lon="6.18221">
        <ele>358.6</ele>
        <time>2025-06-19T22:36:16Z</time>
      </trkpt>
      <trkpt lat="43.56367" lon="6.18221">
        <ele>357.4</ele>
        <time>2025-06-19T22:36:16Z</time>
      </trkpt>
      <trkpt lat="43.56361" lon="6.18225">
        <ele>357.4</ele>
        <time>2025-06-19T22:36:16Z</time>
      </trkpt>
      <trkpt lat="43.56356" lon="6.18229">
        <ele>357.1</ele>
        <time>2025-06-19T22:36:16Z</time>
      </trkpt>
      <trkpt lat="43.5635" lon="6.18235">
        <ele>357.9</ele>
        <time>2025-06-19T22:36:16Z</time>
      </trkpt>
      <trkpt lat="43.56346" lon="6.18244">
        <ele>358.5</ele>
        <time>2025-06-19T22:36:16Z</time>
      </trkpt>
      <trkpt lat="43.56343" lon="6.18253">
        <ele>356.2</ele>
        <time>2025-06-19T22:36:16Z</time>
      </trkpt>
      <trkpt lat="43.56341" lon="6.18257">
        <ele>356.2</ele>
        <time>2025-06-19T22:36:16Z</time>
      </trkpt>
      <trkpt lat="43.56337" lon="6.18265">
        <ele>354.8</ele>
        <time>2025-06-19T22:36:16Z</time>
      </trkpt>
      <trkpt lat="43.5633" lon="6.18274">
        <ele>351.8</ele>
        <time>2025-06-19T22:36:16Z</time>
      </trkpt>
      <trkpt lat="43.56323" lon="6.18291">
        <ele>348.4</ele>
        <time>2025-06-19T22:36:16Z</time>
      </trkpt>
      <trkpt lat="43.56317" lon="6.18305">
        <ele>346.9</ele>
        <time>2025-06-19T22:36:16Z</time>
      </trkpt>
      <trkpt lat="43.56315" lon="6.18309">
        <ele>345.3</ele>
        <time>2025-06-19T22:36:16Z</time>
      </trkpt>
      <trkpt lat="43.56314" lon="6.18313">
        <ele>345.3</ele>
        <time>2025-06-19T22:36:16Z</time>
      </trkpt>
      <trkpt lat="43.56312" lon="6.18317">
        <ele>346.2</ele>
        <time>2025-06-19T22:36:16Z</time>
      </trkpt>
      <trkpt lat="43.56311" lon="6.1832">
        <ele>347</ele>
        <time>2025-06-19T22:36:16Z</time>
      </trkpt>
      <trkpt lat="43.56309" lon="6.18323">
        <ele>344.5</ele>
        <time>2025-06-19T22:36:16Z</time>
      </trkpt>
      <trkpt lat="43.56307" lon="6.18327">
        <ele>345.8</ele>
        <time>2025-06-19T22:36:16Z</time>
      </trkpt>
      <trkpt lat="43.56302" lon="6.18331">
        <ele>343.6</ele>
        <time>2025-06-19T22:36:16Z</time>
      </trkpt>
      <trkpt lat="43.563" lon="6.18336">
        <ele>343.4</ele>
        <time>2025-06-19T22:36:16Z</time>
      </trkpt>
      <trkpt lat="43.563" lon="6.18338">
        <ele>343.2</ele>
        <time>2025-06-19T22:36:16Z</time>
      </trkpt>
      <trkpt lat="43.56299" lon="6.18341">
        <ele>343.2</ele>
        <time>2025-06-19T22:36:16Z</time>
      </trkpt>
      <trkpt lat="43.563" lon="6.18344">
        <ele>342.7</ele>
        <time>2025-06-19T22:36:16Z</time>
      </trkpt>
      <trkpt lat="43.56299" lon="6.18347">
        <ele>341.6</ele>
        <time>2025-06-19T22:36:16Z</time>
      </trkpt>
      <trkpt lat="43.56299" lon="6.18351">
        <ele>340.9</ele>
        <time>2025-06-19T22:36:16Z</time>
      </trkpt>
      <trkpt lat="43.56298" lon="6.18355">
        <ele>340.4</ele>
        <time>2025-06-19T22:36:16Z</time>
      </trkpt>
      <trkpt lat="43.56298" lon="6.18358">
        <ele>340.4</ele>
        <time>2025-06-19T22:36:16Z</time>
      </trkpt>
      <trkpt lat="43.56297" lon="6.18361">
        <ele>336.8</ele>
        <time>2025-06-19T22:36:16Z</time>
      </trkpt>
      <trkpt lat="43.56295" lon="6.18363">
        <ele>336.2</ele>
        <time>2025-06-19T22:36:16Z</time>
      </trkpt>
      <trkpt lat="43.56293" lon="6.18364">
        <ele>336.1</ele>
        <time>2025-06-19T22:36:16Z</time>
      </trkpt>
      <trkpt lat="43.5629" lon="6.18365">
        <ele>336.1</ele>
        <time>2025-06-19T22:36:16Z</time>
      </trkpt>
      <trkpt lat="43.56288" lon="6.18367">
        <ele>336</ele>
        <time>2025-06-19T22:36:16Z</time>
      </trkpt>
      <trkpt lat="43.56285" lon="6.18367">
        <ele>335.7</ele>
        <time>2025-06-19T22:36:16Z</time>
      </trkpt>
      <trkpt lat="43.56282" lon="6.18368">
        <ele>335</ele>
        <time>2025-06-19T22:36:16Z</time>
      </trkpt>
      <trkpt lat="43.5628" lon="6.18367">
        <ele>335.4</ele>
        <time>2025-06-19T22:36:16Z</time>
      </trkpt>
      <trkpt lat="43.56277" lon="6.18366">
        <ele>335.4</ele>
        <time>2025-06-19T22:36:16Z</time>
      </trkpt>
      <trkpt lat="43.56274" lon="6.18366">
        <ele>335.2</ele>
        <time>2025-06-19T22:36:16Z</time>
      </trkpt>
      <trkpt lat="43.56273" lon="6.18365">
        <ele>335.2</ele>
        <time>2025-06-19T22:36:16Z</time>
      </trkpt>
      <trkpt lat="43.56271" lon="6.18362">
        <ele>335.3</ele>
        <time>2025-06-19T22:36:16Z</time>
      </trkpt>
      <trkpt lat="43.56269" lon="6.18363">
        <ele>335.3</ele>
        <time>2025-06-19T22:36:16Z</time>
      </trkpt>
      <trkpt lat="43.56268" lon="6.18364">
        <ele>335.3</ele>
        <time>2025-06-19T22:36:16Z</time>
      </trkpt>
      <trkpt lat="43.56266" lon="6.18366">
        <ele>335.3</ele>
        <time>2025-06-19T22:36:16Z</time>
      </trkpt>
      <trkpt lat="43.56263" lon="6.18366">
        <ele>335.7</ele>
        <time>2025-06-19T22:36:16Z</time>
      </trkpt>
      <trkpt lat="43.56261" lon="6.18367">
        <ele>335.7</ele>
        <time>2025-06-19T22:36:16Z</time>
      </trkpt>
      <trkpt lat="43.56258" lon="6.18368">
        <ele>335.6</ele>
        <time>2025-06-19T22:36:16Z</time>
      </trkpt>
      <trkpt lat="43.56256" lon="6.18369">
        <ele>335.6</ele>
        <time>2025-06-19T22:36:16Z</time>
      </trkpt>
      <trkpt lat="43.56253" lon="6.18369">
        <ele>335.8</ele>
        <time>2025-06-19T22:36:16Z</time>
      </trkpt>
      <trkpt lat="43.56251" lon="6.1837">
        <ele>335.8</ele>
        <time>2025-06-19T22:36:16Z</time>
      </trkpt>
      <trkpt lat="43.5625" lon="6.1837">
        <ele>336.1</ele>
        <time>2025-06-19T22:36:16Z</time>
      </trkpt>
      <trkpt lat="43.56248" lon="6.18372">
        <ele>335.9</ele>
        <time>2025-06-19T22:36:16Z</time>
      </trkpt>
      <trkpt lat="43.56246" lon="6.18374">
        <ele>336.9</ele>
        <time>2025-06-19T22:36:16Z</time>
      </trkpt>
      <trkpt lat="43.56245" lon="6.18376">
        <ele>336.6</ele>
        <time>2025-06-19T22:36:16Z</time>
      </trkpt>
      <trkpt lat="43.56244" lon="6.18381">
        <ele>336.6</ele>
        <time>2025-06-19T22:36:16Z</time>
      </trkpt>
      <trkpt lat="43.56244" lon="6.18383">
        <ele>336.6</ele>
        <time>2025-06-19T22:36:16Z</time>
      </trkpt>
      <trkpt lat="43.56244" lon="6.18386">
        <ele>336.8</ele>
        <time>2025-06-19T22:36:16Z</time>
      </trkpt>
      <trkpt lat="43.56244" lon="6.18389">
        <ele>337</ele>
        <time>2025-06-19T22:36:16Z</time>
      </trkpt>
      <trkpt lat="43.56245" lon="6.18393">
        <ele>337.3</ele>
        <time>2025-06-19T22:36:16Z</time>
      </trkpt>
      <trkpt lat="43.56245" lon="6.18397">
        <ele>337.3</ele>
        <time>2025-06-19T22:36:16Z</time>
      </trkpt>
      <trkpt lat="43.56246" lon="6.18403">
        <ele>337.7</ele>
        <time>2025-06-19T22:36:16Z</time>
      </trkpt>
      <trkpt lat="43.56247" lon="6.18409">
        <ele>336.1</ele>
        <time>2025-06-19T22:36:16Z</time>
      </trkpt>
      <trkpt lat="43.56248" lon="6.18413">
        <ele>336.5</ele>
        <time>2025-06-19T22:36:16Z</time>
      </trkpt>
      <trkpt lat="43.56248" lon="6.18416">
        <ele>336.6</ele>
        <time>2025-06-19T22:36:16Z</time>
      </trkpt>
      <trkpt lat="43.56248" lon="6.18418">
        <ele>336.6</ele>
        <time>2025-06-19T22:36:16Z</time>
      </trkpt>
      <trkpt lat="43.56249" lon="6.18421">
        <ele>336.6</ele>
        <time>2025-06-19T22:36:16Z</time>
      </trkpt>
      <trkpt lat="43.56249" lon="6.18424">
        <ele>336.8</ele>
        <time>2025-06-19T22:36:16Z</time>
      </trkpt>
      <trkpt lat="43.5625" lon="6.18427">
        <ele>336.8</ele>
        <time>2025-06-19T22:36:16Z</time>
      </trkpt>
      <trkpt lat="43.56251" lon="6.1843">
        <ele>335.1</ele>
        <time>2025-06-19T22:36:16Z</time>
      </trkpt>
      <trkpt lat="43.56252" lon="6.18434">
        <ele>335.2</ele>
        <time>2025-06-19T22:36:16Z</time>
      </trkpt>
      <trkpt lat="43.56254" lon="6.18437">
        <ele>335.9</ele>
        <time>2025-06-19T22:36:16Z</time>
      </trkpt>
      <trkpt lat="43.56255" lon="6.1844">
        <ele>335.9</ele>
        <time>2025-06-19T22:36:16Z</time>
      </trkpt>
      <trkpt lat="43.56256" lon="6.18443">
        <ele>334.6</ele>
        <time>2025-06-19T22:36:16Z</time>
      </trkpt>
      <trkpt lat="43.56259" lon="6.18448">
        <ele>334.9</ele>
        <time>2025-06-19T22:36:16Z</time>
      </trkpt>
      <trkpt lat="43.5626" lon="6.18449">
        <ele>334</ele>
        <time>2025-06-19T22:36:16Z</time>
      </trkpt>
      <trkpt lat="43.56261" lon="6.18449">
        <ele>334</ele>
        <time>2025-06-19T22:36:16Z</time>
      </trkpt>
      <trkpt lat="43.56263" lon="6.18447">
        <ele>334</ele>
        <time>2025-06-19T22:36:16Z</time>
      </trkpt>
      <trkpt lat="43.56265" lon="6.18445">
        <ele>333</ele>
        <time>2025-06-19T22:36:16Z</time>
      </trkpt>
      <trkpt lat="43.56266" lon="6.18443">
        <ele>332.8</ele>
        <time>2025-06-19T22:36:16Z</time>
      </trkpt>
      <trkpt lat="43.56266" lon="6.18441">
        <ele>332.8</ele>
        <time>2025-06-19T22:36:16Z</time>
      </trkpt>
      <trkpt lat="43.56267" lon="6.18439">
        <ele>332.6</ele>
        <time>2025-06-19T22:36:16Z</time>
      </trkpt>
      <trkpt lat="43.56268" lon="6.18438">
        <ele>331.8</ele>
        <time>2025-06-19T22:36:16Z</time>
      </trkpt>
      <trkpt lat="43.56269" lon="6.18437">
        <ele>331.8</ele>
        <time>2025-06-19T22:36:16Z</time>
      </trkpt>
      <trkpt lat="43.56271" lon="6.18437">
        <ele>331.8</ele>
        <time>2025-06-19T22:36:16Z</time>
      </trkpt>
      <trkpt lat="43.56272" lon="6.18436">
        <ele>331.8</ele>
        <time>2025-06-19T22:36:16Z</time>
      </trkpt>
      <trkpt lat="43.56273" lon="6.18435">
        <ele>331.1</ele>
        <time>2025-06-19T22:36:16Z</time>
      </trkpt>
      <trkpt lat="43.56275" lon="6.18434">
        <ele>331.1</ele>
        <time>2025-06-19T22:36:16Z</time>
      </trkpt>
      <trkpt lat="43.56276" lon="6.18433">
        <ele>331.1</ele>
        <time>2025-06-19T22:36:16Z</time>
      </trkpt>
      <trkpt lat="43.56277" lon="6.18434">
        <ele>329.3</ele>
        <time>2025-06-19T22:36:16Z</time>
      </trkpt>
      <trkpt lat="43.56279" lon="6.18435">
        <ele>329.3</ele>
        <time>2025-06-19T22:36:16Z</time>
      </trkpt>
      <trkpt lat="43.56281" lon="6.18433">
        <ele>327.7</ele>
        <time>2025-06-19T22:36:16Z</time>
      </trkpt>
      <trkpt lat="43.56281" lon="6.18432">
        <ele>327.7</ele>
        <time>2025-06-19T22:36:16Z</time>
      </trkpt>
      <trkpt lat="43.56282" lon="6.1843">
        <ele>327.3</ele>
        <time>2025-06-19T22:36:16Z</time>
      </trkpt>
      <trkpt lat="43.56282" lon="6.18427">
        <ele>326.9</ele>
        <time>2025-06-19T22:36:16Z</time>
      </trkpt>
      <trkpt lat="43.56283" lon="6.18426">
        <ele>326.9</ele>
        <time>2025-06-19T22:36:16Z</time>
      </trkpt>
      <trkpt lat="43.56283" lon="6.18424">
        <ele>326.9</ele>
        <time>2025-06-19T22:36:16Z</time>
      </trkpt>
      <trkpt lat="43.56283" lon="6.18422">
        <ele>326.3</ele>
        <time>2025-06-19T22:36:16Z</time>
      </trkpt>
      <trkpt lat="43.56283" lon="6.1842">
        <ele>326.3</ele>
        <time>2025-06-19T22:36:16Z</time>
      </trkpt>
      <trkpt lat="43.56283" lon="6.18418">
        <ele>326.2</ele>
        <time>2025-06-19T22:36:16Z</time>
      </trkpt>
      <trkpt lat="43.56283" lon="6.18416">
        <ele>326.2</ele>
        <time>2025-06-19T22:36:16Z</time>
      </trkpt>
      <trkpt lat="43.56283" lon="6.18415">
        <ele>326.2</ele>
        <time>2025-06-19T22:36:16Z</time>
      </trkpt>
      <trkpt lat="43.56285" lon="6.18414">
        <ele>325.8</ele>
        <time>2025-06-19T22:36:16Z</time>
      </trkpt>
      <trkpt lat="43.56287" lon="6.18415">
        <ele>323.6</ele>
        <time>2025-06-19T22:36:16Z</time>
      </trkpt>
      <trkpt lat="43.56288" lon="6.18417">
        <ele>323.6</ele>
        <time>2025-06-19T22:36:16Z</time>
      </trkpt>
      <trkpt lat="43.5629" lon="6.18418">
        <ele>322.6</ele>
        <time>2025-06-19T22:36:16Z</time>
      </trkpt>
      <trkpt lat="43.56291" lon="6.18419">
        <ele>322.3</ele>
        <time>2025-06-19T22:36:16Z</time>
      </trkpt>
      <trkpt lat="43.56292" lon="6.18419">
        <ele>322.3</ele>
        <time>2025-06-19T22:36:16Z</time>
      </trkpt>
      <trkpt lat="43.56293" lon="6.18419">
        <ele>322.3</ele>
        <time>2025-06-19T22:36:16Z</time>
      </trkpt>
      <trkpt lat="43.56294" lon="6.18419">
        <ele>322.1</ele>
        <time>2025-06-19T22:36:16Z</time>
      </trkpt>
      <trkpt lat="43.56295" lon="6.18419">
        <ele>322.1</ele>
        <time>2025-06-19T22:36:16Z</time>
      </trkpt>
      <trkpt lat="43.56296" lon="6.1842">
        <ele>322.1</ele>
        <time>2025-06-19T22:36:16Z</time>
      </trkpt>
      <trkpt lat="43.56297" lon="6.18423">
        <ele>321.2</ele>
        <time>2025-06-19T22:36:16Z</time>
      </trkpt>
      <trkpt lat="43.56297" lon="6.18427">
        <ele>321.2</ele>
        <time>2025-06-19T22:36:16Z</time>
      </trkpt>
      <trkpt lat="43.56298" lon="6.1843">
        <ele>320.6</ele>
        <time>2025-06-19T22:36:16Z</time>
      </trkpt>
      <trkpt lat="43.56298" lon="6.18433">
        <ele>319.5</ele>
        <time>2025-06-19T22:36:16Z</time>
      </trkpt>
      <trkpt lat="43.56296" lon="6.18434">
        <ele>320.3</ele>
        <time>2025-06-19T22:36:16Z</time>
      </trkpt>
      <trkpt lat="43.56296" lon="6.18437">
        <ele>320.2</ele>
        <time>2025-06-19T22:36:16Z</time>
      </trkpt>
      <trkpt lat="43.56296" lon="6.18439">
        <ele>320.2</ele>
        <time>2025-06-19T22:36:16Z</time>
      </trkpt>
      <trkpt lat="43.56298" lon="6.18442">
        <ele>318.9</ele>
        <time>2025-06-19T22:36:16Z</time>
      </trkpt>
      <trkpt lat="43.56298" lon="6.18444">
        <ele>318.9</ele>
        <time>2025-06-19T22:36:16Z</time>
      </trkpt>
      <trkpt lat="43.56298" lon="6.18445">
        <ele>318.6</ele>
        <time>2025-06-19T22:36:16Z</time>
      </trkpt>
      <trkpt lat="43.56298" lon="6.18447">
        <ele>318.6</ele>
        <time>2025-06-19T22:36:16Z</time>
      </trkpt>
      <trkpt lat="43.56299" lon="6.18449">
        <ele>318.4</ele>
        <time>2025-06-19T22:36:16Z</time>
      </trkpt>
      <trkpt lat="43.56299" lon="6.1845">
        <ele>318.4</ele>
        <time>2025-06-19T22:36:16Z</time>
      </trkpt>
      <trkpt lat="43.563" lon="6.18453">
        <ele>318.4</ele>
        <time>2025-06-19T22:36:16Z</time>
      </trkpt>
      <trkpt lat="43.563" lon="6.18455">
        <ele>318</ele>
        <time>2025-06-19T22:36:16Z</time>
      </trkpt>
      <trkpt lat="43.56302" lon="6.18457">
        <ele>318</ele>
        <time>2025-06-19T22:36:16Z</time>
      </trkpt>
      <trkpt lat="43.56303" lon="6.18459">
        <ele>316.7</ele>
        <time>2025-06-19T22:36:16Z</time>
      </trkpt>
      <trkpt lat="43.56303" lon="6.18461">
        <ele>316.7</ele>
        <time>2025-06-19T22:36:16Z</time>
      </trkpt>
      <trkpt lat="43.5631" lon="6.18465">
        <ele>315.2</ele>
        <time>2025-06-19T22:36:16Z</time>
      </trkpt>
      <trkpt lat="43.56315" lon="6.18457">
        <ele>315.3</ele>
        <time>2025-06-19T22:36:16Z</time>
      </trkpt>
      <trkpt lat="43.56315" lon="6.18448">
        <ele>317.6</ele>
        <time>2025-06-19T22:36:16Z</time>
      </trkpt>
      <trkpt lat="43.56322" lon="6.18444">
        <ele>317</ele>
        <time>2025-06-19T22:36:16Z</time>
      </trkpt>
      <trkpt lat="43.56324" lon="6.18441">
        <ele>316.4</ele>
        <time>2025-06-19T22:36:16Z</time>
      </trkpt>
      <trkpt lat="43.5633" lon="6.18436">
        <ele>318</ele>
        <time>2025-06-19T22:36:16Z</time>
      </trkpt>
      <trkpt lat="43.56338" lon="6.18441">
        <ele>315.2</ele>
        <time>2025-06-19T22:36:16Z</time>
      </trkpt>
      <trkpt lat="43.56348" lon="6.18441">
        <ele>315.3</ele>
        <time>2025-06-19T22:36:16Z</time>
      </trkpt>
      <trkpt lat="43.56357" lon="6.18443">
        <ele>315.3</ele>
        <time>2025-06-19T22:36:16Z</time>
      </trkpt>
      <trkpt lat="43.56361" lon="6.18451">
        <ele>314.4</ele>
        <time>2025-06-19T22:36:16Z</time>
      </trkpt>
      <trkpt lat="43.56369" lon="6.18462">
        <ele>315.9</ele>
        <time>2025-06-19T22:36:16Z</time>
      </trkpt>
      <trkpt lat="43.56374" lon="6.18471">
        <ele>316.1</ele>
        <time>2025-06-19T22:36:16Z</time>
      </trkpt>
      <trkpt lat="43.56376" lon="6.18477">
        <ele>316.5</ele>
        <time>2025-06-19T22:36:16Z</time>
      </trkpt>
      <trkpt lat="43.5637" lon="6.18467">
        <ele>315.8</ele>
        <time>2025-06-19T22:36:16Z</time>
      </trkpt>
      <trkpt lat="43.56361" lon="6.18453">
        <ele>314.4</ele>
        <time>2025-06-19T22:36:16Z</time>
      </trkpt>
      <trkpt lat="43.56354" lon="6.18442">
        <ele>314.6</ele>
        <time>2025-06-19T22:36:16Z</time>
      </trkpt>
      <trkpt lat="43.56342" lon="6.1844">
        <ele>316.4</ele>
        <time>2025-06-19T22:36:16Z</time>
      </trkpt>
      <trkpt lat="43.56332" lon="6.18438">
        <ele>318</ele>
        <time>2025-06-19T22:36:16Z</time>
      </trkpt>
      <trkpt lat="43.5633" lon="6.18437">
        <ele>318</ele>
        <time>2025-06-19T22:36:16Z</time>
      </trkpt>
      <trkpt lat="43.56322" lon="6.18442">
        <ele>317</ele>
        <time>2025-06-19T22:36:16Z</time>
      </trkpt>
      <trkpt lat="43.56317" lon="6.18446">
        <ele>316.6</ele>
        <time>2025-06-19T22:36:16Z</time>
      </trkpt>
      <trkpt lat="43.56314" lon="6.18458">
        <ele>314.6</ele>
        <time>2025-06-19T22:36:16Z</time>
      </trkpt>
      <trkpt lat="43.56316" lon="6.18467">
        <ele>313.4</ele>
        <time>2025-06-19T22:36:16Z</time>
      </trkpt>
      <trkpt lat="43.56314" lon="6.18481">
        <ele>313.7</ele>
        <time>2025-06-19T22:36:16Z</time>
      </trkpt>
      <trkpt lat="43.56307" lon="6.18499">
        <ele>313.7</ele>
        <time>2025-06-19T22:36:16Z</time>
      </trkpt>
      <trkpt lat="43.56301" lon="6.18506">
        <ele>312.9</ele>
        <time>2025-06-19T22:36:16Z</time>
      </trkpt>
      <trkpt lat="43.56294" lon="6.18526">
        <ele>312.7</ele>
        <time>2025-06-19T22:36:16Z</time>
      </trkpt>
      <trkpt lat="43.56284" lon="6.18536">
        <ele>312.7</ele>
        <time>2025-06-19T22:36:16Z</time>
      </trkpt>
      <trkpt lat="43.56288" lon="6.18539">
        <ele>312.3</ele>
        <time>2025-06-19T22:36:16Z</time>
      </trkpt>
      <trkpt lat="43.5628" lon="6.18571">
        <ele>311.6</ele>
        <time>2025-06-19T22:36:16Z</time>
      </trkpt>
      <trkpt lat="43.56273" lon="6.18597">
        <ele>310.7</ele>
        <time>2025-06-19T22:36:16Z</time>
      </trkpt>
      <trkpt lat="43.56273" lon="6.18607">
        <ele>310.1</ele>
        <time>2025-06-19T22:36:16Z</time>
      </trkpt>
      <trkpt lat="43.56268" lon="6.18617">
        <ele>309.2</ele>
        <time>2025-06-19T22:36:16Z</time>
      </trkpt>
      <trkpt lat="43.56254" lon="6.1863">
        <ele>309.1</ele>
        <time>2025-06-19T22:36:16Z</time>
      </trkpt>
      <trkpt lat="43.56242" lon="6.18651">
        <ele>309.9</ele>
        <time>2025-06-19T22:36:16Z</time>
      </trkpt>
      <trkpt lat="43.5624" lon="6.18662">
        <ele>309.2</ele>
        <time>2025-06-19T22:36:16Z</time>
      </trkpt>
      <trkpt lat="43.5625" lon="6.18684">
        <ele>306.3</ele>
        <time>2025-06-19T22:36:16Z</time>
      </trkpt>
      <trkpt lat="43.56248" lon="6.18698">
        <ele>305.4</ele>
        <time>2025-06-19T22:36:16Z</time>
      </trkpt>
      <trkpt lat="43.56238" lon="6.18707">
        <ele>309.4</ele>
        <time>2025-06-19T22:36:16Z</time>
      </trkpt>
      <trkpt lat="43.56243" lon="6.18708">
        <ele>307</ele>
        <time>2025-06-19T22:36:16Z</time>
      </trkpt>
      <trkpt lat="43.56236" lon="6.18715">
        <ele>313.6</ele>
        <time>2025-06-19T22:36:16Z</time>
      </trkpt>
      <trkpt lat="43.56234" lon="6.18737">
        <ele>313.2</ele>
        <time>2025-06-19T22:36:16Z</time>
      </trkpt>
      <trkpt lat="43.5624" lon="6.18744">
        <ele>310.8</ele>
        <time>2025-06-19T22:36:16Z</time>
      </trkpt>
      <trkpt lat="43.56242" lon="6.18752">
        <ele>311.1</ele>
        <time>2025-06-19T22:36:16Z</time>
      </trkpt>
      <trkpt lat="43.56245" lon="6.18768">
        <ele>309</ele>
        <time>2025-06-19T22:36:16Z</time>
      </trkpt>
      <trkpt lat="43.56251" lon="6.18774">
        <ele>304.8</ele>
        <time>2025-06-19T22:36:16Z</time>
      </trkpt>
      <trkpt lat="43.56251" lon="6.18784">
        <ele>304.6</ele>
        <time>2025-06-19T22:36:16Z</time>
      </trkpt>
      <trkpt lat="43.56246" lon="6.18795">
        <ele>307</ele>
        <time>2025-06-19T22:36:16Z</time>
      </trkpt>
      <trkpt lat="43.5625" lon="6.18814">
        <ele>304.5</ele>
        <time>2025-06-19T22:36:16Z</time>
      </trkpt>
      <trkpt lat="43.56248" lon="6.18829">
        <ele>303.9</ele>
        <time>2025-06-19T22:36:16Z</time>
      </trkpt>
      <trkpt lat="43.56254" lon="6.18842">
        <ele>302.9</ele>
        <time>2025-06-19T22:36:16Z</time>
      </trkpt>
      <trkpt lat="43.56256" lon="6.18853">
        <ele>303.8</ele>
        <time>2025-06-19T22:36:16Z</time>
      </trkpt>
      <trkpt lat="43.5625" lon="6.18864">
        <ele>305.6</ele>
        <time>2025-06-19T22:36:16Z</time>
      </trkpt>
      <trkpt lat="43.5625" lon="6.18866">
        <ele>304.7</ele>
        <time>2025-06-19T22:36:16Z</time>
      </trkpt>
      <trkpt lat="43.56255" lon="6.18877">
        <ele>301.5</ele>
        <time>2025-06-19T22:36:16Z</time>
      </trkpt>
      <trkpt lat="43.56249" lon="6.18885">
        <ele>298.1</ele>
        <time>2025-06-19T22:36:16Z</time>
      </trkpt>
      <trkpt lat="43.56255" lon="6.18876">
        <ele>301.5</ele>
        <time>2025-06-19T22:36:16Z</time>
      </trkpt>
      <trkpt lat="43.56251" lon="6.18867">
        <ele>302.1</ele>
        <time>2025-06-19T22:36:16Z</time>
      </trkpt>
      <trkpt lat="43.56246" lon="6.18869">
        <ele>307.1</ele>
        <time>2025-06-19T22:36:16Z</time>
      </trkpt>
      <trkpt lat="43.56236" lon="6.18862">
        <ele>305.4</ele>
        <time>2025-06-19T22:36:16Z</time>
      </trkpt>
      <trkpt lat="43.56235" lon="6.18855">
        <ele>313.3</ele>
        <time>2025-06-19T22:36:16Z</time>
      </trkpt>
      <trkpt lat="43.5623" lon="6.18845">
        <ele>315.5</ele>
        <time>2025-06-19T22:36:16Z</time>
      </trkpt>
      <trkpt lat="43.56224" lon="6.18843">
        <ele>315.6</ele>
        <time>2025-06-19T22:36:16Z</time>
      </trkpt>
      <trkpt lat="43.5622" lon="6.18836">
        <ele>315.7</ele>
        <time>2025-06-19T22:36:16Z</time>
      </trkpt>
      <trkpt lat="43.56211" lon="6.1883">
        <ele>316.9</ele>
        <time>2025-06-19T22:36:16Z</time>
      </trkpt>
      <trkpt lat="43.56209" lon="6.1883">
        <ele>316.9</ele>
        <time>2025-06-19T22:36:16Z</time>
      </trkpt>
      <trkpt lat="43.56206" lon="6.18842">
        <ele>314.8</ele>
        <time>2025-06-19T22:36:16Z</time>
      </trkpt>
      <trkpt lat="43.56206" lon="6.18857">
        <ele>308.6</ele>
        <time>2025-06-19T22:36:16Z</time>
      </trkpt>
      <trkpt lat="43.56211" lon="6.18866">
        <ele>303.7</ele>
        <time>2025-06-19T22:36:16Z</time>
      </trkpt>
      <trkpt lat="43.56215" lon="6.18871">
        <ele>300.5</ele>
        <time>2025-06-19T22:36:16Z</time>
      </trkpt>
      <trkpt lat="43.56224" lon="6.18884">
        <ele>294.5</ele>
        <time>2025-06-19T22:36:16Z</time>
      </trkpt>
      <trkpt lat="43.5623" lon="6.18905">
        <ele>290.7</ele>
        <time>2025-06-19T22:36:16Z</time>
      </trkpt>
      <trkpt lat="43.56238" lon="6.18902">
        <ele>290</ele>
        <time>2025-06-19T22:36:16Z</time>
      </trkpt>
      <trkpt lat="43.56242" lon="6.18914">
        <ele>290</ele>
        <time>2025-06-19T22:36:16Z</time>
      </trkpt>
      <trkpt lat="43.5624" lon="6.18904">
        <ele>290</ele>
        <time>2025-06-19T22:36:16Z</time>
      </trkpt>
      <trkpt lat="43.56231" lon="6.18906">
        <ele>290.7</ele>
        <time>2025-06-19T22:36:16Z</time>
      </trkpt>
      <trkpt lat="43.56228" lon="6.18897">
        <ele>291.1</ele>
        <time>2025-06-19T22:36:16Z</time>
      </trkpt>
      <trkpt lat="43.56229" lon="6.18897">
        <ele>291.1</ele>
        <time>2025-06-19T22:36:16Z</time>
      </trkpt>
      <trkpt lat="43.56229" lon="6.18895">
        <ele>291.2</ele>
        <time>2025-06-19T22:36:16Z</time>
      </trkpt>
      <trkpt lat="43.56226" lon="6.18887">
        <ele>292.2</ele>
        <time>2025-06-19T22:36:16Z</time>
      </trkpt>
      <trkpt lat="43.56225" lon="6.18885">
        <ele>294.5</ele>
        <time>2025-06-19T22:36:16Z</time>
      </trkpt>
      <trkpt lat="43.56211" lon="6.18866">
        <ele>303.7</ele>
        <time>2025-06-19T22:36:16Z</time>
      </trkpt>
      <trkpt lat="43.5621" lon="6.18863">
        <ele>305.7</ele>
        <time>2025-06-19T22:36:16Z</time>
      </trkpt>
      <trkpt lat="43.56206" lon="6.18857">
        <ele>308.6</ele>
        <time>2025-06-19T22:36:16Z</time>
      </trkpt>
      <trkpt lat="43.56206" lon="6.18842">
        <ele>314.8</ele>
        <time>2025-06-19T22:36:16Z</time>
      </trkpt>
      <trkpt lat="43.56208" lon="6.18832">
        <ele>316.5</ele>
        <time>2025-06-19T22:36:16Z</time>
      </trkpt>
      <trkpt lat="43.56209" lon="6.1883">
        <ele>316.9</ele>
        <time>2025-06-19T22:36:16Z</time>
      </trkpt>
      <trkpt lat="43.56198" lon="6.18815">
        <ele>318.9</ele>
        <time>2025-06-19T22:36:16Z</time>
      </trkpt>
      <trkpt lat="43.56191" lon="6.18804">
        <ele>319.6</ele>
        <time>2025-06-19T22:36:16Z</time>
      </trkpt>
      <trkpt lat="43.56188" lon="6.18797">
        <ele>320</ele>
        <time>2025-06-19T22:36:16Z</time>
      </trkpt>
      <trkpt lat="43.56189" lon="6.18787">
        <ele>320.9</ele>
        <time>2025-06-19T22:36:16Z</time>
      </trkpt>
      <trkpt lat="43.5619" lon="6.18773">
        <ele>321.1</ele>
        <time>2025-06-19T22:36:16Z</time>
      </trkpt>
      <trkpt lat="43.5619" lon="6.18759">
        <ele>322.2</ele>
        <time>2025-06-19T22:36:16Z</time>
      </trkpt>
      <trkpt lat="43.56198" lon="6.18747">
        <ele>323.3</ele>
        <time>2025-06-19T22:36:16Z</time>
      </trkpt>
      <trkpt lat="43.56202" lon="6.18735">
        <ele>322.9</ele>
        <time>2025-06-19T22:36:16Z</time>
      </trkpt>
      <trkpt lat="43.562" lon="6.18715">
        <ele>323.5</ele>
        <time>2025-06-19T22:36:16Z</time>
      </trkpt>
      <trkpt lat="43.562" lon="6.18711">
        <ele>323.6</ele>
        <time>2025-06-19T22:36:16Z</time>
      </trkpt>
      <trkpt lat="43.56195" lon="6.18682">
        <ele>328.3</ele>
        <time>2025-06-19T22:36:16Z</time>
      </trkpt>
      <trkpt lat="43.56193" lon="6.18664">
        <ele>332.7</ele>
        <time>2025-06-19T22:36:16Z</time>
      </trkpt>
      <trkpt lat="43.56191" lon="6.18654">
        <ele>334.8</ele>
        <time>2025-06-19T22:36:16Z</time>
      </trkpt>
      <trkpt lat="43.56185" lon="6.18666">
        <ele>336.1</ele>
        <time>2025-06-19T22:36:16Z</time>
      </trkpt>
      <trkpt lat="43.56168" lon="6.18699">
        <ele>336.5</ele>
        <time>2025-06-19T22:36:16Z</time>
      </trkpt>
      <trkpt lat="43.56156" lon="6.18726">
        <ele>335.9</ele>
        <time>2025-06-19T22:36:16Z</time>
      </trkpt>
      <trkpt lat="43.56151" lon="6.18743">
        <ele>334.2</ele>
        <time>2025-06-19T22:36:16Z</time>
      </trkpt>
      <trkpt lat="43.56147" lon="6.18755">
        <ele>333.5</ele>
        <time>2025-06-19T22:36:16Z</time>
      </trkpt>
      <trkpt lat="43.56144" lon="6.18763">
        <ele>332.6</ele>
        <time>2025-06-19T22:36:16Z</time>
      </trkpt>
      <trkpt lat="43.56132" lon="6.18786">
        <ele>332.5</ele>
        <time>2025-06-19T22:36:16Z</time>
      </trkpt>
      <trkpt lat="43.56128" lon="6.18793">
        <ele>331.9</ele>
        <time>2025-06-19T22:36:16Z</time>
      </trkpt>
      <trkpt lat="43.56124" lon="6.18803">
        <ele>331.1</ele>
        <time>2025-06-19T22:36:16Z</time>
      </trkpt>
      <trkpt lat="43.5612" lon="6.18816">
        <ele>329.7</ele>
        <time>2025-06-19T22:36:16Z</time>
      </trkpt>
      <trkpt lat="43.56116" lon="6.18831">
        <ele>329.4</ele>
        <time>2025-06-19T22:36:16Z</time>
      </trkpt>
      <trkpt lat="43.56111" lon="6.18849">
        <ele>329.3</ele>
        <time>2025-06-19T22:36:16Z</time>
      </trkpt>
      <trkpt lat="43.56109" lon="6.18858">
        <ele>330</ele>
        <time>2025-06-19T22:36:16Z</time>
      </trkpt>
      <trkpt lat="43.56107" lon="6.18867">
        <ele>329.3</ele>
        <time>2025-06-19T22:36:16Z</time>
      </trkpt>
      <trkpt lat="43.56105" lon="6.18882">
        <ele>328.6</ele>
        <time>2025-06-19T22:36:16Z</time>
      </trkpt>
      <trkpt lat="43.56103" lon="6.18896">
        <ele>329.8</ele>
        <time>2025-06-19T22:36:16Z</time>
      </trkpt>
      <trkpt lat="43.56101" lon="6.18908">
        <ele>329.3</ele>
        <time>2025-06-19T22:36:16Z</time>
      </trkpt>
      <trkpt lat="43.56098" lon="6.1892">
        <ele>330</ele>
        <time>2025-06-19T22:36:16Z</time>
      </trkpt>
      <trkpt lat="43.56095" lon="6.18928">
        <ele>330</ele>
        <time>2025-06-19T22:36:16Z</time>
      </trkpt>
      <trkpt lat="43.56089" lon="6.18949">
        <ele>327.7</ele>
        <time>2025-06-19T22:36:16Z</time>
      </trkpt>
      <trkpt lat="43.56084" lon="6.18966">
        <ele>325.4</ele>
        <time>2025-06-19T22:36:16Z</time>
      </trkpt>
      <trkpt lat="43.56081" lon="6.18973">
        <ele>324.3</ele>
        <time>2025-06-19T22:36:16Z</time>
      </trkpt>
      <trkpt lat="43.56077" lon="6.18983">
        <ele>323.8</ele>
        <time>2025-06-19T22:36:16Z</time>
      </trkpt>
      <trkpt lat="43.56076" lon="6.18995">
        <ele>323.7</ele>
        <time>2025-06-19T22:36:16Z</time>
      </trkpt>
      <trkpt lat="43.56077" lon="6.19">
        <ele>324</ele>
        <time>2025-06-19T22:36:16Z</time>
      </trkpt>
      <trkpt lat="43.56078" lon="6.19013">
        <ele>324.1</ele>
        <time>2025-06-19T22:36:16Z</time>
      </trkpt>
      <trkpt lat="43.5608" lon="6.19026">
        <ele>321</ele>
        <time>2025-06-19T22:36:16Z</time>
      </trkpt>
      <trkpt lat="43.56083" lon="6.19041">
        <ele>320.4</ele>
        <time>2025-06-19T22:36:16Z</time>
      </trkpt>
      <trkpt lat="43.56086" lon="6.19049">
        <ele>318.7</ele>
        <time>2025-06-19T22:36:16Z</time>
      </trkpt>
      <trkpt lat="43.56087" lon="6.19054">
        <ele>319</ele>
        <time>2025-06-19T22:36:16Z</time>
      </trkpt>
      <trkpt lat="43.56087" lon="6.19061">
        <ele>319.3</ele>
        <time>2025-06-19T22:36:16Z</time>
      </trkpt>
      <trkpt lat="43.56087" lon="6.19067">
        <ele>317.7</ele>
        <time>2025-06-19T22:36:16Z</time>
      </trkpt>
      <trkpt lat="43.56086" lon="6.19076">
        <ele>316.8</ele>
        <time>2025-06-19T22:36:16Z</time>
      </trkpt>
      <trkpt lat="43.56085" lon="6.19088">
        <ele>316.2</ele>
        <time>2025-06-19T22:36:16Z</time>
      </trkpt>
      <trkpt lat="43.56086" lon="6.1911">
        <ele>314.9</ele>
        <time>2025-06-19T22:36:16Z</time>
      </trkpt>
      <trkpt lat="43.56087" lon="6.19124">
        <ele>314.5</ele>
        <time>2025-06-19T22:36:16Z</time>
      </trkpt>
      <trkpt lat="43.56089" lon="6.19132">
        <ele>313.6</ele>
        <time>2025-06-19T22:36:16Z</time>
      </trkpt>
      <trkpt lat="43.5609" lon="6.19135">
        <ele>313.6</ele>
        <time>2025-06-19T22:36:16Z</time>
      </trkpt>
      <trkpt lat="43.56093" lon="6.19142">
        <ele>313.1</ele>
        <time>2025-06-19T22:36:16Z</time>
      </trkpt>
      <trkpt lat="43.56095" lon="6.19147">
        <ele>313.4</ele>
        <time>2025-06-19T22:36:16Z</time>
      </trkpt>
      <trkpt lat="43.56097" lon="6.19153">
        <ele>313.1</ele>
        <time>2025-06-19T22:36:16Z</time>
      </trkpt>
      <trkpt lat="43.56099" lon="6.19159">
        <ele>313.4</ele>
        <time>2025-06-19T22:36:16Z</time>
      </trkpt>
      <trkpt lat="43.561" lon="6.19162">
        <ele>313.8</ele>
        <time>2025-06-19T22:36:16Z</time>
      </trkpt>
      <trkpt lat="43.56101" lon="6.19164">
        <ele>313.1</ele>
        <time>2025-06-19T22:36:16Z</time>
      </trkpt>
      <trkpt lat="43.56103" lon="6.19166">
        <ele>313.3</ele>
        <time>2025-06-19T22:36:16Z</time>
      </trkpt>
      <trkpt lat="43.56106" lon="6.19168">
        <ele>312.4</ele>
        <time>2025-06-19T22:36:16Z</time>
      </trkpt>
      <trkpt lat="43.5611" lon="6.19169">
        <ele>311.8</ele>
        <time>2025-06-19T22:36:16Z</time>
      </trkpt>
      <trkpt lat="43.56112" lon="6.19167">
        <ele>311.8</ele>
        <time>2025-06-19T22:36:16Z</time>
      </trkpt>
      <trkpt lat="43.56117" lon="6.19164">
        <ele>311.1</ele>
        <time>2025-06-19T22:36:16Z</time>
      </trkpt>
      <trkpt lat="43.56123" lon="6.19162">
        <ele>310.6</ele>
        <time>2025-06-19T22:36:16Z</time>
      </trkpt>
      <trkpt lat="43.56127" lon="6.19161">
        <ele>310</ele>
        <time>2025-06-19T22:36:16Z</time>
      </trkpt>
      <trkpt lat="43.56132" lon="6.19161">
        <ele>309.7</ele>
        <time>2025-06-19T22:36:16Z</time>
      </trkpt>
      <trkpt lat="43.56138" lon="6.19161">
        <ele>309.2</ele>
        <time>2025-06-19T22:36:16Z</time>
      </trkpt>
      <trkpt lat="43.56141" lon="6.19161">
        <ele>308.4</ele>
        <time>2025-06-19T22:36:16Z</time>
      </trkpt>
      <trkpt lat="43.56143" lon="6.19162">
        <ele>308.8</ele>
        <time>2025-06-19T22:36:16Z</time>
      </trkpt>
      <trkpt lat="43.56145" lon="6.19163">
        <ele>308.1</ele>
        <time>2025-06-19T22:36:16Z</time>
      </trkpt>
      <trkpt lat="43.56148" lon="6.19161">
        <ele>306.2</ele>
        <time>2025-06-19T22:36:16Z</time>
      </trkpt>
      <trkpt lat="43.5615" lon="6.19161">
        <ele>306.2</ele>
        <time>2025-06-19T22:36:16Z</time>
      </trkpt>
      <trkpt lat="43.56151" lon="6.19163">
        <ele>306.9</ele>
        <time>2025-06-19T22:36:16Z</time>
      </trkpt>
      <trkpt lat="43.56153" lon="6.19166">
        <ele>306.3</ele>
        <time>2025-06-19T22:36:16Z</time>
      </trkpt>
      <trkpt lat="43.56156" lon="6.1917">
        <ele>307</ele>
        <time>2025-06-19T22:36:16Z</time>
      </trkpt>
      <trkpt lat="43.56157" lon="6.19172">
        <ele>305.7</ele>
        <time>2025-06-19T22:36:16Z</time>
      </trkpt>
      <trkpt lat="43.56162" lon="6.19173">
        <ele>305</ele>
        <time>2025-06-19T22:36:16Z</time>
      </trkpt>
      <trkpt lat="43.56164" lon="6.19174">
        <ele>305</ele>
        <time>2025-06-19T22:36:16Z</time>
      </trkpt>
      <trkpt lat="43.56168" lon="6.19176">
        <ele>304</ele>
        <time>2025-06-19T22:36:16Z</time>
      </trkpt>
      <trkpt lat="43.56171" lon="6.19178">
        <ele>303.1</ele>
        <time>2025-06-19T22:36:16Z</time>
      </trkpt>
      <trkpt lat="43.56175" lon="6.19178">
        <ele>302.4</ele>
        <time>2025-06-19T22:36:16Z</time>
      </trkpt>
      <trkpt lat="43.56179" lon="6.19176">
        <ele>301.3</ele>
        <time>2025-06-19T22:36:16Z</time>
      </trkpt>
      <trkpt lat="43.56182" lon="6.19175">
        <ele>301.3</ele>
        <time>2025-06-19T22:36:16Z</time>
      </trkpt>
      <trkpt lat="43.56185" lon="6.19175">
        <ele>299.9</ele>
        <time>2025-06-19T22:36:16Z</time>
      </trkpt>
      <trkpt lat="43.56186" lon="6.19175">
        <ele>299.9</ele>
        <time>2025-06-19T22:36:16Z</time>
      </trkpt>
      <trkpt lat="43.56189" lon="6.19175">
        <ele>298.8</ele>
        <time>2025-06-19T22:36:16Z</time>
      </trkpt>
      <trkpt lat="43.56192" lon="6.19175">
        <ele>298.1</ele>
        <time>2025-06-19T22:36:16Z</time>
      </trkpt>
      <trkpt lat="43.56194" lon="6.19176">
        <ele>298.1</ele>
        <time>2025-06-19T22:36:16Z</time>
      </trkpt>
      <trkpt lat="43.56195" lon="6.19176">
        <ele>297.3</ele>
        <time>2025-06-19T22:36:16Z</time>
      </trkpt>
      <trkpt lat="43.56197" lon="6.19175">
        <ele>297.3</ele>
        <time>2025-06-19T22:36:16Z</time>
      </trkpt>
      <trkpt lat="43.56199" lon="6.19177">
        <ele>297.3</ele>
        <time>2025-06-19T22:36:16Z</time>
      </trkpt>
      <trkpt lat="43.56201" lon="6.19177">
        <ele>296.8</ele>
        <time>2025-06-19T22:36:16Z</time>
      </trkpt>
      <trkpt lat="43.56203" lon="6.19178">
        <ele>296.8</ele>
        <time>2025-06-19T22:36:16Z</time>
      </trkpt>
      <trkpt lat="43.56205" lon="6.19181">
        <ele>295.6</ele>
        <time>2025-06-19T22:36:16Z</time>
      </trkpt>
      <trkpt lat="43.56207" lon="6.19182">
        <ele>295.6</ele>
        <time>2025-06-19T22:36:16Z</time>
      </trkpt>
      <trkpt lat="43.56208" lon="6.19183">
        <ele>294.7</ele>
        <time>2025-06-19T22:36:16Z</time>
      </trkpt>
      <trkpt lat="43.56209" lon="6.19186">
        <ele>294.7</ele>
        <time>2025-06-19T22:36:16Z</time>
      </trkpt>
      <trkpt lat="43.56211" lon="6.19188">
        <ele>294.4</ele>
        <time>2025-06-19T22:36:16Z</time>
      </trkpt>
      <trkpt lat="43.56213" lon="6.19189">
        <ele>293.7</ele>
        <time>2025-06-19T22:36:16Z</time>
      </trkpt>
      <trkpt lat="43.56216" lon="6.19191">
        <ele>293.7</ele>
        <time>2025-06-19T22:36:16Z</time>
      </trkpt>
      <trkpt lat="43.56219" lon="6.19193">
        <ele>292.4</ele>
        <time>2025-06-19T22:36:16Z</time>
      </trkpt>
      <trkpt lat="43.56221" lon="6.19194">
        <ele>291</ele>
        <time>2025-06-19T22:36:16Z</time>
      </trkpt>
      <trkpt lat="43.56223" lon="6.19196">
        <ele>290.9</ele>
        <time>2025-06-19T22:36:16Z</time>
      </trkpt>
      <trkpt lat="43.56225" lon="6.19199">
        <ele>290.9</ele>
        <time>2025-06-19T22:36:16Z</time>
      </trkpt>
      <trkpt lat="43.56226" lon="6.19202">
        <ele>290.4</ele>
        <time>2025-06-19T22:36:16Z</time>
      </trkpt>
      <trkpt lat="43.56229" lon="6.19204">
        <ele>290.4</ele>
        <time>2025-06-19T22:36:16Z</time>
      </trkpt>
      <trkpt lat="43.56231" lon="6.19205">
        <ele>290.1</ele>
        <time>2025-06-19T22:36:16Z</time>
      </trkpt>
      <trkpt lat="43.56234" lon="6.19206">
        <ele>289.4</ele>
        <time>2025-06-19T22:36:16Z</time>
      </trkpt>
      <trkpt lat="43.56236" lon="6.19207">
        <ele>289.4</ele>
        <time>2025-06-19T22:36:16Z</time>
      </trkpt>
      <trkpt lat="43.56238" lon="6.1921">
        <ele>288.8</ele>
        <time>2025-06-19T22:36:16Z</time>
      </trkpt>
      <trkpt lat="43.5624" lon="6.19212">
        <ele>288.8</ele>
        <time>2025-06-19T22:36:16Z</time>
      </trkpt>
      <trkpt lat="43.56242" lon="6.19214">
        <ele>289.4</ele>
        <time>2025-06-19T22:36:16Z</time>
      </trkpt>
      <trkpt lat="43.56244" lon="6.19215">
        <ele>288.1</ele>
        <time>2025-06-19T22:36:16Z</time>
      </trkpt>
      <trkpt lat="43.56245" lon="6.19216">
        <ele>288.1</ele>
        <time>2025-06-19T22:36:16Z</time>
      </trkpt>
      <trkpt lat="43.56248" lon="6.19217">
        <ele>287.1</ele>
        <time>2025-06-19T22:36:16Z</time>
      </trkpt>
      <trkpt lat="43.56249" lon="6.19219">
        <ele>287.1</ele>
        <time>2025-06-19T22:36:16Z</time>
      </trkpt>
      <trkpt lat="43.56251" lon="6.19218">
        <ele>286.2</ele>
        <time>2025-06-19T22:36:16Z</time>
      </trkpt>
      <trkpt lat="43.56252" lon="6.19215">
        <ele>286</ele>
        <time>2025-06-19T22:36:16Z</time>
      </trkpt>
      <trkpt lat="43.56254" lon="6.19215">
        <ele>286</ele>
        <time>2025-06-19T22:36:16Z</time>
      </trkpt>
      <trkpt lat="43.56256" lon="6.19214">
        <ele>285.6</ele>
        <time>2025-06-19T22:36:16Z</time>
      </trkpt>
      <trkpt lat="43.56257" lon="6.19214">
        <ele>285.6</ele>
        <time>2025-06-19T22:36:16Z</time>
      </trkpt>
      <trkpt lat="43.56258" lon="6.19215">
        <ele>285.6</ele>
        <time>2025-06-19T22:36:16Z</time>
      </trkpt>
      <trkpt lat="43.56258" lon="6.19217">
        <ele>285.6</ele>
        <time>2025-06-19T22:36:16Z</time>
      </trkpt>
      <trkpt lat="43.56259" lon="6.19218">
        <ele>285.6</ele>
        <time>2025-06-19T22:36:16Z</time>
      </trkpt>
      <trkpt lat="43.5626" lon="6.19219">
        <ele>285.2</ele>
        <time>2025-06-19T22:36:16Z</time>
      </trkpt>
      <trkpt lat="43.56261" lon="6.19221">
        <ele>285.2</ele>
        <time>2025-06-19T22:36:16Z</time>
      </trkpt>
      <trkpt lat="43.56262" lon="6.19221">
        <ele>285.2</ele>
        <time>2025-06-19T22:36:16Z</time>
      </trkpt>
      <trkpt lat="43.56264" lon="6.19221">
        <ele>284.7</ele>
        <time>2025-06-19T22:36:16Z</time>
      </trkpt>
      <trkpt lat="43.56265" lon="6.19221">
        <ele>284.7</ele>
        <time>2025-06-19T22:36:16Z</time>
      </trkpt>
      <trkpt lat="43.56267" lon="6.19219">
        <ele>284.7</ele>
        <time>2025-06-19T22:36:16Z</time>
      </trkpt>
      <trkpt lat="43.56268" lon="6.19219">
        <ele>284.2</ele>
        <time>2025-06-19T22:36:16Z</time>
      </trkpt>
      <trkpt lat="43.5627" lon="6.19218">
        <ele>284.2</ele>
        <time>2025-06-19T22:36:16Z</time>
      </trkpt>
      <trkpt lat="43.56271" lon="6.19218">
        <ele>284.2</ele>
        <time>2025-06-19T22:36:16Z</time>
      </trkpt>
      <trkpt lat="43.56274" lon="6.19221">
        <ele>283.5</ele>
        <time>2025-06-19T22:36:16Z</time>
      </trkpt>
      <trkpt lat="43.56274" lon="6.19224">
        <ele>283.2</ele>
        <time>2025-06-19T22:36:16Z</time>
      </trkpt>
      <trkpt lat="43.56276" lon="6.19226">
        <ele>282.9</ele>
        <time>2025-06-19T22:36:16Z</time>
      </trkpt>
      <trkpt lat="43.56278" lon="6.19228">
        <ele>281.9</ele>
        <time>2025-06-19T22:36:16Z</time>
      </trkpt>
      <trkpt lat="43.5628" lon="6.19231">
        <ele>281.5</ele>
        <time>2025-06-19T22:36:16Z</time>
      </trkpt>
      <trkpt lat="43.56282" lon="6.19231">
        <ele>280.5</ele>
        <time>2025-06-19T22:36:16Z</time>
      </trkpt>
      <trkpt lat="43.56285" lon="6.19231">
        <ele>280.5</ele>
        <time>2025-06-19T22:36:16Z</time>
      </trkpt>
      <trkpt lat="43.56286" lon="6.19232">
        <ele>279.1</ele>
        <time>2025-06-19T22:36:16Z</time>
      </trkpt>
      <trkpt lat="43.56288" lon="6.19233">
        <ele>279.1</ele>
        <time>2025-06-19T22:36:16Z</time>
      </trkpt>
      <trkpt lat="43.5629" lon="6.19233">
        <ele>277.9</ele>
        <time>2025-06-19T22:36:16Z</time>
      </trkpt>
      <trkpt lat="43.56294" lon="6.19231">
        <ele>276.4</ele>
        <time>2025-06-19T22:36:16Z</time>
      </trkpt>
      <trkpt lat="43.56295" lon="6.19231">
        <ele>276.4</ele>
        <time>2025-06-19T22:36:16Z</time>
      </trkpt>
      <trkpt lat="43.56296" lon="6.19233">
        <ele>276.4</ele>
        <time>2025-06-19T22:36:16Z</time>
      </trkpt>
      <trkpt lat="43.56298" lon="6.19235">
        <ele>274.3</ele>
        <time>2025-06-19T22:36:16Z</time>
      </trkpt>
      <trkpt lat="43.56299" lon="6.19236">
        <ele>274.3</ele>
        <time>2025-06-19T22:36:16Z</time>
      </trkpt>
      <trkpt lat="43.56301" lon="6.19239">
        <ele>273.7</ele>
        <time>2025-06-19T22:36:16Z</time>
      </trkpt>
      <trkpt lat="43.56302" lon="6.19242">
        <ele>273.7</ele>
        <time>2025-06-19T22:36:16Z</time>
      </trkpt>
      <trkpt lat="43.56302" lon="6.19244">
        <ele>273</ele>
        <time>2025-06-19T22:36:16Z</time>
      </trkpt>
      <trkpt lat="43.56301" lon="6.19246">
        <ele>273</ele>
        <time>2025-06-19T22:36:16Z</time>
      </trkpt>
      <trkpt lat="43.56301" lon="6.19248">
        <ele>272.9</ele>
        <time>2025-06-19T22:36:16Z</time>
      </trkpt>
      <trkpt lat="43.56305" lon="6.19248">
        <ele>272.1</ele>
        <time>2025-06-19T22:36:16Z</time>
      </trkpt>
      <trkpt lat="43.56307" lon="6.19246">
        <ele>271.3</ele>
        <time>2025-06-19T22:36:16Z</time>
      </trkpt>
      <trkpt lat="43.56309" lon="6.19245">
        <ele>271.3</ele>
        <time>2025-06-19T22:36:16Z</time>
      </trkpt>
      <trkpt lat="43.56311" lon="6.19244">
        <ele>270.1</ele>
        <time>2025-06-19T22:36:16Z</time>
      </trkpt>
      <trkpt lat="43.56314" lon="6.19244">
        <ele>270.1</ele>
        <time>2025-06-19T22:36:16Z</time>
      </trkpt>
      <trkpt lat="43.56316" lon="6.19244">
        <ele>269.1</ele>
        <time>2025-06-19T22:36:16Z</time>
      </trkpt>
      <trkpt lat="43.56317" lon="6.19244">
        <ele>269.1</ele>
        <time>2025-06-19T22:36:16Z</time>
      </trkpt>
      <trkpt lat="43.5632" lon="6.19246">
        <ele>268.7</ele>
        <time>2025-06-19T22:36:16Z</time>
      </trkpt>
      <trkpt lat="43.56323" lon="6.19247">
        <ele>269.4</ele>
        <time>2025-06-19T22:36:16Z</time>
      </trkpt>
      <trkpt lat="43.56325" lon="6.1925">
        <ele>267.8</ele>
        <time>2025-06-19T22:36:16Z</time>
      </trkpt>
      <trkpt lat="43.56326" lon="6.19253">
        <ele>268.3</ele>
        <time>2025-06-19T22:36:16Z</time>
      </trkpt>
      <trkpt lat="43.56327" lon="6.19257">
        <ele>268.8</ele>
        <time>2025-06-19T22:36:16Z</time>
      </trkpt>
      <trkpt lat="43.56328" lon="6.19262">
        <ele>269.1</ele>
        <time>2025-06-19T22:36:16Z</time>
      </trkpt>
      <trkpt lat="43.56328" lon="6.19268">
        <ele>269</ele>
        <time>2025-06-19T22:36:16Z</time>
      </trkpt>
      <trkpt lat="43.56331" lon="6.19276">
        <ele>267.7</ele>
        <time>2025-06-19T22:36:16Z</time>
      </trkpt>
      <trkpt lat="43.56333" lon="6.19284">
        <ele>266.9</ele>
        <time>2025-06-19T22:36:16Z</time>
      </trkpt>
      <trkpt lat="43.56335" lon="6.19288">
        <ele>267.5</ele>
        <time>2025-06-19T22:36:16Z</time>
      </trkpt>
      <trkpt lat="43.56338" lon="6.19298">
        <ele>266.6</ele>
        <time>2025-06-19T22:36:16Z</time>
      </trkpt>
      <trkpt lat="43.56344" lon="6.19319">
        <ele>265.7</ele>
        <time>2025-06-19T22:36:16Z</time>
      </trkpt>
      <trkpt lat="43.56348" lon="6.19333">
        <ele>264.3</ele>
        <time>2025-06-19T22:36:16Z</time>
      </trkpt>
      <trkpt lat="43.5635" lon="6.19344">
        <ele>262.5</ele>
        <time>2025-06-19T22:36:16Z</time>
      </trkpt>
      <trkpt lat="43.56355" lon="6.19359">
        <ele>263.7</ele>
        <time>2025-06-19T22:36:16Z</time>
      </trkpt>
      <trkpt lat="43.56357" lon="6.19363">
        <ele>264.3</ele>
        <time>2025-06-19T22:36:16Z</time>
      </trkpt>
      <trkpt lat="43.56366" lon="6.19391">
        <ele>266.2</ele>
        <time>2025-06-19T22:36:16Z</time>
      </trkpt>
      <trkpt lat="43.56372" lon="6.19415">
        <ele>267</ele>
        <time>2025-06-19T22:36:16Z</time>
      </trkpt>
      <trkpt lat="43.56377" lon="6.19431">
        <ele>267.1</ele>
        <time>2025-06-19T22:36:16Z</time>
      </trkpt>
      <trkpt lat="43.56378" lon="6.19437">
        <ele>267.1</ele>
        <time>2025-06-19T22:36:16Z</time>
      </trkpt>
      <trkpt lat="43.56377" lon="6.19442">
        <ele>267.2</ele>
        <time>2025-06-19T22:36:16Z</time>
      </trkpt>
      <trkpt lat="43.56377" lon="6.19448">
        <ele>267.2</ele>
        <time>2025-06-19T22:36:16Z</time>
      </trkpt>
      <trkpt lat="43.56375" lon="6.19454">
        <ele>267.8</ele>
        <time>2025-06-19T22:36:16Z</time>
      </trkpt>
      <trkpt lat="43.56371" lon="6.19463">
        <ele>268.2</ele>
        <time>2025-06-19T22:36:16Z</time>
      </trkpt>
      <trkpt lat="43.56369" lon="6.19473">
        <ele>269.4</ele>
        <time>2025-06-19T22:36:16Z</time>
      </trkpt>
      <trkpt lat="43.56366" lon="6.19488">
        <ele>271.7</ele>
        <time>2025-06-19T22:36:16Z</time>
      </trkpt>
      <trkpt lat="43.56367" lon="6.19497">
        <ele>272.2</ele>
        <time>2025-06-19T22:36:16Z</time>
      </trkpt>
      <trkpt lat="43.56369" lon="6.19503">
        <ele>272.7</ele>
        <time>2025-06-19T22:36:16Z</time>
      </trkpt>
      <trkpt lat="43.5637" lon="6.19507">
        <ele>273</ele>
        <time>2025-06-19T22:36:16Z</time>
      </trkpt>
      <trkpt lat="43.56371" lon="6.19509">
        <ele>273.4</ele>
        <time>2025-06-19T22:36:16Z</time>
      </trkpt>
      <trkpt lat="43.56373" lon="6.19512">
        <ele>273.4</ele>
        <time>2025-06-19T22:36:16Z</time>
      </trkpt>
      <trkpt lat="43.5638" lon="6.19517">
        <ele>274.5</ele>
        <time>2025-06-19T22:36:16Z</time>
      </trkpt>
      <trkpt lat="43.56397" lon="6.19526">
        <ele>275.7</ele>
        <time>2025-06-19T22:36:16Z</time>
      </trkpt>
      <trkpt lat="43.56402" lon="6.19529">
        <ele>275.8</ele>
        <time>2025-06-19T22:36:16Z</time>
      </trkpt>
      <trkpt lat="43.56405" lon="6.19533">
        <ele>275.8</ele>
        <time>2025-06-19T22:36:16Z</time>
      </trkpt>
      <trkpt lat="43.56407" lon="6.1954">
        <ele>275.9</ele>
        <time>2025-06-19T22:36:16Z</time>
      </trkpt>
      <trkpt lat="43.56406" lon="6.19547">
        <ele>276</ele>
        <time>2025-06-19T22:36:16Z</time>
      </trkpt>
      <trkpt lat="43.56404" lon="6.19552">
        <ele>276.4</ele>
        <time>2025-06-19T22:36:16Z</time>
      </trkpt>
      <trkpt lat="43.564" lon="6.1956">
        <ele>276.7</ele>
        <time>2025-06-19T22:36:16Z</time>
      </trkpt>
      <trkpt lat="43.56396" lon="6.19568">
        <ele>276.7</ele>
        <time>2025-06-19T22:36:16Z</time>
      </trkpt>
      <trkpt lat="43.56391" lon="6.19582">
        <ele>277.2</ele>
        <time>2025-06-19T22:36:16Z</time>
      </trkpt>
      <trkpt lat="43.56389" lon="6.19605">
        <ele>279</ele>
        <time>2025-06-19T22:36:16Z</time>
      </trkpt>
      <trkpt lat="43.56387" lon="6.19626">
        <ele>281.8</ele>
        <time>2025-06-19T22:36:16Z</time>
      </trkpt>
      <trkpt lat="43.56384" lon="6.19648">
        <ele>284.8</ele>
        <time>2025-06-19T22:36:16Z</time>
      </trkpt>
      <trkpt lat="43.56379" lon="6.19662">
        <ele>286.9</ele>
        <time>2025-06-19T22:36:16Z</time>
      </trkpt>
      <trkpt lat="43.56377" lon="6.19665">
        <ele>287.2</ele>
        <time>2025-06-19T22:36:16Z</time>
      </trkpt>
      <trkpt lat="43.56375" lon="6.19666">
        <ele>287.9</ele>
        <time>2025-06-19T22:36:16Z</time>
      </trkpt>
      <trkpt lat="43.56373" lon="6.19666">
        <ele>287.9</ele>
        <time>2025-06-19T22:36:16Z</time>
      </trkpt>
      <trkpt lat="43.5637" lon="6.19663">
        <ele>288.6</ele>
        <time>2025-06-19T22:36:16Z</time>
      </trkpt>
      <trkpt lat="43.56363" lon="6.19656">
        <ele>289.6</ele>
        <time>2025-06-19T22:36:16Z</time>
      </trkpt>
      <trkpt lat="43.56352" lon="6.19641">
        <ele>292.8</ele>
        <time>2025-06-19T22:36:16Z</time>
      </trkpt>
      <trkpt lat="43.56338" lon="6.1962">
        <ele>297</ele>
        <time>2025-06-19T22:36:16Z</time>
      </trkpt>
      <trkpt lat="43.56329" lon="6.19602">
        <ele>300.2</ele>
        <time>2025-06-19T22:36:16Z</time>
      </trkpt>
      <trkpt lat="43.56323" lon="6.19595">
        <ele>301.6</ele>
        <time>2025-06-19T22:36:16Z</time>
      </trkpt>
      <trkpt lat="43.56315" lon="6.1959">
        <ele>302.7</ele>
        <time>2025-06-19T22:36:16Z</time>
      </trkpt>
      <trkpt lat="43.56303" lon="6.19585">
        <ele>303.7</ele>
        <time>2025-06-19T22:36:16Z</time>
      </trkpt>
      <trkpt lat="43.56295" lon="6.19577">
        <ele>304.8</ele>
        <time>2025-06-19T22:36:16Z</time>
      </trkpt>
      <trkpt lat="43.56291" lon="6.19571">
        <ele>305.8</ele>
        <time>2025-06-19T22:36:16Z</time>
      </trkpt>
      <trkpt lat="43.56286" lon="6.19565">
        <ele>306.4</ele>
        <time>2025-06-19T22:36:16Z</time>
      </trkpt>
      <trkpt lat="43.56279" lon="6.19563">
        <ele>307.7</ele>
        <time>2025-06-19T22:36:16Z</time>
      </trkpt>
      <trkpt lat="43.56275" lon="6.19562">
        <ele>308.2</ele>
        <time>2025-06-19T22:36:16Z</time>
      </trkpt>
      <trkpt lat="43.56269" lon="6.1956">
        <ele>308.3</ele>
        <time>2025-06-19T22:36:16Z</time>
      </trkpt>
      <trkpt lat="43.56252" lon="6.19555">
        <ele>311</ele>
        <time>2025-06-19T22:36:16Z</time>
      </trkpt>
      <trkpt lat="43.56237" lon="6.19547">
        <ele>313.9</ele>
        <time>2025-06-19T22:36:16Z</time>
      </trkpt>
      <trkpt lat="43.56219" lon="6.19532">
        <ele>316.5</ele>
        <time>2025-06-19T22:36:16Z</time>
      </trkpt>
      <trkpt lat="43.56217" lon="6.19531">
        <ele>316.5</ele>
        <time>2025-06-19T22:36:16Z</time>
      </trkpt>
      <trkpt lat="43.56216" lon="6.1953">
        <ele>316.8</ele>
        <time>2025-06-19T22:36:16Z</time>
      </trkpt>
      <trkpt lat="43.56213" lon="6.19528">
        <ele>316.8</ele>
        <time>2025-06-19T22:36:16Z</time>
      </trkpt>
      <trkpt lat="43.56211" lon="6.19526">
        <ele>317.9</ele>
        <time>2025-06-19T22:36:16Z</time>
      </trkpt>
      <trkpt lat="43.5621" lon="6.19524">
        <ele>317.6</ele>
        <time>2025-06-19T22:36:16Z</time>
      </trkpt>
      <trkpt lat="43.56208" lon="6.19523">
        <ele>317.6</ele>
        <time>2025-06-19T22:36:16Z</time>
      </trkpt>
      <trkpt lat="43.56206" lon="6.19521">
        <ele>318.2</ele>
        <time>2025-06-19T22:36:16Z</time>
      </trkpt>
      <trkpt lat="43.56205" lon="6.19518">
        <ele>318.2</ele>
        <time>2025-06-19T22:36:16Z</time>
      </trkpt>
      <trkpt lat="43.56203" lon="6.19516">
        <ele>319</ele>
        <time>2025-06-19T22:36:16Z</time>
      </trkpt>
      <trkpt lat="43.56202" lon="6.19514">
        <ele>319</ele>
        <time>2025-06-19T22:36:16Z</time>
      </trkpt>
      <trkpt lat="43.562" lon="6.19512">
        <ele>319.3</ele>
        <time>2025-06-19T22:36:16Z</time>
      </trkpt>
      <trkpt lat="43.56199" lon="6.1951">
        <ele>319.7</ele>
        <time>2025-06-19T22:36:16Z</time>
      </trkpt>
      <trkpt lat="43.56197" lon="6.19508">
        <ele>320.1</ele>
        <time>2025-06-19T22:36:16Z</time>
      </trkpt>
      <trkpt lat="43.56196" lon="6.19506">
        <ele>320.1</ele>
        <time>2025-06-19T22:36:16Z</time>
      </trkpt>
      <trkpt lat="43.56193" lon="6.19503">
        <ele>320.9</ele>
        <time>2025-06-19T22:36:16Z</time>
      </trkpt>
      <trkpt lat="43.56191" lon="6.19502">
        <ele>320.9</ele>
        <time>2025-06-19T22:36:16Z</time>
      </trkpt>
      <trkpt lat="43.56189" lon="6.19501">
        <ele>321.4</ele>
        <time>2025-06-19T22:36:16Z</time>
      </trkpt>
      <trkpt lat="43.56187" lon="6.19499">
        <ele>321.8</ele>
        <time>2025-06-19T22:36:16Z</time>
      </trkpt>
      <trkpt lat="43.56185" lon="6.19498">
        <ele>322.4</ele>
        <time>2025-06-19T22:36:16Z</time>
      </trkpt>
      <trkpt lat="43.56184" lon="6.19496">
        <ele>322.4</ele>
        <time>2025-06-19T22:36:16Z</time>
      </trkpt>
      <trkpt lat="43.56182" lon="6.19495">
        <ele>323.4</ele>
        <time>2025-06-19T22:36:16Z</time>
      </trkpt>
      <trkpt lat="43.56179" lon="6.19495">
        <ele>323.4</ele>
        <time>2025-06-19T22:36:16Z</time>
      </trkpt>
      <trkpt lat="43.56176" lon="6.19495">
        <ele>324.2</ele>
        <time>2025-06-19T22:36:16Z</time>
      </trkpt>
      <trkpt lat="43.56173" lon="6.19495">
        <ele>324.8</ele>
        <time>2025-06-19T22:36:16Z</time>
      </trkpt>
      <trkpt lat="43.56171" lon="6.19497">
        <ele>325.2</ele>
        <time>2025-06-19T22:36:16Z</time>
      </trkpt>
      <trkpt lat="43.56168" lon="6.19498">
        <ele>326</ele>
        <time>2025-06-19T22:36:16Z</time>
      </trkpt>
      <trkpt lat="43.56165" lon="6.19499">
        <ele>326</ele>
        <time>2025-06-19T22:36:16Z</time>
      </trkpt>
      <trkpt lat="43.56162" lon="6.19501">
        <ele>327.2</ele>
        <time>2025-06-19T22:36:16Z</time>
      </trkpt>
      <trkpt lat="43.56159" lon="6.19503">
        <ele>327.9</ele>
        <time>2025-06-19T22:36:16Z</time>
      </trkpt>
      <trkpt lat="43.56157" lon="6.19505">
        <ele>328.6</ele>
        <time>2025-06-19T22:36:16Z</time>
      </trkpt>
      <trkpt lat="43.56155" lon="6.19508">
        <ele>328.9</ele>
        <time>2025-06-19T22:36:16Z</time>
      </trkpt>
      <trkpt lat="43.56153" lon="6.19512">
        <ele>329.6</ele>
        <time>2025-06-19T22:36:16Z</time>
      </trkpt>
      <trkpt lat="43.56152" lon="6.19516">
        <ele>330.3</ele>
        <time>2025-06-19T22:36:16Z</time>
      </trkpt>
      <trkpt lat="43.56152" lon="6.19519">
        <ele>330.7</ele>
        <time>2025-06-19T22:36:16Z</time>
      </trkpt>
      <trkpt lat="43.56152" lon="6.19523">
        <ele>331.1</ele>
        <time>2025-06-19T22:36:16Z</time>
      </trkpt>
      <trkpt lat="43.56152" lon="6.19526">
        <ele>331.5</ele>
        <time>2025-06-19T22:36:16Z</time>
      </trkpt>
      <trkpt lat="43.56154" lon="6.19526">
        <ele>331.6</ele>
        <time>2025-06-19T22:36:16Z</time>
      </trkpt>
      <trkpt lat="43.56156" lon="6.19525">
        <ele>331.3</ele>
        <time>2025-06-19T22:36:16Z</time>
      </trkpt>
      <trkpt lat="43.56157" lon="6.19525">
        <ele>332.3</ele>
        <time>2025-06-19T22:36:16Z</time>
      </trkpt>
      <trkpt lat="43.56159" lon="6.19525">
        <ele>332.3</ele>
        <time>2025-06-19T22:36:16Z</time>
      </trkpt>
      <trkpt lat="43.56161" lon="6.19525">
        <ele>332.9</ele>
        <time>2025-06-19T22:36:16Z</time>
      </trkpt>
      <trkpt lat="43.56164" lon="6.19526">
        <ele>333.4</ele>
        <time>2025-06-19T22:36:16Z</time>
      </trkpt>
      <trkpt lat="43.56166" lon="6.19527">
        <ele>333.2</ele>
        <time>2025-06-19T22:36:16Z</time>
      </trkpt>
      <trkpt lat="43.56168" lon="6.19529">
        <ele>333.2</ele>
        <time>2025-06-19T22:36:16Z</time>
      </trkpt>
      <trkpt lat="43.5617" lon="6.19531">
        <ele>333.6</ele>
        <time>2025-06-19T22:36:16Z</time>
      </trkpt>
      <trkpt lat="43.56172" lon="6.19533">
        <ele>333.6</ele>
        <time>2025-06-19T22:36:16Z</time>
      </trkpt>
      <trkpt lat="43.56175" lon="6.19535">
        <ele>334</ele>
        <time>2025-06-19T22:36:16Z</time>
      </trkpt>
      <trkpt lat="43.56175" lon="6.19538">
        <ele>334</ele>
        <time>2025-06-19T22:36:16Z</time>
      </trkpt>
      <trkpt lat="43.56176" lon="6.19541">
        <ele>335.1</ele>
        <time>2025-06-19T22:36:16Z</time>
      </trkpt>
      <trkpt lat="43.56178" lon="6.19544">
        <ele>335.6</ele>
        <time>2025-06-19T22:36:16Z</time>
      </trkpt>
      <trkpt lat="43.56178" lon="6.19546">
        <ele>335.6</ele>
        <time>2025-06-19T22:36:16Z</time>
      </trkpt>
      <trkpt lat="43.5618" lon="6.19549">
        <ele>336.9</ele>
        <time>2025-06-19T22:36:16Z</time>
      </trkpt>
      <trkpt lat="43.56182" lon="6.19551">
        <ele>336.9</ele>
        <time>2025-06-19T22:36:16Z</time>
      </trkpt>
      <trkpt lat="43.56184" lon="6.19553">
        <ele>337.3</ele>
        <time>2025-06-19T22:36:16Z</time>
      </trkpt>
      <trkpt lat="43.56185" lon="6.19555">
        <ele>337.3</ele>
        <time>2025-06-19T22:36:16Z</time>
      </trkpt>
      <trkpt lat="43.56187" lon="6.19559">
        <ele>336.6</ele>
        <time>2025-06-19T22:36:16Z</time>
      </trkpt>
      <trkpt lat="43.56187" lon="6.1956">
        <ele>336.6</ele>
        <time>2025-06-19T22:36:16Z</time>
      </trkpt>
      <trkpt lat="43.56187" lon="6.19564">
        <ele>337.5</ele>
        <time>2025-06-19T22:36:16Z</time>
      </trkpt>
      <trkpt lat="43.56188" lon="6.19568">
        <ele>338.2</ele>
        <time>2025-06-19T22:36:16Z</time>
      </trkpt>
      <trkpt lat="43.56188" lon="6.19571">
        <ele>338.6</ele>
        <time>2025-06-19T22:36:16Z</time>
      </trkpt>
      <trkpt lat="43.56188" lon="6.19573">
        <ele>338.6</ele>
        <time>2025-06-19T22:36:16Z</time>
      </trkpt>
      <trkpt lat="43.56188" lon="6.19575">
        <ele>339.2</ele>
        <time>2025-06-19T22:36:16Z</time>
      </trkpt>
      <trkpt lat="43.56189" lon="6.19576">
        <ele>339.2</ele>
        <time>2025-06-19T22:36:16Z</time>
      </trkpt>
      <trkpt lat="43.56189" lon="6.19578">
        <ele>340</ele>
        <time>2025-06-19T22:36:16Z</time>
      </trkpt>
      <trkpt lat="43.56189" lon="6.19579">
        <ele>340</ele>
        <time>2025-06-19T22:36:16Z</time>
      </trkpt>
      <trkpt lat="43.56189" lon="6.19581">
        <ele>340</ele>
        <time>2025-06-19T22:36:16Z</time>
      </trkpt>
      <trkpt lat="43.56188" lon="6.19583">
        <ele>340.3</ele>
        <time>2025-06-19T22:36:16Z</time>
      </trkpt>
      <trkpt lat="43.56187" lon="6.19584">
        <ele>340.3</ele>
        <time>2025-06-19T22:36:16Z</time>
      </trkpt>
      <trkpt lat="43.56187" lon="6.19586">
        <ele>340.6</ele>
        <time>2025-06-19T22:36:16Z</time>
      </trkpt>
      <trkpt lat="43.56186" lon="6.19587">
        <ele>339.4</ele>
        <time>2025-06-19T22:36:16Z</time>
      </trkpt>
      <trkpt lat="43.56185" lon="6.19586">
        <ele>339.4</ele>
        <time>2025-06-19T22:36:16Z</time>
      </trkpt>
      <trkpt lat="43.56183" lon="6.19584">
        <ele>340</ele>
        <time>2025-06-19T22:36:16Z</time>
      </trkpt>
      <trkpt lat="43.56182" lon="6.19583">
        <ele>338.7</ele>
        <time>2025-06-19T22:36:16Z</time>
      </trkpt>
      <trkpt lat="43.56181" lon="6.19585">
        <ele>338.7</ele>
        <time>2025-06-19T22:36:16Z</time>
      </trkpt>
      <trkpt lat="43.56181" lon="6.19586">
        <ele>338</ele>
        <time>2025-06-19T22:36:16Z</time>
      </trkpt>
      <trkpt lat="43.56182" lon="6.19587">
        <ele>338</ele>
        <time>2025-06-19T22:36:16Z</time>
      </trkpt>
      <trkpt lat="43.56181" lon="6.19591">
        <ele>337.4</ele>
        <time>2025-06-19T22:36:16Z</time>
      </trkpt>
      <trkpt lat="43.5618" lon="6.19592">
        <ele>337.4</ele>
        <time>2025-06-19T22:36:16Z</time>
      </trkpt>
      <trkpt lat="43.56179" lon="6.19595">
        <ele>336.5</ele>
        <time>2025-06-19T22:36:16Z</time>
      </trkpt>
      <trkpt lat="43.56179" lon="6.19598">
        <ele>336.5</ele>
        <time>2025-06-19T22:36:16Z</time>
      </trkpt>
      <trkpt lat="43.5618" lon="6.196">
        <ele>335.8</ele>
        <time>2025-06-19T22:36:16Z</time>
      </trkpt>
      <trkpt lat="43.56181" lon="6.19603">
        <ele>335.8</ele>
        <time>2025-06-19T22:36:16Z</time>
      </trkpt>
      <trkpt lat="43.56182" lon="6.19604">
        <ele>335.3</ele>
        <time>2025-06-19T22:36:16Z</time>
      </trkpt>
      <trkpt lat="43.56182" lon="6.19606">
        <ele>335.3</ele>
        <time>2025-06-19T22:36:16Z</time>
      </trkpt>
      <trkpt lat="43.56183" lon="6.19607">
        <ele>336.5</ele>
        <time>2025-06-19T22:36:16Z</time>
      </trkpt>
      <trkpt lat="43.56183" lon="6.19608">
        <ele>335.9</ele>
        <time>2025-06-19T22:36:16Z</time>
      </trkpt>
      <trkpt lat="43.56184" lon="6.1961">
        <ele>335.9</ele>
        <time>2025-06-19T22:36:16Z</time>
      </trkpt>
      <trkpt lat="43.56183" lon="6.19612">
        <ele>335.3</ele>
        <time>2025-06-19T22:36:16Z</time>
      </trkpt>
      <trkpt lat="43.56181" lon="6.19613">
        <ele>334.7</ele>
        <time>2025-06-19T22:36:16Z</time>
      </trkpt>
      <trkpt lat="43.56182" lon="6.19618">
        <ele>334.6</ele>
        <time>2025-06-19T22:36:16Z</time>
      </trkpt>
      <trkpt lat="43.56187" lon="6.19645">
        <ele>332.1</ele>
        <time>2025-06-19T22:36:16Z</time>
      </trkpt>
      <trkpt lat="43.5619" lon="6.19665">
        <ele>329.5</ele>
        <time>2025-06-19T22:36:16Z</time>
      </trkpt>
      <trkpt lat="43.5619" lon="6.1968">
        <ele>328.4</ele>
        <time>2025-06-19T22:36:16Z</time>
      </trkpt>
      <trkpt lat="43.56192" lon="6.19704">
        <ele>325.8</ele>
        <time>2025-06-19T22:36:16Z</time>
      </trkpt>
      <trkpt lat="43.56192" lon="6.19715">
        <ele>324.5</ele>
        <time>2025-06-19T22:36:16Z</time>
      </trkpt>
      <trkpt lat="43.5619" lon="6.19722">
        <ele>324.2</ele>
        <time>2025-06-19T22:36:16Z</time>
      </trkpt>
      <trkpt lat="43.56189" lon="6.19729">
        <ele>323.8</ele>
        <time>2025-06-19T22:36:16Z</time>
      </trkpt>
      <trkpt lat="43.56181" lon="6.19746">
        <ele>323.7</ele>
        <time>2025-06-19T22:36:16Z</time>
      </trkpt>
      <trkpt lat="43.56172" lon="6.19763">
        <ele>324</ele>
        <time>2025-06-19T22:36:16Z</time>
      </trkpt>
      <trkpt lat="43.56168" lon="6.19771">
        <ele>324.6</ele>
        <time>2025-06-19T22:36:16Z</time>
      </trkpt>
      <trkpt lat="43.56167" lon="6.19778">
        <ele>324.9</ele>
        <time>2025-06-19T22:36:16Z</time>
      </trkpt>
      <trkpt lat="43.56167" lon="6.19782">
        <ele>325.3</ele>
        <time>2025-06-19T22:36:16Z</time>
      </trkpt>
      <trkpt lat="43.56167" lon="6.19791">
        <ele>326.4</ele>
        <time>2025-06-19T22:36:16Z</time>
      </trkpt>
      <trkpt lat="43.5617" lon="6.19807">
        <ele>328.1</ele>
        <time>2025-06-19T22:36:16Z</time>
      </trkpt>
      <trkpt lat="43.56171" lon="6.19814">
        <ele>329.4</ele>
        <time>2025-06-19T22:36:16Z</time>
      </trkpt>
      <trkpt lat="43.56171" lon="6.19818">
        <ele>329.8</ele>
        <time>2025-06-19T22:36:16Z</time>
      </trkpt>
      <trkpt lat="43.56171" lon="6.19824">
        <ele>330.2</ele>
        <time>2025-06-19T22:36:16Z</time>
      </trkpt>
      <trkpt lat="43.56169" lon="6.19826">
        <ele>330.7</ele>
        <time>2025-06-19T22:36:16Z</time>
      </trkpt>
      <trkpt lat="43.56167" lon="6.19826">
        <ele>330.7</ele>
        <time>2025-06-19T22:36:16Z</time>
      </trkpt>
      <trkpt lat="43.56165" lon="6.19825">
        <ele>330.7</ele>
        <time>2025-06-19T22:36:16Z</time>
      </trkpt>
      <trkpt lat="43.56163" lon="6.19822">
        <ele>331.4</ele>
        <time>2025-06-19T22:36:16Z</time>
      </trkpt>
      <trkpt lat="43.56161" lon="6.19819">
        <ele>331.4</ele>
        <time>2025-06-19T22:36:16Z</time>
      </trkpt>
      <trkpt lat="43.56159" lon="6.19815">
        <ele>332.5</ele>
        <time>2025-06-19T22:36:16Z</time>
      </trkpt>
      <trkpt lat="43.56157" lon="6.1981">
        <ele>332.6</ele>
        <time>2025-06-19T22:36:16Z</time>
      </trkpt>
      <trkpt lat="43.56152" lon="6.19793">
        <ele>334.7</ele>
        <time>2025-06-19T22:36:16Z</time>
      </trkpt>
      <trkpt lat="43.56146" lon="6.19785">
        <ele>335.2</ele>
        <time>2025-06-19T22:36:16Z</time>
      </trkpt>
      <trkpt lat="43.56141" lon="6.1978">
        <ele>335.6</ele>
        <time>2025-06-19T22:36:16Z</time>
      </trkpt>
      <trkpt lat="43.56132" lon="6.19777">
        <ele>336.1</ele>
        <time>2025-06-19T22:36:16Z</time>
      </trkpt>
      <trkpt lat="43.56127" lon="6.19776">
        <ele>336.5</ele>
        <time>2025-06-19T22:36:16Z</time>
      </trkpt>
      <trkpt lat="43.56119" lon="6.19774">
        <ele>337</ele>
        <time>2025-06-19T22:36:16Z</time>
      </trkpt>
      <trkpt lat="43.56108" lon="6.19771">
        <ele>338.1</ele>
        <time>2025-06-19T22:36:16Z</time>
      </trkpt>
      <trkpt lat="43.56095" lon="6.19766">
        <ele>338.5</ele>
        <time>2025-06-19T22:36:16Z</time>
      </trkpt>
      <trkpt lat="43.56091" lon="6.19764">
        <ele>338.9</ele>
        <time>2025-06-19T22:36:16Z</time>
      </trkpt>
      <trkpt lat="43.56078" lon="6.19755">
        <ele>339.8</ele>
        <time>2025-06-19T22:36:16Z</time>
      </trkpt>
      <trkpt lat="43.56064" lon="6.19743">
        <ele>341.3</ele>
        <time>2025-06-19T22:36:16Z</time>
      </trkpt>
      <trkpt lat="43.56054" lon="6.19739">
        <ele>342.3</ele>
        <time>2025-06-19T22:36:16Z</time>
      </trkpt>
      <trkpt lat="43.56052" lon="6.19739">
        <ele>342.7</ele>
        <time>2025-06-19T22:36:16Z</time>
      </trkpt>
      <trkpt lat="43.56029" lon="6.19737">
        <ele>345.6</ele>
        <time>2025-06-19T22:36:16Z</time>
      </trkpt>
      <trkpt lat="43.56018" lon="6.19735">
        <ele>346.6</ele>
        <time>2025-06-19T22:36:16Z</time>
      </trkpt>
      <trkpt lat="43.56003" lon="6.19732">
        <ele>347.4</ele>
        <time>2025-06-19T22:36:16Z</time>
      </trkpt>
      <trkpt lat="43.55997" lon="6.1973">
        <ele>347.8</ele>
        <time>2025-06-19T22:36:16Z</time>
      </trkpt>
      <trkpt lat="43.55993" lon="6.19725">
        <ele>348.3</ele>
        <time>2025-06-19T22:36:16Z</time>
      </trkpt>
      <trkpt lat="43.55977" lon="6.19701">
        <ele>349.4</ele>
        <time>2025-06-19T22:36:16Z</time>
      </trkpt>
      <trkpt lat="43.55967" lon="6.19686">
        <ele>351.3</ele>
        <time>2025-06-19T22:36:16Z</time>
      </trkpt>
      <trkpt lat="43.5595" lon="6.19666">
        <ele>354.9</ele>
        <time>2025-06-19T22:36:16Z</time>
      </trkpt>
      <trkpt lat="43.55929" lon="6.19644">
        <ele>358.6</ele>
        <time>2025-06-19T22:36:16Z</time>
      </trkpt>
      <trkpt lat="43.55911" lon="6.19623">
        <ele>363.4</ele>
        <time>2025-06-19T22:36:16Z</time>
      </trkpt>
      <trkpt lat="43.55898" lon="6.19611">
        <ele>365.7</ele>
        <time>2025-06-19T22:36:16Z</time>
      </trkpt>
      <trkpt lat="43.55894" lon="6.19609">
        <ele>366.4</ele>
        <time>2025-06-19T22:36:16Z</time>
      </trkpt>
      <trkpt lat="43.55891" lon="6.19612">
        <ele>366.7</ele>
        <time>2025-06-19T22:36:16Z</time>
      </trkpt>
      <trkpt lat="43.55891" lon="6.19617">
        <ele>367.1</ele>
        <time>2025-06-19T22:36:16Z</time>
      </trkpt>
      <trkpt lat="43.559" lon="6.19639">
        <ele>368.2</ele>
        <time>2025-06-19T22:36:16Z</time>
      </trkpt>
      <trkpt lat="43.55906" lon="6.19679">
        <ele>371.4</ele>
        <time>2025-06-19T22:36:16Z</time>
      </trkpt>
      <trkpt lat="43.55922" lon="6.19707">
        <ele>373.4</ele>
        <time>2025-06-19T22:36:16Z</time>
      </trkpt>
      <trkpt lat="43.55923" lon="6.19714">
        <ele>373.8</ele>
        <time>2025-06-19T22:36:16Z</time>
      </trkpt>
      <trkpt lat="43.55921" lon="6.19715">
        <ele>374.2</ele>
        <time>2025-06-19T22:36:16Z</time>
      </trkpt>
      <trkpt lat="43.55917" lon="6.19714">
        <ele>374.1</ele>
        <time>2025-06-19T22:36:16Z</time>
      </trkpt>
      <trkpt lat="43.55896" lon="6.19687">
        <ele>377.8</ele>
        <time>2025-06-19T22:36:16Z</time>
      </trkpt>
      <trkpt lat="43.55886" lon="6.19678">
        <ele>379.4</ele>
        <time>2025-06-19T22:36:16Z</time>
      </trkpt>
      <trkpt lat="43.55876" lon="6.19666">
        <ele>381.7</ele>
        <time>2025-06-19T22:36:16Z</time>
      </trkpt>
      <trkpt lat="43.55862" lon="6.1965">
        <ele>384.1</ele>
        <time>2025-06-19T22:36:16Z</time>
      </trkpt>
      <trkpt lat="43.55854" lon="6.19637">
        <ele>385.8</ele>
        <time>2025-06-19T22:36:16Z</time>
      </trkpt>
      <trkpt lat="43.55842" lon="6.19625">
        <ele>387.9</ele>
        <time>2025-06-19T22:36:16Z</time>
      </trkpt>
      <trkpt lat="43.55832" lon="6.19615">
        <ele>388.5</ele>
        <time>2025-06-19T22:36:16Z</time>
      </trkpt>
      <trkpt lat="43.55816" lon="6.19606">
        <ele>391</ele>
        <time>2025-06-19T22:36:16Z</time>
      </trkpt>
      <trkpt lat="43.55804" lon="6.19599">
        <ele>394.5</ele>
        <time>2025-06-19T22:36:16Z</time>
      </trkpt>
      <trkpt lat="43.55792" lon="6.1959">
        <ele>394.7</ele>
        <time>2025-06-19T22:36:16Z</time>
      </trkpt>
      <trkpt lat="43.55782" lon="6.19577">
        <ele>396.7</ele>
        <time>2025-06-19T22:36:16Z</time>
      </trkpt>
      <trkpt lat="43.55774" lon="6.19562">
        <ele>398.1</ele>
        <time>2025-06-19T22:36:16Z</time>
      </trkpt>
      <trkpt lat="43.55762" lon="6.19539">
        <ele>398.4</ele>
        <time>2025-06-19T22:36:16Z</time>
      </trkpt>
      <trkpt lat="43.55745" lon="6.19517">
        <ele>399.3</ele>
        <time>2025-06-19T22:36:16Z</time>
      </trkpt>
      <trkpt lat="43.55743" lon="6.19509">
        <ele>400</ele>
        <time>2025-06-19T22:36:16Z</time>
      </trkpt>
      <trkpt lat="43.55743" lon="6.195">
        <ele>400.3</ele>
        <time>2025-06-19T22:36:16Z</time>
      </trkpt>
      <trkpt lat="43.55746" lon="6.19467">
        <ele>401.9</ele>
        <time>2025-06-19T22:36:16Z</time>
      </trkpt>
      <trkpt lat="43.55745" lon="6.19443">
        <ele>403.3</ele>
        <time>2025-06-19T22:36:16Z</time>
      </trkpt>
      <trkpt lat="43.55742" lon="6.19417">
        <ele>405.1</ele>
        <time>2025-06-19T22:36:16Z</time>
      </trkpt>
      <trkpt lat="43.55739" lon="6.19397">
        <ele>406.9</ele>
        <time>2025-06-19T22:36:16Z</time>
      </trkpt>
      <trkpt lat="43.55731" lon="6.19368">
        <ele>410.5</ele>
        <time>2025-06-19T22:36:16Z</time>
      </trkpt>
      <trkpt lat="43.55721" lon="6.19341">
        <ele>412.8</ele>
        <time>2025-06-19T22:36:16Z</time>
      </trkpt>
      <trkpt lat="43.55712" lon="6.1932">
        <ele>414.1</ele>
        <time>2025-06-19T22:36:16Z</time>
      </trkpt>
      <trkpt lat="43.55707" lon="6.19312">
        <ele>414.5</ele>
        <time>2025-06-19T22:36:16Z</time>
      </trkpt>
      <trkpt lat="43.55706" lon="6.19309">
        <ele>414.6</ele>
        <time>2025-06-19T22:36:16Z</time>
      </trkpt>
      <trkpt lat="43.55702" lon="6.19305">
        <ele>414.7</ele>
        <time>2025-06-19T22:36:16Z</time>
      </trkpt>
      <trkpt lat="43.55698" lon="6.19303">
        <ele>414.5</ele>
        <time>2025-06-19T22:36:16Z</time>
      </trkpt>
      <trkpt lat="43.55702" lon="6.19297">
        <ele>415</ele>
        <time>2025-06-19T22:36:16Z</time>
      </trkpt>
      <trkpt lat="43.55705" lon="6.1929">
        <ele>415.2</ele>
        <time>2025-06-19T22:36:16Z</time>
      </trkpt>
      <trkpt lat="43.55706" lon="6.19278">
        <ele>415.5</ele>
        <time>2025-06-19T22:36:16Z</time>
      </trkpt>
      <trkpt lat="43.55706" lon="6.19269">
        <ele>415.8</ele>
        <time>2025-06-19T22:36:16Z</time>
      </trkpt>
      <trkpt lat="43.55707" lon="6.19261">
        <ele>416</ele>
        <time>2025-06-19T22:36:16Z</time>
      </trkpt>
      <trkpt lat="43.55706" lon="6.19252">
        <ele>416.6</ele>
        <time>2025-06-19T22:36:16Z</time>
      </trkpt>
      <trkpt lat="43.55703" lon="6.1924">
        <ele>417.4</ele>
        <time>2025-06-19T22:36:16Z</time>
      </trkpt>
      <trkpt lat="43.55703" lon="6.19225">
        <ele>418.2</ele>
        <time>2025-06-19T22:36:16Z</time>
      </trkpt>
      <trkpt lat="43.55703" lon="6.19223">
        <ele>418.2</ele>
        <time>2025-06-19T22:36:16Z</time>
      </trkpt>
      <trkpt lat="43.55706" lon="6.19215">
        <ele>418.2</ele>
        <time>2025-06-19T22:36:16Z</time>
      </trkpt>
      <trkpt lat="43.5571" lon="6.19206">
        <ele>418.5</ele>
        <time>2025-06-19T22:36:16Z</time>
      </trkpt>
      <trkpt lat="43.55709" lon="6.19198">
        <ele>418.9</ele>
        <time>2025-06-19T22:36:16Z</time>
      </trkpt>
      <trkpt lat="43.55706" lon="6.19189">
        <ele>419.3</ele>
        <time>2025-06-19T22:36:16Z</time>
      </trkpt>
      <trkpt lat="43.55691" lon="6.19162">
        <ele>419.5</ele>
        <time>2025-06-19T22:36:16Z</time>
      </trkpt>
      <trkpt lat="43.55689" lon="6.19155">
        <ele>419.8</ele>
        <time>2025-06-19T22:36:16Z</time>
      </trkpt>
      <trkpt lat="43.55691" lon="6.19147">
        <ele>420.2</ele>
        <time>2025-06-19T22:36:16Z</time>
      </trkpt>
      <trkpt lat="43.55693" lon="6.19141">
        <ele>420.3</ele>
        <time>2025-06-19T22:36:16Z</time>
      </trkpt>
      <trkpt lat="43.55699" lon="6.19125">
        <ele>421.6</ele>
        <time>2025-06-19T22:36:16Z</time>
      </trkpt>
      <trkpt lat="43.55705" lon="6.19111">
        <ele>422.9</ele>
        <time>2025-06-19T22:36:16Z</time>
      </trkpt>
      <trkpt lat="43.55715" lon="6.19103">
        <ele>423.4</ele>
        <time>2025-06-19T22:36:16Z</time>
      </trkpt>
      <trkpt lat="43.55716" lon="6.19099">
        <ele>423.7</ele>
        <time>2025-06-19T22:36:16Z</time>
      </trkpt>
      <trkpt lat="43.55717" lon="6.19095">
        <ele>424</ele>
        <time>2025-06-19T22:36:16Z</time>
      </trkpt>
      <trkpt lat="43.55717" lon="6.19088">
        <ele>424.4</ele>
        <time>2025-06-19T22:36:16Z</time>
      </trkpt>
      <trkpt lat="43.55712" lon="6.19077">
        <ele>425.6</ele>
        <time>2025-06-19T22:36:16Z</time>
      </trkpt>
      <trkpt lat="43.55708" lon="6.19069">
        <ele>426.4</ele>
        <time>2025-06-19T22:36:16Z</time>
      </trkpt>
      <trkpt lat="43.55709" lon="6.19054">
        <ele>427.1</ele>
        <time>2025-06-19T22:36:16Z</time>
      </trkpt>
      <trkpt lat="43.55708" lon="6.19044">
        <ele>428.1</ele>
        <time>2025-06-19T22:36:16Z</time>
      </trkpt>
      <trkpt lat="43.55705" lon="6.19034">
        <ele>429</ele>
        <time>2025-06-19T22:36:16Z</time>
      </trkpt>
      <trkpt lat="43.55706" lon="6.19024">
        <ele>429.8</ele>
        <time>2025-06-19T22:36:16Z</time>
      </trkpt>
      <trkpt lat="43.55721" lon="6.1899">
        <ele>433.7</ele>
        <time>2025-06-19T22:36:16Z</time>
      </trkpt>
      <trkpt lat="43.55724" lon="6.18979">
        <ele>434.4</ele>
        <time>2025-06-19T22:36:16Z</time>
      </trkpt>
      <trkpt lat="43.55728" lon="6.1897">
        <ele>435.6</ele>
        <time>2025-06-19T22:36:16Z</time>
      </trkpt>
      <trkpt lat="43.5573" lon="6.18959">
        <ele>437.2</ele>
        <time>2025-06-19T22:36:16Z</time>
      </trkpt>
      <trkpt lat="43.5573" lon="6.18948">
        <ele>437.9</ele>
        <time>2025-06-19T22:36:16Z</time>
      </trkpt>
      <trkpt lat="43.55726" lon="6.18938">
        <ele>438.8</ele>
        <time>2025-06-19T22:36:16Z</time>
      </trkpt>
      <trkpt lat="43.55725" lon="6.18924">
        <ele>440.3</ele>
        <time>2025-06-19T22:36:16Z</time>
      </trkpt>
      <trkpt lat="43.55729" lon="6.18893">
        <ele>442.6</ele>
        <time>2025-06-19T22:36:16Z</time>
      </trkpt>
      <trkpt lat="43.55731" lon="6.18879">
        <ele>442.7</ele>
        <time>2025-06-19T22:36:16Z</time>
      </trkpt>
      <trkpt lat="43.55735" lon="6.18848">
        <ele>442.9</ele>
        <time>2025-06-19T22:36:16Z</time>
      </trkpt>
      <trkpt lat="43.55735" lon="6.18834">
        <ele>443</ele>
        <time>2025-06-19T22:36:16Z</time>
      </trkpt>
      <trkpt lat="43.55721" lon="6.18773">
        <ele>443.4</ele>
        <time>2025-06-19T22:36:16Z</time>
      </trkpt>
      <trkpt lat="43.55717" lon="6.18748">
        <ele>443.1</ele>
        <time>2025-06-19T22:36:16Z</time>
      </trkpt>
      <trkpt lat="43.55719" lon="6.18713">
        <ele>443.2</ele>
        <time>2025-06-19T22:36:16Z</time>
      </trkpt>
      <trkpt lat="43.5572" lon="6.18672">
        <ele>442</ele>
        <time>2025-06-19T22:36:16Z</time>
      </trkpt>
      <trkpt lat="43.55719" lon="6.18655">
        <ele>441</ele>
        <time>2025-06-19T22:36:16Z</time>
      </trkpt>
      <trkpt lat="43.55718" lon="6.18639">
        <ele>439.9</ele>
        <time>2025-06-19T22:36:16Z</time>
      </trkpt>
      <trkpt lat="43.5572" lon="6.18625">
        <ele>438.9</ele>
        <time>2025-06-19T22:36:16Z</time>
      </trkpt>
      <trkpt lat="43.55719" lon="6.18608">
        <ele>438.1</ele>
        <time>2025-06-19T22:36:16Z</time>
      </trkpt>
      <trkpt lat="43.55717" lon="6.18595">
        <ele>437</ele>
        <time>2025-06-19T22:36:16Z</time>
      </trkpt>
      <trkpt lat="43.55706" lon="6.18559">
        <ele>435.6</ele>
        <time>2025-06-19T22:36:16Z</time>
      </trkpt>
      <trkpt lat="43.55702" lon="6.18541">
        <ele>435.1</ele>
        <time>2025-06-19T22:36:16Z</time>
      </trkpt>
      <trkpt lat="43.55695" lon="6.18524">
        <ele>435.2</ele>
        <time>2025-06-19T22:36:16Z</time>
      </trkpt>
      <trkpt lat="43.5569" lon="6.18516">
        <ele>435.5</ele>
        <time>2025-06-19T22:36:16Z</time>
      </trkpt>
      <trkpt lat="43.55686" lon="6.18505">
        <ele>435.8</ele>
        <time>2025-06-19T22:36:16Z</time>
      </trkpt>
      <trkpt lat="43.55685" lon="6.18491">
        <ele>435.9</ele>
        <time>2025-06-19T22:36:16Z</time>
      </trkpt>
      <trkpt lat="43.55686" lon="6.18478">
        <ele>436</ele>
        <time>2025-06-19T22:36:16Z</time>
      </trkpt>
      <trkpt lat="43.55694" lon="6.18457">
        <ele>435.4</ele>
        <time>2025-06-19T22:36:16Z</time>
      </trkpt>
      <trkpt lat="43.55695" lon="6.18446">
        <ele>435.3</ele>
        <time>2025-06-19T22:36:16Z</time>
      </trkpt>
      <trkpt lat="43.55697" lon="6.18414">
        <ele>434.2</ele>
        <time>2025-06-19T22:36:16Z</time>
      </trkpt>
      <trkpt lat="43.55699" lon="6.18396">
        <ele>433.5</ele>
        <time>2025-06-19T22:36:16Z</time>
      </trkpt>
      <trkpt lat="43.55701" lon="6.18357">
        <ele>432.6</ele>
        <time>2025-06-19T22:36:16Z</time>
      </trkpt>
      <trkpt lat="43.55703" lon="6.1832">
        <ele>431.8</ele>
        <time>2025-06-19T22:36:16Z</time>
      </trkpt>
      <trkpt lat="43.55707" lon="6.18308">
        <ele>431.8</ele>
        <time>2025-06-19T22:36:16Z</time>
      </trkpt>
      <trkpt lat="43.55725" lon="6.18273">
        <ele>431.1</ele>
        <time>2025-06-19T22:36:16Z</time>
      </trkpt>
      <trkpt lat="43.55734" lon="6.18241">
        <ele>430.7</ele>
        <time>2025-06-19T22:36:16Z</time>
      </trkpt>
      <trkpt lat="43.55739" lon="6.18202">
        <ele>429.4</ele>
        <time>2025-06-19T22:36:16Z</time>
      </trkpt>
      <trkpt lat="43.55739" lon="6.18191">
        <ele>429</ele>
        <time>2025-06-19T22:36:16Z</time>
      </trkpt>
      <trkpt lat="43.55738" lon="6.18181">
        <ele>428.5</ele>
        <time>2025-06-19T22:36:16Z</time>
      </trkpt>
      <trkpt lat="43.55735" lon="6.18173">
        <ele>428.3</ele>
        <time>2025-06-19T22:36:16Z</time>
      </trkpt>
      <trkpt lat="43.55723" lon="6.18164">
        <ele>428.1</ele>
        <time>2025-06-19T22:36:16Z</time>
      </trkpt>
      <trkpt lat="43.55715" lon="6.1816">
        <ele>427.8</ele>
        <time>2025-06-19T22:36:16Z</time>
      </trkpt>
      <trkpt lat="43.55706" lon="6.18151">
        <ele>425.8</ele>
        <time>2025-06-19T22:36:16Z</time>
      </trkpt>
      <trkpt lat="43.55698" lon="6.18142">
        <ele>424.1</ele>
        <time>2025-06-19T22:36:16Z</time>
      </trkpt>
      <trkpt lat="43.55692" lon="6.18137">
        <ele>423</ele>
        <time>2025-06-19T22:36:16Z</time>
      </trkpt>
      <trkpt lat="43.55689" lon="6.18127">
        <ele>421.7</ele>
        <time>2025-06-19T22:36:16Z</time>
      </trkpt>
      <trkpt lat="43.55693" lon="6.18116">
        <ele>419.1</ele>
        <time>2025-06-19T22:36:16Z</time>
      </trkpt>
      <trkpt lat="43.55699" lon="6.18108">
        <ele>417.3</ele>
        <time>2025-06-19T22:36:16Z</time>
      </trkpt>
      <trkpt lat="43.55703" lon="6.18099">
        <ele>415.5</ele>
        <time>2025-06-19T22:36:16Z</time>
      </trkpt>
      <trkpt lat="43.55714" lon="6.18088">
        <ele>413.5</ele>
        <time>2025-06-19T22:36:16Z</time>
      </trkpt>
      <trkpt lat="43.5573" lon="6.1807">
        <ele>411.4</ele>
        <time>2025-06-19T22:36:16Z</time>
      </trkpt>
      <trkpt lat="43.55745" lon="6.18062">
        <ele>409.6</ele>
        <time>2025-06-19T22:36:16Z</time>
      </trkpt>
      <trkpt lat="43.55758" lon="6.1806">
        <ele>409.3</ele>
        <time>2025-06-19T22:36:16Z</time>
      </trkpt>
      <trkpt lat="43.55766" lon="6.18059">
        <ele>408.8</ele>
        <time>2025-06-19T22:36:16Z</time>
      </trkpt>
      <trkpt lat="43.55771" lon="6.18059">
        <ele>408.6</ele>
        <time>2025-06-19T22:36:16Z</time>
      </trkpt>
      <trkpt lat="43.55778" lon="6.1806">
        <ele>408.3</ele>
        <time>2025-06-19T22:36:16Z</time>
      </trkpt>
      <trkpt lat="43.5579" lon="6.18056">
        <ele>407.2</ele>
        <time>2025-06-19T22:36:16Z</time>
      </trkpt>
      <trkpt lat="43.55788" lon="6.18054">
        <ele>407.2</ele>
        <time>2025-06-19T22:36:16Z</time>
      </trkpt>
      <trkpt lat="43.55784" lon="6.18032">
        <ele>405</ele>
        <time>2025-06-19T22:36:16Z</time>
      </trkpt>
      <trkpt lat="43.55782" lon="6.18015">
        <ele>404.8</ele>
        <time>2025-06-19T22:36:16Z</time>
      </trkpt>
      <trkpt lat="43.5578" lon="6.18005">
        <ele>404.6</ele>
        <time>2025-06-19T22:36:16Z</time>
      </trkpt>
      <trkpt lat="43.5578" lon="6.18004">
        <ele>404.6</ele>
        <time>2025-06-19T22:36:16Z</time>
      </trkpt>
      <trkpt lat="43.55779" lon="6.17996">
        <ele>404.5</ele>
        <time>2025-06-19T22:36:16Z</time>
      </trkpt>
      <trkpt lat="43.55775" lon="6.17992">
        <ele>404.3</ele>
        <time>2025-06-19T22:36:16Z</time>
      </trkpt>
      <trkpt lat="43.55768" lon="6.17987">
        <ele>404</ele>
        <time>2025-06-19T22:36:16Z</time>
      </trkpt>
      <trkpt lat="43.55765" lon="6.17986">
        <ele>403.8</ele>
        <time>2025-06-19T22:36:16Z</time>
      </trkpt>
      <trkpt lat="43.55771" lon="6.17968">
        <ele>404</ele>
        <time>2025-06-19T22:36:16Z</time>
      </trkpt>
      <trkpt lat="43.55776" lon="6.17957">
        <ele>404.5</ele>
        <time>2025-06-19T22:36:16Z</time>
      </trkpt>
      <trkpt lat="43.5578" lon="6.17954">
        <ele>404.7</ele>
        <time>2025-06-19T22:36:16Z</time>
      </trkpt>
      <trkpt lat="43.5579" lon="6.17944">
        <ele>405.5</ele>
        <time>2025-06-19T22:36:16Z</time>
      </trkpt>
      <trkpt lat="43.55817" lon="6.17917">
        <ele>408.8</ele>
        <time>2025-06-19T22:36:16Z</time>
      </trkpt>
      <trkpt lat="43.55822" lon="6.17904">
        <ele>410</ele>
        <time>2025-06-19T22:36:16Z</time>
      </trkpt>
      <trkpt lat="43.55831" lon="6.17892">
        <ele>410.3</ele>
        <time>2025-06-19T22:36:16Z</time>
      </trkpt>
      <trkpt lat="43.55836" lon="6.17887">
        <ele>410.4</ele>
        <time>2025-06-19T22:36:16Z</time>
      </trkpt>
      <trkpt lat="43.55845" lon="6.17885">
        <ele>410.3</ele>
        <time>2025-06-19T22:36:16Z</time>
      </trkpt>
      <trkpt lat="43.55848" lon="6.17877">
        <ele>411</ele>
        <time>2025-06-19T22:36:16Z</time>
      </trkpt>
      <trkpt lat="43.55868" lon="6.17835">
        <ele>415.1</ele>
        <time>2025-06-19T22:36:16Z</time>
      </trkpt>
      <trkpt lat="43.55869" lon="6.1783">
        <ele>415.5</ele>
        <time>2025-06-19T22:36:16Z</time>
      </trkpt>
      <trkpt lat="43.55879" lon="6.17798">
        <ele>417.8</ele>
        <time>2025-06-19T22:36:16Z</time>
      </trkpt>
      <trkpt lat="43.55882" lon="6.17786">
        <ele>418.4</ele>
        <time>2025-06-19T22:36:16Z</time>
      </trkpt>
      <trkpt lat="43.55883" lon="6.17781">
        <ele>418.5</ele>
        <time>2025-06-19T22:36:16Z</time>
      </trkpt>
      <trkpt lat="43.55891" lon="6.17772">
        <ele>419.4</ele>
        <time>2025-06-19T22:36:16Z</time>
      </trkpt>
      <trkpt lat="43.55906" lon="6.17762">
        <ele>420.7</ele>
        <time>2025-06-19T22:36:16Z</time>
      </trkpt>
      <trkpt lat="43.55913" lon="6.17757">
        <ele>421.7</ele>
        <time>2025-06-19T22:36:16Z</time>
      </trkpt>
      <trkpt lat="43.55921" lon="6.17752">
        <ele>422.7</ele>
        <time>2025-06-19T22:36:16Z</time>
      </trkpt>
      <trkpt lat="43.55957" lon="6.17737">
        <ele>426.8</ele>
        <time>2025-06-19T22:36:16Z</time>
      </trkpt>
      <trkpt lat="43.55966" lon="6.17737">
        <ele>427.9</ele>
        <time>2025-06-19T22:36:16Z</time>
      </trkpt>
      <trkpt lat="43.55977" lon="6.17741">
        <ele>429.9</ele>
        <time>2025-06-19T22:36:16Z</time>
      </trkpt>
      <trkpt lat="43.5599" lon="6.17743">
        <ele>431.4</ele>
        <time>2025-06-19T22:36:16Z</time>
      </trkpt>
      <trkpt lat="43.56002" lon="6.17738">
        <ele>432.4</ele>
        <time>2025-06-19T22:36:16Z</time>
      </trkpt>
      <trkpt lat="43.56012" lon="6.17734">
        <ele>432.9</ele>
        <time>2025-06-19T22:36:16Z</time>
      </trkpt>
      <trkpt lat="43.56024" lon="6.17727">
        <ele>433.7</ele>
        <time>2025-06-19T22:36:16Z</time>
      </trkpt>
      <trkpt lat="43.56035" lon="6.17718">
        <ele>434.2</ele>
        <time>2025-06-19T22:36:16Z</time>
      </trkpt>
      <trkpt lat="43.56048" lon="6.1771">
        <ele>434.3</ele>
        <time>2025-06-19T22:36:16Z</time>
      </trkpt>
      <trkpt lat="43.56065" lon="6.17703">
        <ele>433.9</ele>
        <time>2025-06-19T22:36:16Z</time>
      </trkpt>
      <trkpt lat="43.5608" lon="6.17697">
        <ele>432.6</ele>
        <time>2025-06-19T22:36:16Z</time>
      </trkpt>
      <trkpt lat="43.56096" lon="6.17695">
        <ele>431.2</ele>
        <time>2025-06-19T22:36:16Z</time>
      </trkpt>
      <trkpt lat="43.56104" lon="6.17695">
        <ele>430.5</ele>
        <time>2025-06-19T22:36:16Z</time>
      </trkpt>
      <trkpt lat="43.56111" lon="6.17697">
        <ele>430</ele>
        <time>2025-06-19T22:36:16Z</time>
      </trkpt>
      <trkpt lat="43.56123" lon="6.17699">
        <ele>429.7</ele>
        <time>2025-06-19T22:36:16Z</time>
      </trkpt>
      <trkpt lat="43.56138" lon="6.17702">
        <ele>429.6</ele>
        <time>2025-06-19T22:36:16Z</time>
      </trkpt>
      <trkpt lat="43.56153" lon="6.17703">
        <ele>429.8</ele>
        <time>2025-06-19T22:36:16Z</time>
      </trkpt>
      <trkpt lat="43.56168" lon="6.17703">
        <ele>430.4</ele>
        <time>2025-06-19T22:36:16Z</time>
      </trkpt>
      <trkpt lat="43.56191" lon="6.17702">
        <ele>432</ele>
        <time>2025-06-19T22:36:16Z</time>
      </trkpt>
      <trkpt lat="43.56211" lon="6.17702">
        <ele>432.6</ele>
        <time>2025-06-19T22:36:16Z</time>
      </trkpt>
      <trkpt lat="43.56238" lon="6.17706">
        <ele>433.7</ele>
        <time>2025-06-19T22:36:16Z</time>
      </trkpt>
      <trkpt lat="43.56251" lon="6.17707">
        <ele>434.8</ele>
        <time>2025-06-19T22:36:16Z</time>
      </trkpt>
      <trkpt lat="43.56258" lon="6.17707">
        <ele>435</ele>
        <time>2025-06-19T22:36:16Z</time>
      </trkpt>
      <trkpt lat="43.56266" lon="6.17704">
        <ele>435.3</ele>
        <time>2025-06-19T22:36:16Z</time>
      </trkpt>
      <trkpt lat="43.56289" lon="6.17692">
        <ele>435.6</ele>
        <time>2025-06-19T22:36:16Z</time>
      </trkpt>
      <trkpt lat="43.56314" lon="6.17679">
        <ele>435.7</ele>
        <time>2025-06-19T22:36:16Z</time>
      </trkpt>
      <trkpt lat="43.56328" lon="6.17671">
        <ele>436.4</ele>
        <time>2025-06-19T22:36:16Z</time>
      </trkpt>
      <trkpt lat="43.56341" lon="6.17666">
        <ele>437.9</ele>
        <time>2025-06-19T22:36:16Z</time>
      </trkpt>
      <trkpt lat="43.56348" lon="6.17662">
        <ele>438.3</ele>
        <time>2025-06-19T22:36:16Z</time>
      </trkpt>
      <trkpt lat="43.56352" lon="6.17657">
        <ele>438.7</ele>
        <time>2025-06-19T22:36:16Z</time>
      </trkpt>
      <trkpt lat="43.56353" lon="6.17652">
        <ele>438.8</ele>
        <time>2025-06-19T22:36:16Z</time>
      </trkpt>
      <trkpt lat="43.56354" lon="6.17645">
        <ele>439.1</ele>
        <time>2025-06-19T22:36:16Z</time>
      </trkpt>
      <trkpt lat="43.56356" lon="6.17634">
        <ele>439.1</ele>
        <time>2025-06-19T22:36:16Z</time>
      </trkpt>
      <trkpt lat="43.56356" lon="6.17628">
        <ele>439.1</ele>
        <time>2025-06-19T22:36:16Z</time>
      </trkpt>
      <trkpt lat="43.56354" lon="6.1762">
        <ele>439.3</ele>
        <time>2025-06-19T22:36:16Z</time>
      </trkpt>
      <trkpt lat="43.56353" lon="6.17618">
        <ele>438.9</ele>
        <time>2025-06-19T22:36:16Z</time>
      </trkpt>
      <trkpt lat="43.56349" lon="6.17612">
        <ele>438.8</ele>
        <time>2025-06-19T22:36:16Z</time>
      </trkpt>
      <trkpt lat="43.56336" lon="6.17597">
        <ele>438.2</ele>
        <time>2025-06-19T22:36:16Z</time>
      </trkpt>
      <trkpt lat="43.56332" lon="6.1759">
        <ele>438.1</ele>
        <time>2025-06-19T22:36:16Z</time>
      </trkpt>
      <trkpt lat="43.56337" lon="6.17589">
        <ele>438.1</ele>
        <time>2025-06-19T22:36:16Z</time>
      </trkpt>
      <trkpt lat="43.56346" lon="6.17586">
        <ele>438.3</ele>
        <time>2025-06-19T22:36:16Z</time>
      </trkpt>
      <trkpt lat="43.56349" lon="6.17586">
        <ele>438.3</ele>
        <time>2025-06-19T22:36:16Z</time>
      </trkpt>
      <trkpt lat="43.56354" lon="6.17587">
        <ele>438.7</ele>
        <time>2025-06-19T22:36:16Z</time>
      </trkpt>
      <trkpt lat="43.56356" lon="6.17588">
        <ele>438.7</ele>
        <time>2025-06-19T22:36:16Z</time>
      </trkpt>
      <trkpt lat="43.56358" lon="6.17593">
        <ele>438.8</ele>
        <time>2025-06-19T22:36:16Z</time>
      </trkpt>
      <trkpt lat="43.56359" lon="6.176">
        <ele>438.9</ele>
        <time>2025-06-19T22:36:16Z</time>
      </trkpt>
      <trkpt lat="43.56361" lon="6.17607">
        <ele>439</ele>
        <time>2025-06-19T22:36:16Z</time>
      </trkpt>
      <trkpt lat="43.56366" lon="6.17612">
        <ele>439.2</ele>
        <time>2025-06-19T22:36:16Z</time>
      </trkpt>
      <trkpt lat="43.5637" lon="6.17612">
        <ele>439.1</ele>
        <time>2025-06-19T22:36:16Z</time>
      </trkpt>
      <trkpt lat="43.56374" lon="6.17608">
        <ele>438.9</ele>
        <time>2025-06-19T22:36:16Z</time>
      </trkpt>
      <trkpt lat="43.56385" lon="6.176">
        <ele>438.7</ele>
        <time>2025-06-19T22:36:16Z</time>
      </trkpt>
      <trkpt lat="43.5639" lon="6.17594">
        <ele>438.3</ele>
        <time>2025-06-19T22:36:16Z</time>
      </trkpt>
      <trkpt lat="43.56402" lon="6.17581">
        <ele>437.9</ele>
        <time>2025-06-19T22:36:16Z</time>
      </trkpt>
      <trkpt lat="43.56406" lon="6.17579">
        <ele>438</ele>
        <time>2025-06-19T22:36:16Z</time>
      </trkpt>
      <trkpt lat="43.56414" lon="6.17576">
        <ele>437.8</ele>
        <time>2025-06-19T22:36:16Z</time>
      </trkpt>
      <trkpt lat="43.56422" lon="6.17571">
        <ele>437.6</ele>
        <time>2025-06-19T22:36:16Z</time>
      </trkpt>
      <trkpt lat="43.5643" lon="6.17565">
        <ele>437.4</ele>
        <time>2025-06-19T22:36:16Z</time>
      </trkpt>
      <trkpt lat="43.56436" lon="6.17561">
        <ele>437.4</ele>
        <time>2025-06-19T22:36:16Z</time>
      </trkpt>
      <trkpt lat="43.56443" lon="6.17558">
        <ele>437.1</ele>
        <time>2025-06-19T22:36:16Z</time>
      </trkpt>
      <trkpt lat="43.56448" lon="6.17558">
        <ele>437</ele>
        <time>2025-06-19T22:36:16Z</time>
      </trkpt>
      <trkpt lat="43.56457" lon="6.17556">
        <ele>436.8</ele>
        <time>2025-06-19T22:36:16Z</time>
      </trkpt>
      <trkpt lat="43.56464" lon="6.17553">
        <ele>436.9</ele>
        <time>2025-06-19T22:36:16Z</time>
      </trkpt>
      <trkpt lat="43.56469" lon="6.17551">
        <ele>436.9</ele>
        <time>2025-06-19T22:36:16Z</time>
      </trkpt>
      <trkpt lat="43.5648" lon="6.17545">
        <ele>437.3</ele>
        <time>2025-06-19T22:36:16Z</time>
      </trkpt>
      <trkpt lat="43.56487" lon="6.17541">
        <ele>437.6</ele>
        <time>2025-06-19T22:36:16Z</time>
      </trkpt>
      <trkpt lat="43.56492" lon="6.17537">
        <ele>437.8</ele>
        <time>2025-06-19T22:36:16Z</time>
      </trkpt>
      <trkpt lat="43.56492" lon="6.1754">
        <ele>438</ele>
        <time>2025-06-19T22:36:16Z</time>
      </trkpt>
      <trkpt lat="43.56493" lon="6.17543">
        <ele>438</ele>
        <time>2025-06-19T22:36:16Z</time>
      </trkpt>
      <trkpt lat="43.56493" lon="6.17544">
        <ele>438.3</ele>
        <time>2025-06-19T22:36:16Z</time>
      </trkpt>
      <trkpt lat="43.56493" lon="6.17546">
        <ele>438.3</ele>
        <time>2025-06-19T22:36:16Z</time>
      </trkpt>
      <trkpt lat="43.56494" lon="6.17549">
        <ele>438.6</ele>
        <time>2025-06-19T22:36:16Z</time>
      </trkpt>
      <trkpt lat="43.56495" lon="6.17551">
        <ele>438.6</ele>
        <time>2025-06-19T22:36:16Z</time>
      </trkpt>
      <trkpt lat="43.56495" lon="6.17552">
        <ele>438.9</ele>
        <time>2025-06-19T22:36:16Z</time>
      </trkpt>
      <trkpt lat="43.56495" lon="6.17555">
        <ele>438.9</ele>
        <time>2025-06-19T22:36:16Z</time>
      </trkpt>
      <trkpt lat="43.56496" lon="6.17557">
        <ele>439.6</ele>
        <time>2025-06-19T22:36:16Z</time>
      </trkpt>
      <trkpt lat="43.56496" lon="6.17559">
        <ele>439.6</ele>
        <time>2025-06-19T22:36:16Z</time>
      </trkpt>
      <trkpt lat="43.56495" lon="6.1756">
        <ele>439.1</ele>
        <time>2025-06-19T22:36:16Z</time>
      </trkpt>
      <trkpt lat="43.56494" lon="6.17561">
        <ele>439.4</ele>
        <time>2025-06-19T22:36:16Z</time>
      </trkpt>
      <trkpt lat="43.56493" lon="6.17562">
        <ele>439.4</ele>
        <time>2025-06-19T22:36:16Z</time>
      </trkpt>
      <trkpt lat="43.56492" lon="6.17565">
        <ele>439.7</ele>
        <time>2025-06-19T22:36:16Z</time>
      </trkpt>
      <trkpt lat="43.56491" lon="6.17567">
        <ele>439.4</ele>
        <time>2025-06-19T22:36:16Z</time>
      </trkpt>
      <trkpt lat="43.5649" lon="6.17568">
        <ele>439.4</ele>
        <time>2025-06-19T22:36:16Z</time>
      </trkpt>
      <trkpt lat="43.56489" lon="6.1757">
        <ele>439.6</ele>
        <time>2025-06-19T22:36:16Z</time>
      </trkpt>
      <trkpt lat="43.56488" lon="6.17572">
        <ele>439.6</ele>
        <time>2025-06-19T22:36:16Z</time>
      </trkpt>
      <trkpt lat="43.56488" lon="6.17574">
        <ele>439.8</ele>
        <time>2025-06-19T22:36:16Z</time>
      </trkpt>
      <trkpt lat="43.56488" lon="6.17576">
        <ele>439.8</ele>
        <time>2025-06-19T22:36:16Z</time>
      </trkpt>
      <trkpt lat="43.56487" lon="6.17578">
        <ele>439.9</ele>
        <time>2025-06-19T22:36:16Z</time>
      </trkpt>
      <trkpt lat="43.56487" lon="6.17579">
        <ele>439.9</ele>
        <time>2025-06-19T22:36:16Z</time>
      </trkpt>
      <trkpt lat="43.56487" lon="6.17581">
        <ele>439.9</ele>
        <time>2025-06-19T22:36:16Z</time>
      </trkpt>
      <trkpt lat="43.56487" lon="6.17582">
        <ele>440</ele>
        <time>2025-06-19T22:36:16Z</time>
      </trkpt>
      <trkpt lat="43.56487" lon="6.17583">
        <ele>440</ele>
        <time>2025-06-19T22:36:16Z</time>
      </trkpt>
      <trkpt lat="43.56489" lon="6.17585">
        <ele>440</ele>
        <time>2025-06-19T22:36:16Z</time>
      </trkpt>
      <trkpt lat="43.56491" lon="6.17585">
        <ele>440</ele>
        <time>2025-06-19T22:36:16Z</time>
      </trkpt>
      <trkpt lat="43.56492" lon="6.17585">
        <ele>440.4</ele>
        <time>2025-06-19T22:36:16Z</time>
      </trkpt>
      <trkpt lat="43.56493" lon="6.17586">
        <ele>440.4</ele>
        <time>2025-06-19T22:36:16Z</time>
      </trkpt>
      <trkpt lat="43.56497" lon="6.17585">
        <ele>441.1</ele>
        <time>2025-06-19T22:36:16Z</time>
      </trkpt>
      <trkpt lat="43.56498" lon="6.17586">
        <ele>441.1</ele>
        <time>2025-06-19T22:36:16Z</time>
      </trkpt>
      <trkpt lat="43.565" lon="6.17588">
        <ele>441.9</ele>
        <time>2025-06-19T22:36:16Z</time>
      </trkpt>
      <trkpt lat="43.56501" lon="6.17588">
        <ele>441.9</ele>
        <time>2025-06-19T22:36:16Z</time>
      </trkpt>
      <trkpt lat="43.56502" lon="6.17587">
        <ele>441.9</ele>
        <time>2025-06-19T22:36:16Z</time>
      </trkpt>
      <trkpt lat="43.56504" lon="6.17587">
        <ele>442.7</ele>
        <time>2025-06-19T22:36:16Z</time>
      </trkpt>
      <trkpt lat="43.56505" lon="6.17588">
        <ele>442.7</ele>
        <time>2025-06-19T22:36:16Z</time>
      </trkpt>
      <trkpt lat="43.56506" lon="6.17588">
        <ele>442.7</ele>
        <time>2025-06-19T22:36:16Z</time>
      </trkpt>
      <trkpt lat="43.56508" lon="6.17586">
        <ele>442.8</ele>
        <time>2025-06-19T22:36:16Z</time>
      </trkpt>
      <trkpt lat="43.56509" lon="6.17585">
        <ele>443.6</ele>
        <time>2025-06-19T22:36:16Z</time>
      </trkpt>
      <trkpt lat="43.56511" lon="6.17583">
        <ele>443.6</ele>
        <time>2025-06-19T22:36:16Z</time>
      </trkpt>
      <trkpt lat="43.56513" lon="6.17583">
        <ele>444.3</ele>
        <time>2025-06-19T22:36:16Z</time>
      </trkpt>
      <trkpt lat="43.56514" lon="6.17581">
        <ele>444.2</ele>
        <time>2025-06-19T22:36:16Z</time>
      </trkpt>
      <trkpt lat="43.56515" lon="6.17579">
        <ele>444.2</ele>
        <time>2025-06-19T22:36:16Z</time>
      </trkpt>
      <trkpt lat="43.56516" lon="6.17577">
        <ele>444.1</ele>
        <time>2025-06-19T22:36:16Z</time>
      </trkpt>
      <trkpt lat="43.56517" lon="6.17573">
        <ele>444.4</ele>
        <time>2025-06-19T22:36:16Z</time>
      </trkpt>
      <trkpt lat="43.56518" lon="6.17572">
        <ele>444.4</ele>
        <time>2025-06-19T22:36:16Z</time>
      </trkpt>
      <trkpt lat="43.56519" lon="6.1757">
        <ele>444.4</ele>
        <time>2025-06-19T22:36:16Z</time>
      </trkpt>
      <trkpt lat="43.56519" lon="6.17569">
        <ele>444.4</ele>
        <time>2025-06-19T22:36:16Z</time>
      </trkpt>
      <trkpt lat="43.5652" lon="6.17567">
        <ele>444</ele>
        <time>2025-06-19T22:36:16Z</time>
      </trkpt>
      <trkpt lat="43.56521" lon="6.17567">
        <ele>444</ele>
        <time>2025-06-19T22:36:16Z</time>
      </trkpt>
      <trkpt lat="43.56522" lon="6.17566">
        <ele>444.7</ele>
        <time>2025-06-19T22:36:16Z</time>
      </trkpt>
      <trkpt lat="43.56523" lon="6.17566">
        <ele>444.7</ele>
        <time>2025-06-19T22:36:16Z</time>
      </trkpt>
      <trkpt lat="43.56524" lon="6.17566">
        <ele>444.7</ele>
        <time>2025-06-19T22:36:16Z</time>
      </trkpt>
      <trkpt lat="43.56525" lon="6.17566">
        <ele>444.7</ele>
        <time>2025-06-19T22:36:16Z</time>
      </trkpt>
      <trkpt lat="43.56527" lon="6.17567">
        <ele>445.1</ele>
        <time>2025-06-19T22:36:16Z</time>
      </trkpt>
      <trkpt lat="43.56528" lon="6.17569">
        <ele>445.2</ele>
        <time>2025-06-19T22:36:16Z</time>
      </trkpt>
      <trkpt lat="43.56529" lon="6.1757">
        <ele>445.2</ele>
        <time>2025-06-19T22:36:16Z</time>
      </trkpt>
      <trkpt lat="43.56531" lon="6.1757">
        <ele>445.6</ele>
        <time>2025-06-19T22:36:16Z</time>
      </trkpt>
      <trkpt lat="43.56532" lon="6.17569">
        <ele>445.6</ele>
        <time>2025-06-19T22:36:16Z</time>
      </trkpt>
      <trkpt lat="43.56533" lon="6.17569">
        <ele>445.6</ele>
        <time>2025-06-19T22:36:16Z</time>
      </trkpt>
      <trkpt lat="43.56534" lon="6.17569">
        <ele>445.6</ele>
        <time>2025-06-19T22:36:16Z</time>
      </trkpt>
      <trkpt lat="43.56535" lon="6.17568">
        <ele>445.9</ele>
        <time>2025-06-19T22:36:16Z</time>
      </trkpt>
      <trkpt lat="43.56536" lon="6.17568">
        <ele>445.9</ele>
        <time>2025-06-19T22:36:16Z</time>
      </trkpt>
      <trkpt lat="43.56537" lon="6.17568">
        <ele>445.9</ele>
        <time>2025-06-19T22:36:16Z</time>
      </trkpt>
      <trkpt lat="43.56539" lon="6.17568">
        <ele>446.5</ele>
        <time>2025-06-19T22:36:16Z</time>
      </trkpt>
      <trkpt lat="43.5654" lon="6.17568">
        <ele>446.5</ele>
        <time>2025-06-19T22:36:16Z</time>
      </trkpt>
      <trkpt lat="43.56542" lon="6.1757">
        <ele>446.8</ele>
        <time>2025-06-19T22:36:16Z</time>
      </trkpt>
      <trkpt lat="43.56543" lon="6.1757">
        <ele>447.3</ele>
        <time>2025-06-19T22:36:16Z</time>
      </trkpt>
      <trkpt lat="43.56545" lon="6.17571">
        <ele>447.3</ele>
        <time>2025-06-19T22:36:16Z</time>
      </trkpt>
      <trkpt lat="43.56547" lon="6.17573">
        <ele>447.6</ele>
        <time>2025-06-19T22:36:16Z</time>
      </trkpt>
      <trkpt lat="43.56548" lon="6.17574">
        <ele>447.8</ele>
        <time>2025-06-19T22:36:16Z</time>
      </trkpt>
      <trkpt lat="43.56548" lon="6.17575">
        <ele>447.8</ele>
        <time>2025-06-19T22:36:16Z</time>
      </trkpt>
      <trkpt lat="43.56549" lon="6.17577">
        <ele>447.8</ele>
        <time>2025-06-19T22:36:16Z</time>
      </trkpt>
      <trkpt lat="43.56549" lon="6.17578">
        <ele>448</ele>
        <time>2025-06-19T22:36:16Z</time>
      </trkpt>
      <trkpt lat="43.5655" lon="6.17579">
        <ele>448</ele>
        <time>2025-06-19T22:36:16Z</time>
      </trkpt>
      <trkpt lat="43.56551" lon="6.17581">
        <ele>448</ele>
        <time>2025-06-19T22:36:16Z</time>
      </trkpt>
      <trkpt lat="43.56552" lon="6.17583">
        <ele>448.2</ele>
        <time>2025-06-19T22:36:16Z</time>
      </trkpt>
      <trkpt lat="43.56554" lon="6.17586">
        <ele>448.2</ele>
        <time>2025-06-19T22:36:16Z</time>
      </trkpt>
      <trkpt lat="43.56555" lon="6.17588">
        <ele>448.4</ele>
        <time>2025-06-19T22:36:16Z</time>
      </trkpt>
      <trkpt lat="43.56557" lon="6.17589">
        <ele>448.6</ele>
        <time>2025-06-19T22:36:16Z</time>
      </trkpt>
      <trkpt lat="43.56558" lon="6.17589">
        <ele>448.6</ele>
        <time>2025-06-19T22:36:16Z</time>
      </trkpt>
      <trkpt lat="43.5656" lon="6.17588">
        <ele>448.7</ele>
        <time>2025-06-19T22:36:16Z</time>
      </trkpt>
      <trkpt lat="43.56561" lon="6.17588">
        <ele>448.7</ele>
        <time>2025-06-19T22:36:16Z</time>
      </trkpt>
      <trkpt lat="43.56562" lon="6.17587">
        <ele>448.7</ele>
        <time>2025-06-19T22:36:16Z</time>
      </trkpt>
      <trkpt lat="43.56563" lon="6.17587">
        <ele>448.7</ele>
        <time>2025-06-19T22:36:16Z</time>
      </trkpt>
      <trkpt lat="43.56565" lon="6.17586">
        <ele>448.6</ele>
        <time>2025-06-19T22:36:16Z</time>
      </trkpt>
      <trkpt lat="43.56566" lon="6.17587">
        <ele>448.8</ele>
        <time>2025-06-19T22:36:16Z</time>
      </trkpt>
      <trkpt lat="43.56567" lon="6.17587">
        <ele>448.8</ele>
        <time>2025-06-19T22:36:16Z</time>
      </trkpt>
      <trkpt lat="43.56568" lon="6.17588">
        <ele>448.8</ele>
        <time>2025-06-19T22:36:16Z</time>
      </trkpt>
      <trkpt lat="43.5657" lon="6.1759">
        <ele>449.1</ele>
        <time>2025-06-19T22:36:16Z</time>
      </trkpt>
      <trkpt lat="43.5657" lon="6.17592">
        <ele>449.2</ele>
        <time>2025-06-19T22:36:16Z</time>
      </trkpt>
      <trkpt lat="43.5657" lon="6.17594">
        <ele>449.2</ele>
        <time>2025-06-19T22:36:16Z</time>
      </trkpt>
      <trkpt lat="43.5657" lon="6.17596">
        <ele>449.3</ele>
        <time>2025-06-19T22:36:16Z</time>
      </trkpt>
      <trkpt lat="43.5657" lon="6.17598">
        <ele>449.3</ele>
        <time>2025-06-19T22:36:16Z</time>
      </trkpt>
      <trkpt lat="43.5657" lon="6.17599">
        <ele>449.3</ele>
        <time>2025-06-19T22:36:16Z</time>
      </trkpt>
      <trkpt lat="43.56571" lon="6.17601">
        <ele>449.4</ele>
        <time>2025-06-19T22:36:16Z</time>
      </trkpt>
      <trkpt lat="43.56571" lon="6.17603">
        <ele>449.4</ele>
        <time>2025-06-19T22:36:16Z</time>
      </trkpt>
      <trkpt lat="43.56572" lon="6.17604">
        <ele>449.5</ele>
        <time>2025-06-19T22:36:16Z</time>
      </trkpt>
      <trkpt lat="43.56573" lon="6.17606">
        <ele>449.4</ele>
        <time>2025-06-19T22:36:16Z</time>
      </trkpt>
      <trkpt lat="43.56574" lon="6.17607">
        <ele>449.4</ele>
        <time>2025-06-19T22:36:16Z</time>
      </trkpt>
      <trkpt lat="43.56574" lon="6.17608">
        <ele>449.4</ele>
        <time>2025-06-19T22:36:16Z</time>
      </trkpt>
      <trkpt lat="43.56575" lon="6.1761">
        <ele>449.4</ele>
        <time>2025-06-19T22:36:16Z</time>
      </trkpt>
      <trkpt lat="43.56576" lon="6.17611">
        <ele>449.4</ele>
        <time>2025-06-19T22:36:16Z</time>
      </trkpt>
      <trkpt lat="43.56576" lon="6.17612">
        <ele>449.5</ele>
        <time>2025-06-19T22:36:16Z</time>
      </trkpt>
      <trkpt lat="43.56577" lon="6.17614">
        <ele>449.4</ele>
        <time>2025-06-19T22:36:16Z</time>
      </trkpt>
      <trkpt lat="43.56578" lon="6.17615">
        <ele>449.4</ele>
        <time>2025-06-19T22:36:16Z</time>
      </trkpt>
      <trkpt lat="43.56579" lon="6.17616">
        <ele>449.4</ele>
        <time>2025-06-19T22:36:16Z</time>
      </trkpt>
      <trkpt lat="43.5658" lon="6.17616">
        <ele>449.4</ele>
        <time>2025-06-19T22:36:16Z</time>
      </trkpt>
      <trkpt lat="43.56582" lon="6.17616">
        <ele>449.3</ele>
        <time>2025-06-19T22:36:16Z</time>
      </trkpt>
      <trkpt lat="43.56583" lon="6.17617">
        <ele>449.3</ele>
        <time>2025-06-19T22:36:16Z</time>
      </trkpt>
      <trkpt lat="43.56584" lon="6.17616">
        <ele>449.3</ele>
        <time>2025-06-19T22:36:16Z</time>
      </trkpt>
      <trkpt lat="43.56585" lon="6.17616">
        <ele>449.3</ele>
        <time>2025-06-19T22:36:16Z</time>
      </trkpt>
      <trkpt lat="43.56587" lon="6.17615">
        <ele>449</ele>
        <time>2025-06-19T22:36:16Z</time>
      </trkpt>
      <trkpt lat="43.56587" lon="6.17614">
        <ele>449</ele>
        <time>2025-06-19T22:36:16Z</time>
      </trkpt>
      <trkpt lat="43.56589" lon="6.17613">
        <ele>449</ele>
        <time>2025-06-19T22:36:16Z</time>
      </trkpt>
      <trkpt lat="43.5659" lon="6.17615">
        <ele>448.6</ele>
        <time>2025-06-19T22:36:16Z</time>
      </trkpt>
      <trkpt lat="43.56592" lon="6.17614">
        <ele>448.6</ele>
        <time>2025-06-19T22:36:16Z</time>
      </trkpt>
      <trkpt lat="43.56593" lon="6.17614">
        <ele>448.6</ele>
        <time>2025-06-19T22:36:16Z</time>
      </trkpt>
      <trkpt lat="43.56594" lon="6.17613">
        <ele>448.6</ele>
        <time>2025-06-19T22:36:16Z</time>
      </trkpt>
      <trkpt lat="43.56595" lon="6.17612">
        <ele>448</ele>
        <time>2025-06-19T22:36:16Z</time>
      </trkpt>
      <trkpt lat="43.56596" lon="6.17613">
        <ele>448</ele>
        <time>2025-06-19T22:36:16Z</time>
      </trkpt>
      <trkpt lat="43.56598" lon="6.17613">
        <ele>448</ele>
        <time>2025-06-19T22:36:16Z</time>
      </trkpt>
      <trkpt lat="43.56599" lon="6.17614">
        <ele>447.5</ele>
        <time>2025-06-19T22:36:16Z</time>
      </trkpt>
      <trkpt lat="43.56601" lon="6.17616">
        <ele>447.5</ele>
        <time>2025-06-19T22:36:16Z</time>
      </trkpt>
      <trkpt lat="43.56604" lon="6.17616">
        <ele>446.7</ele>
        <time>2025-06-19T22:36:16Z</time>
      </trkpt>
      <trkpt lat="43.56605" lon="6.17616">
        <ele>446.7</ele>
        <time>2025-06-19T22:36:16Z</time>
      </trkpt>
      <trkpt lat="43.56606" lon="6.17615">
        <ele>446.7</ele>
        <time>2025-06-19T22:36:16Z</time>
      </trkpt>
      <trkpt lat="43.56608" lon="6.17616">
        <ele>445.8</ele>
        <time>2025-06-19T22:36:16Z</time>
      </trkpt>
      <trkpt lat="43.5661" lon="6.17618">
        <ele>445.6</ele>
        <time>2025-06-19T22:36:16Z</time>
      </trkpt>
      <trkpt lat="43.56616" lon="6.17634">
        <ele>441</ele>
        <time>2025-06-19T22:36:16Z</time>
      </trkpt>
      <trkpt lat="43.5661" lon="6.17622">
        <ele>445.3</ele>
        <time>2025-06-19T22:36:16Z</time>
      </trkpt>
      <trkpt lat="43.56609" lon="6.17621">
        <ele>445.3</ele>
        <time>2025-06-19T22:36:16Z</time>
      </trkpt>
      <trkpt lat="43.56608" lon="6.17623">
        <ele>445.3</ele>
        <time>2025-06-19T22:36:16Z</time>
      </trkpt>
      <trkpt lat="43.56607" lon="6.17624">
        <ele>445.3</ele>
        <time>2025-06-19T22:36:16Z</time>
      </trkpt>
      <trkpt lat="43.56606" lon="6.17626">
        <ele>445.4</ele>
        <time>2025-06-19T22:36:16Z</time>
      </trkpt>
      <trkpt lat="43.56605" lon="6.17626">
        <ele>445.4</ele>
        <time>2025-06-19T22:36:16Z</time>
      </trkpt>
      <trkpt lat="43.56604" lon="6.17628">
        <ele>445.4</ele>
        <time>2025-06-19T22:36:16Z</time>
      </trkpt>
      <trkpt lat="43.56602" lon="6.17629">
        <ele>445.7</ele>
        <time>2025-06-19T22:36:16Z</time>
      </trkpt>
      <trkpt lat="43.56601" lon="6.1763">
        <ele>444.8</ele>
        <time>2025-06-19T22:36:16Z</time>
      </trkpt>
      <trkpt lat="43.566" lon="6.17631">
        <ele>444.8</ele>
        <time>2025-06-19T22:36:16Z</time>
      </trkpt>
      <trkpt lat="43.566" lon="6.17633">
        <ele>444.8</ele>
        <time>2025-06-19T22:36:16Z</time>
      </trkpt>
      <trkpt lat="43.56599" lon="6.17634">
        <ele>443.7</ele>
        <time>2025-06-19T22:36:16Z</time>
      </trkpt>
      <trkpt lat="43.56598" lon="6.17636">
        <ele>444.2</ele>
        <time>2025-06-19T22:36:16Z</time>
      </trkpt>
      <trkpt lat="43.56597" lon="6.17637">
        <ele>444.2</ele>
        <time>2025-06-19T22:36:16Z</time>
      </trkpt>
      <trkpt lat="43.56596" lon="6.17638">
        <ele>443</ele>
        <time>2025-06-19T22:36:16Z</time>
      </trkpt>
      <trkpt lat="43.56595" lon="6.1764">
        <ele>443</ele>
        <time>2025-06-19T22:36:16Z</time>
      </trkpt>
      <trkpt lat="43.56594" lon="6.17641">
        <ele>443.6</ele>
        <time>2025-06-19T22:36:16Z</time>
      </trkpt>
      <trkpt lat="43.56593" lon="6.17643">
        <ele>442.4</ele>
        <time>2025-06-19T22:36:16Z</time>
      </trkpt>
      <trkpt lat="43.56592" lon="6.17644">
        <ele>442.4</ele>
        <time>2025-06-19T22:36:16Z</time>
      </trkpt>
      <trkpt lat="43.56591" lon="6.17646">
        <ele>442.4</ele>
        <time>2025-06-19T22:36:16Z</time>
      </trkpt>
      <trkpt lat="43.56589" lon="6.17646">
        <ele>442.9</ele>
        <time>2025-06-19T22:36:16Z</time>
      </trkpt>
      <trkpt lat="43.56588" lon="6.17648">
        <ele>441.6</ele>
        <time>2025-06-19T22:36:16Z</time>
      </trkpt>
      <trkpt lat="43.56587" lon="6.17649">
        <ele>441.6</ele>
        <time>2025-06-19T22:36:16Z</time>
      </trkpt>
      <trkpt lat="43.56586" lon="6.1765">
        <ele>441.6</ele>
        <time>2025-06-19T22:36:16Z</time>
      </trkpt>
      <trkpt lat="43.56585" lon="6.17653">
        <ele>440.7</ele>
        <time>2025-06-19T22:36:16Z</time>
      </trkpt>
      <trkpt lat="43.56584" lon="6.17656">
        <ele>439.5</ele>
        <time>2025-06-19T22:36:16Z</time>
      </trkpt>
      <trkpt lat="43.56582" lon="6.17657">
        <ele>439.5</ele>
        <time>2025-06-19T22:36:16Z</time>
      </trkpt>
      <trkpt lat="43.5658" lon="6.17659">
        <ele>440.4</ele>
        <time>2025-06-19T22:36:16Z</time>
      </trkpt>
      <trkpt lat="43.5658" lon="6.1766">
        <ele>438.8</ele>
        <time>2025-06-19T22:36:16Z</time>
      </trkpt>
      <trkpt lat="43.5658" lon="6.17662">
        <ele>438.8</ele>
        <time>2025-06-19T22:36:16Z</time>
      </trkpt>
      <trkpt lat="43.56579" lon="6.17664">
        <ele>437.3</ele>
        <time>2025-06-19T22:36:16Z</time>
      </trkpt>
      <trkpt lat="43.56578" lon="6.17665">
        <ele>437.3</ele>
        <time>2025-06-19T22:36:16Z</time>
      </trkpt>
      <trkpt lat="43.56578" lon="6.17667">
        <ele>437.3</ele>
        <time>2025-06-19T22:36:16Z</time>
      </trkpt>
      <trkpt lat="43.56577" lon="6.17668">
        <ele>435.8</ele>
        <time>2025-06-19T22:36:16Z</time>
      </trkpt>
      <trkpt lat="43.56576" lon="6.1767">
        <ele>436.4</ele>
        <time>2025-06-19T22:36:16Z</time>
      </trkpt>
      <trkpt lat="43.56575" lon="6.17672">
        <ele>435.1</ele>
        <time>2025-06-19T22:36:16Z</time>
      </trkpt>
      <trkpt lat="43.56574" lon="6.17673">
        <ele>435.1</ele>
        <time>2025-06-19T22:36:16Z</time>
      </trkpt>
      <trkpt lat="43.56573" lon="6.17674">
        <ele>435.1</ele>
        <time>2025-06-19T22:36:16Z</time>
      </trkpt>
      <trkpt lat="43.56572" lon="6.17676">
        <ele>435.9</ele>
        <time>2025-06-19T22:36:16Z</time>
      </trkpt>
      <trkpt lat="43.56571" lon="6.17678">
        <ele>434.4</ele>
        <time>2025-06-19T22:36:16Z</time>
      </trkpt>
      <trkpt lat="43.5657" lon="6.17679">
        <ele>434.4</ele>
        <time>2025-06-19T22:36:16Z</time>
      </trkpt>
      <trkpt lat="43.56569" lon="6.1768">
        <ele>434.4</ele>
        <time>2025-06-19T22:36:16Z</time>
      </trkpt>
      <trkpt lat="43.56569" lon="6.17682">
        <ele>433.1</ele>
        <time>2025-06-19T22:36:16Z</time>
      </trkpt>
      <trkpt lat="43.56567" lon="6.17683">
        <ele>433.5</ele>
        <time>2025-06-19T22:36:16Z</time>
      </trkpt>
      <trkpt lat="43.56566" lon="6.17684">
        <ele>433.5</ele>
        <time>2025-06-19T22:36:16Z</time>
      </trkpt>
      <trkpt lat="43.56565" lon="6.17685">
        <ele>432</ele>
        <time>2025-06-19T22:36:16Z</time>
      </trkpt>
      <trkpt lat="43.56564" lon="6.17686">
        <ele>432</ele>
        <time>2025-06-19T22:36:16Z</time>
      </trkpt>
      <trkpt lat="43.56563" lon="6.17686">
        <ele>432</ele>
        <time>2025-06-19T22:36:16Z</time>
      </trkpt>
      <trkpt lat="43.56562" lon="6.17687">
        <ele>432</ele>
        <time>2025-06-19T22:36:16Z</time>
      </trkpt>
      <trkpt lat="43.56561" lon="6.17688">
        <ele>432</ele>
        <time>2025-06-19T22:36:16Z</time>
      </trkpt>
      <trkpt lat="43.5656" lon="6.17689">
        <ele>432</ele>
        <time>2025-06-19T22:36:16Z</time>
      </trkpt>
      <trkpt lat="43.56559" lon="6.1769">
        <ele>430.6</ele>
        <time>2025-06-19T22:36:16Z</time>
      </trkpt>
      <trkpt lat="43.56558" lon="6.17692">
        <ele>430.6</ele>
        <time>2025-06-19T22:36:16Z</time>
      </trkpt>
      <trkpt lat="43.56557" lon="6.17693">
        <ele>430.6</ele>
        <time>2025-06-19T22:36:16Z</time>
      </trkpt>
      <trkpt lat="43.56555" lon="6.17694">
        <ele>429</ele>
        <time>2025-06-19T22:36:16Z</time>
      </trkpt>
      <trkpt lat="43.56554" lon="6.17695">
        <ele>429</ele>
        <time>2025-06-19T22:36:16Z</time>
      </trkpt>
      <trkpt lat="43.56553" lon="6.17696">
        <ele>429</ele>
        <time>2025-06-19T22:36:16Z</time>
      </trkpt>
      <trkpt lat="43.56552" lon="6.17697">
        <ele>429</ele>
        <time>2025-06-19T22:36:16Z</time>
      </trkpt>
      <trkpt lat="43.5655" lon="6.17698">
        <ele>427.6</ele>
        <time>2025-06-19T22:36:16Z</time>
      </trkpt>
      <trkpt lat="43.56548" lon="6.17698">
        <ele>427.6</ele>
        <time>2025-06-19T22:36:16Z</time>
      </trkpt>
      <trkpt lat="43.56547" lon="6.17699">
        <ele>427.6</ele>
        <time>2025-06-19T22:36:16Z</time>
      </trkpt>
      <trkpt lat="43.56545" lon="6.17701">
        <ele>427.5</ele>
        <time>2025-06-19T22:36:16Z</time>
      </trkpt>
      <trkpt lat="43.56544" lon="6.17701">
        <ele>427.5</ele>
        <time>2025-06-19T22:36:16Z</time>
      </trkpt>
      <trkpt lat="43.56542" lon="6.17701">
        <ele>427.8</ele>
        <time>2025-06-19T22:36:16Z</time>
      </trkpt>
      <trkpt lat="43.56541" lon="6.17703">
        <ele>425.9</ele>
        <time>2025-06-19T22:36:16Z</time>
      </trkpt>
      <trkpt lat="43.56539" lon="6.17704">
        <ele>425.9</ele>
        <time>2025-06-19T22:36:16Z</time>
      </trkpt>
      <trkpt lat="43.56539" lon="6.17706">
        <ele>425.9</ele>
        <time>2025-06-19T22:36:16Z</time>
      </trkpt>
      <trkpt lat="43.56538" lon="6.17706">
        <ele>426.3</ele>
        <time>2025-06-19T22:36:16Z</time>
      </trkpt>
      <trkpt lat="43.56536" lon="6.17707">
        <ele>424.6</ele>
        <time>2025-06-19T22:36:16Z</time>
      </trkpt>
      <trkpt lat="43.56535" lon="6.17708">
        <ele>424.6</ele>
        <time>2025-06-19T22:36:16Z</time>
      </trkpt>
      <trkpt lat="43.56534" lon="6.1771">
        <ele>425.4</ele>
        <time>2025-06-19T22:36:16Z</time>
      </trkpt>
      <trkpt lat="43.56535" lon="6.17712">
        <ele>423.4</ele>
        <time>2025-06-19T22:36:16Z</time>
      </trkpt>
      <trkpt lat="43.56536" lon="6.17712">
        <ele>423.4</ele>
        <time>2025-06-19T22:36:16Z</time>
      </trkpt>
      <trkpt lat="43.56538" lon="6.17712">
        <ele>423.4</ele>
        <time>2025-06-19T22:36:16Z</time>
      </trkpt>
      <trkpt lat="43.5654" lon="6.17712">
        <ele>422.6</ele>
        <time>2025-06-19T22:36:16Z</time>
      </trkpt>
      <trkpt lat="43.56542" lon="6.17712">
        <ele>422.6</ele>
        <time>2025-06-19T22:36:16Z</time>
      </trkpt>
      <trkpt lat="43.56544" lon="6.17713">
        <ele>422</ele>
        <time>2025-06-19T22:36:16Z</time>
      </trkpt>
      <trkpt lat="43.56545" lon="6.17712">
        <ele>422</ele>
        <time>2025-06-19T22:36:16Z</time>
      </trkpt>
      <trkpt lat="43.56546" lon="6.17713">
        <ele>422</ele>
        <time>2025-06-19T22:36:16Z</time>
      </trkpt>
      <trkpt lat="43.56548" lon="6.17714">
        <ele>421.8</ele>
        <time>2025-06-19T22:36:16Z</time>
      </trkpt>
      <trkpt lat="43.56549" lon="6.17716">
        <ele>420.8</ele>
        <time>2025-06-19T22:36:16Z</time>
      </trkpt>
      <trkpt lat="43.56549" lon="6.17717">
        <ele>420.8</ele>
        <time>2025-06-19T22:36:16Z</time>
      </trkpt>
      <trkpt lat="43.56547" lon="6.17719">
        <ele>420.8</ele>
        <time>2025-06-19T22:36:16Z</time>
      </trkpt>
      <trkpt lat="43.56545" lon="6.17719">
        <ele>420.4</ele>
        <time>2025-06-19T22:36:16Z</time>
      </trkpt>
      <trkpt lat="43.56545" lon="6.1772">
        <ele>419</ele>
        <time>2025-06-19T22:36:16Z</time>
      </trkpt>
      <trkpt lat="43.56542" lon="6.17721">
        <ele>418.9</ele>
        <time>2025-06-19T22:36:16Z</time>
      </trkpt>
      <trkpt lat="43.56541" lon="6.17722">
        <ele>418.9</ele>
        <time>2025-06-19T22:36:16Z</time>
      </trkpt>
      <trkpt lat="43.5654" lon="6.17723">
        <ele>418.9</ele>
        <time>2025-06-19T22:36:16Z</time>
      </trkpt>
      <trkpt lat="43.56537" lon="6.17726">
        <ele>417.5</ele>
        <time>2025-06-19T22:36:16Z</time>
      </trkpt>
      <trkpt lat="43.56536" lon="6.17727">
        <ele>417.5</ele>
        <time>2025-06-19T22:36:16Z</time>
      </trkpt>
      <trkpt lat="43.56535" lon="6.17728">
        <ele>415.8</ele>
        <time>2025-06-19T22:36:16Z</time>
      </trkpt>
      <trkpt lat="43.56533" lon="6.17729">
        <ele>416.1</ele>
        <time>2025-06-19T22:36:16Z</time>
      </trkpt>
      <trkpt lat="43.56532" lon="6.1773">
        <ele>416.1</ele>
        <time>2025-06-19T22:36:16Z</time>
      </trkpt>
      <trkpt lat="43.56531" lon="6.17731">
        <ele>416.1</ele>
        <time>2025-06-19T22:36:16Z</time>
      </trkpt>
      <trkpt lat="43.56529" lon="6.17731">
        <ele>416.2</ele>
        <time>2025-06-19T22:36:16Z</time>
      </trkpt>
      <trkpt lat="43.56528" lon="6.17733">
        <ele>415.2</ele>
        <time>2025-06-19T22:36:16Z</time>
      </trkpt>
      <trkpt lat="43.56531" lon="6.17734">
        <ele>415</ele>
        <time>2025-06-19T22:36:16Z</time>
      </trkpt>
      <trkpt lat="43.56533" lon="6.17735">
        <ele>415</ele>
        <time>2025-06-19T22:36:16Z</time>
      </trkpt>
      <trkpt lat="43.56534" lon="6.17735">
        <ele>415</ele>
        <time>2025-06-19T22:36:16Z</time>
      </trkpt>
      <trkpt lat="43.56536" lon="6.17735">
        <ele>414.3</ele>
        <time>2025-06-19T22:36:16Z</time>
      </trkpt>
      <trkpt lat="43.56537" lon="6.17735">
        <ele>414.3</ele>
        <time>2025-06-19T22:36:16Z</time>
      </trkpt>
      <trkpt lat="43.5654" lon="6.17736">
        <ele>413.6</ele>
        <time>2025-06-19T22:36:16Z</time>
      </trkpt>
      <trkpt lat="43.56543" lon="6.17737">
        <ele>412.3</ele>
        <time>2025-06-19T22:36:16Z</time>
      </trkpt>
      <trkpt lat="43.56544" lon="6.17737">
        <ele>412.3</ele>
        <time>2025-06-19T22:36:16Z</time>
      </trkpt>
      <trkpt lat="43.56546" lon="6.17738">
        <ele>412.3</ele>
        <time>2025-06-19T22:36:16Z</time>
      </trkpt>
      <trkpt lat="43.56548" lon="6.17738">
        <ele>412.1</ele>
        <time>2025-06-19T22:36:16Z</time>
      </trkpt>
      <trkpt lat="43.56551" lon="6.17739">
        <ele>412.1</ele>
        <time>2025-06-19T22:36:16Z</time>
      </trkpt>
      <trkpt lat="43.56553" lon="6.17739">
        <ele>411.3</ele>
        <time>2025-06-19T22:36:16Z</time>
      </trkpt>
      <trkpt lat="43.56555" lon="6.17739">
        <ele>411.3</ele>
        <time>2025-06-19T22:36:16Z</time>
      </trkpt>
      <trkpt lat="43.56558" lon="6.17739">
        <ele>410.3</ele>
        <time>2025-06-19T22:36:16Z</time>
      </trkpt>
      <trkpt lat="43.56561" lon="6.17738">
        <ele>409.6</ele>
        <time>2025-06-19T22:36:16Z</time>
      </trkpt>
      <trkpt lat="43.56564" lon="6.17739">
        <ele>409.6</ele>
        <time>2025-06-19T22:36:16Z</time>
      </trkpt>
      <trkpt lat="43.56567" lon="6.17738">
        <ele>408.9</ele>
        <time>2025-06-19T22:36:16Z</time>
      </trkpt>
      <trkpt lat="43.5657" lon="6.17738">
        <ele>408.2</ele>
        <time>2025-06-19T22:36:16Z</time>
      </trkpt>
      <trkpt lat="43.56573" lon="6.17737">
        <ele>407.3</ele>
        <time>2025-06-19T22:36:16Z</time>
      </trkpt>
      <trkpt lat="43.56576" lon="6.17737">
        <ele>407.3</ele>
        <time>2025-06-19T22:36:16Z</time>
      </trkpt>
      <trkpt lat="43.56579" lon="6.17737">
        <ele>406.6</ele>
        <time>2025-06-19T22:36:16Z</time>
      </trkpt>
      <trkpt lat="43.5658" lon="6.17737">
        <ele>406.6</ele>
        <time>2025-06-19T22:36:16Z</time>
      </trkpt>
      <trkpt lat="43.56582" lon="6.17736">
        <ele>406.5</ele>
        <time>2025-06-19T22:36:16Z</time>
      </trkpt>
      <trkpt lat="43.56585" lon="6.17736">
        <ele>406.5</ele>
        <time>2025-06-19T22:36:16Z</time>
      </trkpt>
      <trkpt lat="43.56588" lon="6.17736">
        <ele>405.9</ele>
        <time>2025-06-19T22:36:16Z</time>
      </trkpt>
      <trkpt lat="43.56591" lon="6.17736">
        <ele>405.1</ele>
        <time>2025-06-19T22:36:16Z</time>
      </trkpt>
      <trkpt lat="43.56594" lon="6.17737">
        <ele>404.3</ele>
        <time>2025-06-19T22:36:16Z</time>
      </trkpt>
      <trkpt lat="43.56597" lon="6.17736">
        <ele>404.4</ele>
        <time>2025-06-19T22:36:16Z</time>
      </trkpt>
      <trkpt lat="43.56599" lon="6.17736">
        <ele>403.6</ele>
        <time>2025-06-19T22:36:16Z</time>
      </trkpt>
      <trkpt lat="43.56602" lon="6.17736">
        <ele>403.6</ele>
        <time>2025-06-19T22:36:16Z</time>
      </trkpt>
      <trkpt lat="43.56604" lon="6.17737">
        <ele>401.8</ele>
        <time>2025-06-19T22:36:16Z</time>
      </trkpt>
      <trkpt lat="43.56606" lon="6.17737">
        <ele>401.8</ele>
        <time>2025-06-19T22:36:16Z</time>
      </trkpt>
      <trkpt lat="43.56609" lon="6.17737">
        <ele>401</ele>
        <time>2025-06-19T22:36:16Z</time>
      </trkpt>
      <trkpt lat="43.56612" lon="6.17738">
        <ele>400.1</ele>
        <time>2025-06-19T22:36:16Z</time>
      </trkpt>
      <trkpt lat="43.56615" lon="6.17738">
        <ele>400.1</ele>
        <time>2025-06-19T22:36:16Z</time>
      </trkpt>
      <trkpt lat="43.56617" lon="6.17737">
        <ele>399.2</ele>
        <time>2025-06-19T22:36:16Z</time>
      </trkpt>
      <trkpt lat="43.5662" lon="6.17737">
        <ele>398.4</ele>
        <time>2025-06-19T22:36:16Z</time>
      </trkpt>
      <trkpt lat="43.56622" lon="6.17737">
        <ele>398.4</ele>
        <time>2025-06-19T22:36:16Z</time>
      </trkpt>
      <trkpt lat="43.56625" lon="6.17737">
        <ele>397.5</ele>
        <time>2025-06-19T22:36:16Z</time>
      </trkpt>
      <trkpt lat="43.56626" lon="6.17736">
        <ele>398</ele>
        <time>2025-06-19T22:36:16Z</time>
      </trkpt>
      <trkpt lat="43.56629" lon="6.17736">
        <ele>397.1</ele>
        <time>2025-06-19T22:36:16Z</time>
      </trkpt>
      <trkpt lat="43.5663" lon="6.17736">
        <ele>397.1</ele>
        <time>2025-06-19T22:36:16Z</time>
      </trkpt>
      <trkpt lat="43.56633" lon="6.17737">
        <ele>395.5</ele>
        <time>2025-06-19T22:36:16Z</time>
      </trkpt>
      <trkpt lat="43.56636" lon="6.17738">
        <ele>395.5</ele>
        <time>2025-06-19T22:36:16Z</time>
      </trkpt>
      <trkpt lat="43.56637" lon="6.17739">
        <ele>395.5</ele>
        <time>2025-06-19T22:36:16Z</time>
      </trkpt>
      <trkpt lat="43.56639" lon="6.1774">
        <ele>394.6</ele>
        <time>2025-06-19T22:36:16Z</time>
      </trkpt>
      <trkpt lat="43.5664" lon="6.1774">
        <ele>394.6</ele>
        <time>2025-06-19T22:36:16Z</time>
      </trkpt>
      <trkpt lat="43.56643" lon="6.17741">
        <ele>393.1</ele>
        <time>2025-06-19T22:36:16Z</time>
      </trkpt>
      <trkpt lat="43.56645" lon="6.1774">
        <ele>393.7</ele>
        <time>2025-06-19T22:36:16Z</time>
      </trkpt>
      <trkpt lat="43.56647" lon="6.17741">
        <ele>392.1</ele>
        <time>2025-06-19T22:36:16Z</time>
      </trkpt>
      <trkpt lat="43.56649" lon="6.17741">
        <ele>392.1</ele>
        <time>2025-06-19T22:36:16Z</time>
      </trkpt>
      <trkpt lat="43.56651" lon="6.17743">
        <ele>391.3</ele>
        <time>2025-06-19T22:36:16Z</time>
      </trkpt>
      <trkpt lat="43.56653" lon="6.17744">
        <ele>391.3</ele>
        <time>2025-06-19T22:36:16Z</time>
      </trkpt>
      <trkpt lat="43.56655" lon="6.17745">
        <ele>390.4</ele>
        <time>2025-06-19T22:36:16Z</time>
      </trkpt>
      <trkpt lat="43.56654" lon="6.17746">
        <ele>390.6</ele>
        <time>2025-06-19T22:36:16Z</time>
      </trkpt>
      <trkpt lat="43.56653" lon="6.17749">
        <ele>390.6</ele>
        <time>2025-06-19T22:36:16Z</time>
      </trkpt>
      <trkpt lat="43.56652" lon="6.17752">
        <ele>389.7</ele>
        <time>2025-06-19T22:36:16Z</time>
      </trkpt>
      <trkpt lat="43.5665" lon="6.17756">
        <ele>388.9</ele>
        <time>2025-06-19T22:36:16Z</time>
      </trkpt>
      <trkpt lat="43.56649" lon="6.17759">
        <ele>388.2</ele>
        <time>2025-06-19T22:36:16Z</time>
      </trkpt>
      <trkpt lat="43.56647" lon="6.1776">
        <ele>388.2</ele>
        <time>2025-06-19T22:36:16Z</time>
      </trkpt>
      <trkpt lat="43.56645" lon="6.17762">
        <ele>388.3</ele>
        <time>2025-06-19T22:36:16Z</time>
      </trkpt>
      <trkpt lat="43.56643" lon="6.17764">
        <ele>387.5</ele>
        <time>2025-06-19T22:36:16Z</time>
      </trkpt>
      <trkpt lat="43.56641" lon="6.17766">
        <ele>387.3</ele>
        <time>2025-06-19T22:36:16Z</time>
      </trkpt>
      <trkpt lat="43.56639" lon="6.17767">
        <ele>386.7</ele>
        <time>2025-06-19T22:36:16Z</time>
      </trkpt>
      <trkpt lat="43.56638" lon="6.17769">
        <ele>386.7</ele>
        <time>2025-06-19T22:36:16Z</time>
      </trkpt>
      <trkpt lat="43.56637" lon="6.1777">
        <ele>386.6</ele>
        <time>2025-06-19T22:36:16Z</time>
      </trkpt>
      <trkpt lat="43.56637" lon="6.17772">
        <ele>386.3</ele>
        <time>2025-06-19T22:36:16Z</time>
      </trkpt>
      <trkpt lat="43.56637" lon="6.17773">
        <ele>386.3</ele>
        <time>2025-06-19T22:36:16Z</time>
      </trkpt>
      <trkpt lat="43.56638" lon="6.17776">
        <ele>386</ele>
        <time>2025-06-19T22:36:16Z</time>
      </trkpt>
      <trkpt lat="43.56643" lon="6.17777">
        <ele>385.7</ele>
        <time>2025-06-19T22:36:16Z</time>
      </trkpt>
      <trkpt lat="43.56647" lon="6.17776">
        <ele>385.5</ele>
        <time>2025-06-19T22:36:16Z</time>
      </trkpt>
      <trkpt lat="43.56652" lon="6.17774">
        <ele>385.2</ele>
        <time>2025-06-19T22:36:16Z</time>
      </trkpt>
      <trkpt lat="43.56671" lon="6.17766">
        <ele>383.8</ele>
        <time>2025-06-19T22:36:16Z</time>
      </trkpt>
      <trkpt lat="43.56685" lon="6.17761">
        <ele>382.3</ele>
        <time>2025-06-19T22:36:16Z</time>
      </trkpt>
      <trkpt lat="43.56694" lon="6.1776">
        <ele>381.4</ele>
        <time>2025-06-19T22:36:16Z</time>
      </trkpt>
      <trkpt lat="43.567" lon="6.1776">
        <ele>380.9</ele>
        <time>2025-06-19T22:36:16Z</time>
      </trkpt>
      <trkpt lat="43.56707" lon="6.17764">
        <ele>379.8</ele>
        <time>2025-06-19T22:36:16Z</time>
      </trkpt>
      <trkpt lat="43.56702" lon="6.17778">
        <ele>379.3</ele>
        <time>2025-06-19T22:36:16Z</time>
      </trkpt>
      <trkpt lat="43.56699" lon="6.17793">
        <ele>378.3</ele>
        <time>2025-06-19T22:36:16Z</time>
      </trkpt>
      <trkpt lat="43.56697" lon="6.17798">
        <ele>378.1</ele>
        <time>2025-06-19T22:36:16Z</time>
      </trkpt>
      <trkpt lat="43.56689" lon="6.17807">
        <ele>377.8</ele>
        <time>2025-06-19T22:36:16Z</time>
      </trkpt>
      <trkpt lat="43.56675" lon="6.17813">
        <ele>377.8</ele>
        <time>2025-06-19T22:36:16Z</time>
      </trkpt>
      <trkpt lat="43.56674" lon="6.17829">
        <ele>377.5</ele>
        <time>2025-06-19T22:36:16Z</time>
      </trkpt>
      <trkpt lat="43.56674" lon="6.17834">
        <ele>377.4</ele>
        <time>2025-06-19T22:36:16Z</time>
      </trkpt>
      <trkpt lat="43.56674" lon="6.17838">
        <ele>377</ele>
        <time>2025-06-19T22:36:16Z</time>
      </trkpt>
      <trkpt lat="43.56674" lon="6.17846">
        <ele>375.8</ele>
        <time>2025-06-19T22:36:16Z</time>
      </trkpt>
      <trkpt lat="43.56675" lon="6.17852">
        <ele>375.6</ele>
        <time>2025-06-19T22:36:16Z</time>
      </trkpt>
      <trkpt lat="43.56676" lon="6.17857">
        <ele>375.3</ele>
        <time>2025-06-19T22:36:16Z</time>
      </trkpt>
      <trkpt lat="43.56677" lon="6.17863">
        <ele>375.2</ele>
        <time>2025-06-19T22:36:16Z</time>
      </trkpt>
      <trkpt lat="43.56677" lon="6.17866">
        <ele>375.1</ele>
        <time>2025-06-19T22:36:16Z</time>
      </trkpt>
      <trkpt lat="43.56677" lon="6.1787">
        <ele>375</ele>
        <time>2025-06-19T22:36:16Z</time>
      </trkpt>
      <trkpt lat="43.56678" lon="6.17874">
        <ele>374.9</ele>
        <time>2025-06-19T22:36:16Z</time>
      </trkpt>
      <trkpt lat="43.56678" lon="6.17877">
        <ele>374.9</ele>
        <time>2025-06-19T22:36:16Z</time>
      </trkpt>
      <trkpt lat="43.56677" lon="6.1788">
        <ele>374.8</ele>
        <time>2025-06-19T22:36:16Z</time>
      </trkpt>
      <trkpt lat="43.56677" lon="6.17883">
        <ele>374.7</ele>
        <time>2025-06-19T22:36:16Z</time>
      </trkpt>
      <trkpt lat="43.56677" lon="6.17887">
        <ele>374.7</ele>
        <time>2025-06-19T22:36:16Z</time>
      </trkpt>
      <trkpt lat="43.56677" lon="6.17889">
        <ele>374.7</ele>
        <time>2025-06-19T22:36:16Z</time>
      </trkpt>
      <trkpt lat="43.56677" lon="6.17891">
        <ele>374.5</ele>
        <time>2025-06-19T22:36:16Z</time>
      </trkpt>
      <trkpt lat="43.56677" lon="6.17894">
        <ele>374.5</ele>
        <time>2025-06-19T22:36:16Z</time>
      </trkpt>
      <trkpt lat="43.56677" lon="6.17897">
        <ele>374.2</ele>
        <time>2025-06-19T22:36:16Z</time>
      </trkpt>
      <trkpt lat="43.56677" lon="6.179">
        <ele>373.7</ele>
        <time>2025-06-19T22:36:16Z</time>
      </trkpt>
      <trkpt lat="43.56678" lon="6.17905">
        <ele>373.4</ele>
        <time>2025-06-19T22:36:16Z</time>
      </trkpt>
      <trkpt lat="43.56678" lon="6.17909">
        <ele>373.2</ele>
        <time>2025-06-19T22:36:16Z</time>
      </trkpt>
      <trkpt lat="43.56678" lon="6.17912">
        <ele>373.2</ele>
        <time>2025-06-19T22:36:16Z</time>
      </trkpt>
      <trkpt lat="43.56678" lon="6.17916">
        <ele>373.1</ele>
        <time>2025-06-19T22:36:16Z</time>
      </trkpt>
      <trkpt lat="43.56677" lon="6.17922">
        <ele>372.8</ele>
        <time>2025-06-19T22:36:16Z</time>
      </trkpt>
      <trkpt lat="43.56677" lon="6.17925">
        <ele>372.8</ele>
        <time>2025-06-19T22:36:16Z</time>
      </trkpt>
      <trkpt lat="43.56677" lon="6.17928">
        <ele>372.8</ele>
        <time>2025-06-19T22:36:16Z</time>
      </trkpt>
      <trkpt lat="43.56676" lon="6.17932">
        <ele>372.7</ele>
        <time>2025-06-19T22:36:16Z</time>
      </trkpt>
      <trkpt lat="43.56675" lon="6.17937">
        <ele>372.2</ele>
        <time>2025-06-19T22:36:16Z</time>
      </trkpt>
      <trkpt lat="43.56675" lon="6.1794">
        <ele>372.2</ele>
        <time>2025-06-19T22:36:16Z</time>
      </trkpt>
      <trkpt lat="43.56674" lon="6.17944">
        <ele>372.2</ele>
        <time>2025-06-19T22:36:16Z</time>
      </trkpt>
      <trkpt lat="43.56674" lon="6.17947">
        <ele>372.1</ele>
        <time>2025-06-19T22:36:16Z</time>
      </trkpt>
      <trkpt lat="43.56673" lon="6.17952">
        <ele>372.1</ele>
        <time>2025-06-19T22:36:16Z</time>
      </trkpt>
    </trkseg>
  </trk>
</gpx>